<?xml version="1.0" encoding="UTF-8" standalone="no" ?>
<gpx xmlns="http://www.topografix.com/GPX/1/1" xmlns:xsi="http://www.w3.org/2001/XMLSchema-instance" xsi:schemaLocation="http://www.topografix.com/GPX/1/1 http://www.topografix.com/GPX/1/1/gpx.xsd" version="1.1" creator="VisuGPX - https://www.visugpx.com">
  <metadata>
    <name>Ray-Pic Rocher du Cheylard Sausses Burzet Péreyres</name>
    <desc><![CDATA[File with points/tracks from Locus Map/4.1.1]]></desc>
  </metadata>
  <trk>
    <name><![CDATA[2021-05-23 09:31:58]]></name>
    <extensions>
      <line xmlns="http://www.topografix.com/GPX/gpx_style/0/2">
        <color>0000FF</color>
        <opacity>0.59</opacity>
        <width>6.0</width>
      </line>
    </extensions>
    <trkseg>
      <trkpt lat="44.7879" lon="4.25372">
        <ele>915.83</ele>
        <time>2021-05-23T07:31:58.411Z</time>
      </trkpt>
      <trkpt lat="44.78794" lon="4.25381">
        <ele>914.43</ele>
        <time>2021-05-23T07:32:08.049Z</time>
      </trkpt>
      <trkpt lat="44.78802" lon="4.25385">
        <ele>915.4</ele>
        <time>2021-05-23T07:32:17.185Z</time>
      </trkpt>
      <trkpt lat="44.78812" lon="4.25389">
        <ele>917.12</ele>
        <time>2021-05-23T07:32:26.290Z</time>
      </trkpt>
      <trkpt lat="44.78816" lon="4.25386">
        <ele>918.97</ele>
        <time>2021-05-23T07:32:35.514Z</time>
      </trkpt>
      <trkpt lat="44.78829" lon="4.25388">
        <ele>922.02</ele>
        <time>2021-05-23T07:32:44.698Z</time>
      </trkpt>
      <trkpt lat="44.78839" lon="4.2539">
        <ele>924.53</ele>
        <time>2021-05-23T07:32:54.156Z</time>
      </trkpt>
      <trkpt lat="44.7885" lon="4.25394">
        <ele>926.73</ele>
        <time>2021-05-23T07:33:04.298Z</time>
      </trkpt>
      <trkpt lat="44.78861" lon="4.25401">
        <ele>928.6</ele>
        <time>2021-05-23T07:33:13.574Z</time>
      </trkpt>
      <trkpt lat="44.78868" lon="4.25414">
        <ele>929.3</ele>
        <time>2021-05-23T07:33:22.674Z</time>
      </trkpt>
      <trkpt lat="44.78868" lon="4.25432">
        <ele>928.54</ele>
        <time>2021-05-23T07:33:32.174Z</time>
      </trkpt>
      <trkpt lat="44.78861" lon="4.2545">
        <ele>926.55</ele>
        <time>2021-05-23T07:33:42.233Z</time>
      </trkpt>
      <trkpt lat="44.78854" lon="4.25467">
        <ele>924.61</ele>
        <time>2021-05-23T07:33:52.172Z</time>
      </trkpt>
      <trkpt lat="44.78854" lon="4.25483">
        <ele>924.99</ele>
        <time>2021-05-23T07:34:01.590Z</time>
      </trkpt>
      <trkpt lat="44.78855" lon="4.255">
        <ele>925.54</ele>
        <time>2021-05-23T07:34:10.999Z</time>
      </trkpt>
      <trkpt lat="44.7886" lon="4.25508">
        <ele>927.71</ele>
        <time>2021-05-23T07:34:21.515Z</time>
      </trkpt>
      <trkpt lat="44.78867" lon="4.25523">
        <ele>930.79</ele>
        <time>2021-05-23T07:34:30.735Z</time>
      </trkpt>
      <trkpt lat="44.78873" lon="4.25534">
        <ele>933.53</ele>
        <time>2021-05-23T07:34:39.816Z</time>
      </trkpt>
      <trkpt lat="44.78873" lon="4.25554">
        <ele>932.35</ele>
        <time>2021-05-23T07:34:50.295Z</time>
      </trkpt>
      <trkpt lat="44.78874" lon="4.25573">
        <ele>931.3</ele>
        <time>2021-05-23T07:34:59.816Z</time>
      </trkpt>
      <trkpt lat="44.78876" lon="4.25594">
        <ele>930.83</ele>
        <time>2021-05-23T07:35:09.310Z</time>
      </trkpt>
      <trkpt lat="44.78881" lon="4.25609">
        <ele>932.3</ele>
        <time>2021-05-23T07:35:18.329Z</time>
      </trkpt>
      <trkpt lat="44.78885" lon="4.25625">
        <ele>933.12</ele>
        <time>2021-05-23T07:35:28.278Z</time>
      </trkpt>
      <trkpt lat="44.78886" lon="4.25642">
        <ele>930.65</ele>
        <time>2021-05-23T07:35:37.299Z</time>
      </trkpt>
      <trkpt lat="44.78885" lon="4.25661">
        <ele>926.68</ele>
        <time>2021-05-23T07:35:46.819Z</time>
      </trkpt>
      <trkpt lat="44.78884" lon="4.2568">
        <ele>922.22</ele>
        <time>2021-05-23T07:35:56.356Z</time>
      </trkpt>
      <trkpt lat="44.78884" lon="4.25696">
        <ele>919.25</ele>
        <time>2021-05-23T07:36:05.872Z</time>
      </trkpt>
      <trkpt lat="44.78884" lon="4.25715">
        <ele>915.37</ele>
        <time>2021-05-23T07:36:14.999Z</time>
      </trkpt>
      <trkpt lat="44.78885" lon="4.2573">
        <ele>913.13</ele>
        <time>2021-05-23T07:36:24.110Z</time>
      </trkpt>
      <trkpt lat="44.78893" lon="4.25743">
        <ele>914.71</ele>
        <time>2021-05-23T07:36:33.193Z</time>
      </trkpt>
      <trkpt lat="44.78905" lon="4.25747">
        <ele>919.48</ele>
        <time>2021-05-23T07:36:42.750Z</time>
      </trkpt>
      <trkpt lat="44.78911" lon="4.25744">
        <ele>922.61</ele>
        <time>2021-05-23T07:36:51.996Z</time>
      </trkpt>
      <trkpt lat="44.78917" lon="4.25743">
        <ele>924.62</ele>
        <time>2021-05-23T07:37:01.337Z</time>
      </trkpt>
      <trkpt lat="44.78929" lon="4.25741">
        <ele>928.45</ele>
        <time>2021-05-23T07:37:10.634Z</time>
      </trkpt>
      <trkpt lat="44.78942" lon="4.25741">
        <ele>931.33</ele>
        <time>2021-05-23T07:37:20.395Z</time>
      </trkpt>
      <trkpt lat="44.78954" lon="4.25743">
        <ele>933.1</ele>
        <time>2021-05-23T07:37:30.157Z</time>
      </trkpt>
      <trkpt lat="44.78966" lon="4.25748">
        <ele>933.6</ele>
        <time>2021-05-23T07:37:39.234Z</time>
      </trkpt>
      <trkpt lat="44.7898" lon="4.25752">
        <ele>934.91</ele>
        <time>2021-05-23T07:37:48.414Z</time>
      </trkpt>
      <trkpt lat="44.78991" lon="4.25758">
        <ele>935.25</ele>
        <time>2021-05-23T07:37:57.480Z</time>
      </trkpt>
      <trkpt lat="44.79002" lon="4.25765">
        <ele>935.23</ele>
        <time>2021-05-23T07:38:06.889Z</time>
      </trkpt>
      <trkpt lat="44.79012" lon="4.25776">
        <ele>934.4</ele>
        <time>2021-05-23T07:38:16.031Z</time>
      </trkpt>
      <trkpt lat="44.79022" lon="4.25786">
        <ele>933.98</ele>
        <time>2021-05-23T07:38:25.221Z</time>
      </trkpt>
      <trkpt lat="44.79032" lon="4.25797">
        <ele>933.35</ele>
        <time>2021-05-23T07:38:34.399Z</time>
      </trkpt>
      <trkpt lat="44.79039" lon="4.25809">
        <ele>931.69</ele>
        <time>2021-05-23T07:38:44.156Z</time>
      </trkpt>
      <trkpt lat="44.79048" lon="4.2582">
        <ele>931.53</ele>
        <time>2021-05-23T07:38:53.399Z</time>
      </trkpt>
      <trkpt lat="44.79056" lon="4.25828">
        <ele>931.67</ele>
        <time>2021-05-23T07:39:03.196Z</time>
      </trkpt>
      <trkpt lat="44.79065" lon="4.25839">
        <ele>931.01</ele>
        <time>2021-05-23T07:39:12.292Z</time>
      </trkpt>
      <trkpt lat="44.79074" lon="4.25849">
        <ele>930.18</ele>
        <time>2021-05-23T07:39:21.550Z</time>
      </trkpt>
      <trkpt lat="44.79081" lon="4.2586">
        <ele>927.8</ele>
        <time>2021-05-23T07:39:30.770Z</time>
      </trkpt>
      <trkpt lat="44.79089" lon="4.25868">
        <ele>927.06</ele>
        <time>2021-05-23T07:39:40.077Z</time>
      </trkpt>
      <trkpt lat="44.79098" lon="4.25874">
        <ele>927.26</ele>
        <time>2021-05-23T07:39:49.117Z</time>
      </trkpt>
      <trkpt lat="44.79106" lon="4.25888">
        <ele>923.79</ele>
        <time>2021-05-23T07:39:58.377Z</time>
      </trkpt>
      <trkpt lat="44.79113" lon="4.25886">
        <ele>926.95</ele>
        <time>2021-05-23T07:40:07.714Z</time>
      </trkpt>
      <trkpt lat="44.79117" lon="4.25887">
        <ele>928.23</ele>
        <time>2021-05-23T07:40:20.999Z</time>
      </trkpt>
      <trkpt lat="44.79117" lon="4.25894">
        <ele>925.6</ele>
        <time>2021-05-23T07:40:30.478Z</time>
      </trkpt>
      <trkpt lat="44.79118" lon="4.25898">
        <ele>924.41</ele>
        <time>2021-05-23T07:40:48.311Z</time>
      </trkpt>
      <trkpt lat="44.79109" lon="4.2591">
        <ele>917.78</ele>
        <time>2021-05-23T07:40:57.710Z</time>
      </trkpt>
      <trkpt lat="44.79105" lon="4.25919">
        <ele>914.59</ele>
        <time>2021-05-23T07:41:07.000Z</time>
      </trkpt>
      <trkpt lat="44.79103" lon="4.25921">
        <ele>913.69</ele>
        <time>2021-05-23T07:41:23.297Z</time>
      </trkpt>
      <trkpt lat="44.79095" lon="4.2593">
        <ele>910.91</ele>
        <time>2021-05-23T07:41:32.577Z</time>
      </trkpt>
      <trkpt lat="44.79084" lon="4.2594">
        <ele>909.02</ele>
        <time>2021-05-23T07:41:41.698Z</time>
      </trkpt>
      <trkpt lat="44.79077" lon="4.25945">
        <ele>908.78</ele>
        <time>2021-05-23T07:41:51.178Z</time>
      </trkpt>
      <trkpt lat="44.79073" lon="4.25946">
        <ele>908.88</ele>
        <time>2021-05-23T07:42:28.000Z</time>
      </trkpt>
      <trkpt lat="44.79073" lon="4.25948">
        <ele>909</ele>
        <time>2021-05-23T07:42:56.170Z</time>
      </trkpt>
      <trkpt lat="44.7907" lon="4.25956">
        <ele>910.21</ele>
        <time>2021-05-23T07:43:06.096Z</time>
      </trkpt>
      <trkpt lat="44.79068" lon="4.25955">
        <ele>910.25</ele>
        <time>2021-05-23T07:44:08.000Z</time>
      </trkpt>
      <trkpt lat="44.79071" lon="4.25956">
        <ele>910</ele>
        <time>2021-05-23T07:44:18.000Z</time>
      </trkpt>
      <trkpt lat="44.7907" lon="4.25953">
        <ele>909.73</ele>
        <time>2021-05-23T07:45:21.000Z</time>
      </trkpt>
      <trkpt lat="44.7907" lon="4.25956">
        <ele>910.23</ele>
        <time>2021-05-23T07:45:48.000Z</time>
      </trkpt>
      <trkpt lat="44.79067" lon="4.25959">
        <ele>910.78</ele>
        <time>2021-05-23T07:45:57.416Z</time>
      </trkpt>
      <trkpt lat="44.79065" lon="4.25968">
        <ele>912.73</ele>
        <time>2021-05-23T07:46:08.000Z</time>
      </trkpt>
      <trkpt lat="44.79068" lon="4.25972">
        <ele>912.92</ele>
        <time>2021-05-23T07:46:21.272Z</time>
      </trkpt>
      <trkpt lat="44.79068" lon="4.25979">
        <ele>913.92</ele>
        <time>2021-05-23T07:46:31.000Z</time>
      </trkpt>
      <trkpt lat="44.79069" lon="4.25983">
        <ele>914.34</ele>
        <time>2021-05-23T07:46:49.000Z</time>
      </trkpt>
      <trkpt lat="44.79067" lon="4.25983">
        <ele>914.82</ele>
        <time>2021-05-23T07:46:59.456Z</time>
      </trkpt>
      <trkpt lat="44.79058" lon="4.25974">
        <ele>915.46</ele>
        <time>2021-05-23T07:47:09.250Z</time>
      </trkpt>
      <trkpt lat="44.79055" lon="4.25977">
        <ele>916.96</ele>
        <time>2021-05-23T07:47:18.258Z</time>
      </trkpt>
      <trkpt lat="44.79044" lon="4.25988">
        <ele>923.55</ele>
        <time>2021-05-23T07:47:53.353Z</time>
      </trkpt>
      <trkpt lat="44.79038" lon="4.25991">
        <ele>926.91</ele>
        <time>2021-05-23T07:48:02.993Z</time>
      </trkpt>
      <trkpt lat="44.79026" lon="4.25997">
        <ele>933.8</ele>
        <time>2021-05-23T07:48:40.401Z</time>
      </trkpt>
      <trkpt lat="44.79017" lon="4.25999">
        <ele>938.08</ele>
        <time>2021-05-23T07:48:49.494Z</time>
      </trkpt>
      <trkpt lat="44.79009" lon="4.25998">
        <ele>941.12</ele>
        <time>2021-05-23T07:49:09.292Z</time>
      </trkpt>
      <trkpt lat="44.78997" lon="4.26004">
        <ele>945.32</ele>
        <time>2021-05-23T07:49:19.000Z</time>
      </trkpt>
      <trkpt lat="44.7899" lon="4.26006">
        <ele>946.88</ele>
        <time>2021-05-23T07:49:34.468Z</time>
      </trkpt>
      <trkpt lat="44.78982" lon="4.26009">
        <ele>948.43</ele>
        <time>2021-05-23T07:49:43.528Z</time>
      </trkpt>
      <trkpt lat="44.7898" lon="4.26032">
        <ele>952.24</ele>
        <time>2021-05-23T07:50:39.315Z</time>
      </trkpt>
      <trkpt lat="44.7899" lon="4.26034">
        <ele>951.05</ele>
        <time>2021-05-23T07:50:48.999Z</time>
      </trkpt>
      <trkpt lat="44.78992" lon="4.26036">
        <ele>950.86</ele>
        <time>2021-05-23T07:50:58.999Z</time>
      </trkpt>
      <trkpt lat="44.78988" lon="4.26037">
        <ele>951.63</ele>
        <time>2021-05-23T07:51:08.698Z</time>
      </trkpt>
      <trkpt lat="44.78981" lon="4.26037">
        <ele>952.65</ele>
        <time>2021-05-23T07:51:18.516Z</time>
      </trkpt>
      <trkpt lat="44.78977" lon="4.2605">
        <ele>954.73</ele>
        <time>2021-05-23T07:51:48.999Z</time>
      </trkpt>
      <trkpt lat="44.78975" lon="4.26069">
        <ele>957.47</ele>
        <time>2021-05-23T07:51:58.013Z</time>
      </trkpt>
      <trkpt lat="44.78972" lon="4.26077">
        <ele>959.44</ele>
        <time>2021-05-23T07:52:07.165Z</time>
      </trkpt>
      <trkpt lat="44.78973" lon="4.26084">
        <ele>960.75</ele>
        <time>2021-05-23T07:52:17.278Z</time>
      </trkpt>
      <trkpt lat="44.78973" lon="4.26092">
        <ele>962.62</ele>
        <time>2021-05-23T07:52:27.199Z</time>
      </trkpt>
      <trkpt lat="44.78977" lon="4.26104">
        <ele>965.15</ele>
        <time>2021-05-23T07:52:36.396Z</time>
      </trkpt>
      <trkpt lat="44.78979" lon="4.26107">
        <ele>965.37</ele>
        <time>2021-05-23T07:52:46.195Z</time>
      </trkpt>
      <trkpt lat="44.78979" lon="4.26115">
        <ele>967.42</ele>
        <time>2021-05-23T07:52:56.278Z</time>
      </trkpt>
      <trkpt lat="44.78978" lon="4.26121">
        <ele>969.53</ele>
        <time>2021-05-23T07:53:06.999Z</time>
      </trkpt>
      <trkpt lat="44.78977" lon="4.26125">
        <ele>971.03</ele>
        <time>2021-05-23T07:53:16.539Z</time>
      </trkpt>
      <trkpt lat="44.78975" lon="4.26132">
        <ele>973.55</ele>
        <time>2021-05-23T07:53:25.974Z</time>
      </trkpt>
      <trkpt lat="44.78976" lon="4.26137">
        <ele>974.82</ele>
        <time>2021-05-23T07:53:36.094Z</time>
      </trkpt>
      <trkpt lat="44.78978" lon="4.26145">
        <ele>976.87</ele>
        <time>2021-05-23T07:53:45.999Z</time>
      </trkpt>
      <trkpt lat="44.78978" lon="4.26157">
        <ele>980.39</ele>
        <time>2021-05-23T07:54:02.473Z</time>
      </trkpt>
      <trkpt lat="44.78979" lon="4.26164">
        <ele>982.08</ele>
        <time>2021-05-23T07:54:12.399Z</time>
      </trkpt>
      <trkpt lat="44.78983" lon="4.26171">
        <ele>983.42</ele>
        <time>2021-05-23T07:54:22.255Z</time>
      </trkpt>
      <trkpt lat="44.78988" lon="4.26182">
        <ele>984.91</ele>
        <time>2021-05-23T07:54:31.714Z</time>
      </trkpt>
      <trkpt lat="44.78993" lon="4.26196">
        <ele>987.36</ele>
        <time>2021-05-23T07:54:41.413Z</time>
      </trkpt>
      <trkpt lat="44.78994" lon="4.26201">
        <ele>988.39</ele>
        <time>2021-05-23T07:54:50.999Z</time>
      </trkpt>
      <trkpt lat="44.78993" lon="4.26198">
        <ele>988.09</ele>
        <time>2021-05-23T07:55:12.999Z</time>
      </trkpt>
      <trkpt lat="44.78995" lon="4.262">
        <ele>987.94</ele>
        <time>2021-05-23T07:55:32.999Z</time>
      </trkpt>
      <trkpt lat="44.78994" lon="4.26208">
        <ele>990.54</ele>
        <time>2021-05-23T07:56:44.999Z</time>
      </trkpt>
      <trkpt lat="44.78995" lon="4.26209">
        <ele>990.43</ele>
        <time>2021-05-23T07:56:57.097Z</time>
      </trkpt>
      <trkpt lat="44.79" lon="4.2622">
        <ele>991.79</ele>
        <time>2021-05-23T07:58:00.999Z</time>
      </trkpt>
      <trkpt lat="44.79001" lon="4.26225">
        <ele>993.06</ele>
        <time>2021-05-23T07:58:26.079Z</time>
      </trkpt>
      <trkpt lat="44.79005" lon="4.26233">
        <ele>993.38</ele>
        <time>2021-05-23T07:58:43.462Z</time>
      </trkpt>
      <trkpt lat="44.7901" lon="4.26269">
        <ele>1000.92</ele>
        <time>2021-05-23T07:59:59.534Z</time>
      </trkpt>
      <trkpt lat="44.79014" lon="4.26292">
        <ele>1004.84</ele>
        <time>2021-05-23T08:00:09.375Z</time>
      </trkpt>
      <trkpt lat="44.79018" lon="4.26309">
        <ele>1007.65</ele>
        <time>2021-05-23T08:00:18.895Z</time>
      </trkpt>
      <trkpt lat="44.79019" lon="4.26324">
        <ele>1010.74</ele>
        <time>2021-05-23T08:00:27.914Z</time>
      </trkpt>
      <trkpt lat="44.79022" lon="4.2634">
        <ele>1013.8</ele>
        <time>2021-05-23T08:00:36.995Z</time>
      </trkpt>
      <trkpt lat="44.79026" lon="4.26352">
        <ele>1015</ele>
        <time>2021-05-23T08:00:46.531Z</time>
      </trkpt>
      <trkpt lat="44.7903" lon="4.26362">
        <ele>1015.79</ele>
        <time>2021-05-23T08:00:56.530Z</time>
      </trkpt>
      <trkpt lat="44.79033" lon="4.26368">
        <ele>1016.25</ele>
        <time>2021-05-23T08:01:05.929Z</time>
      </trkpt>
      <trkpt lat="44.79037" lon="4.26379">
        <ele>1016.78</ele>
        <time>2021-05-23T08:01:15.068Z</time>
      </trkpt>
      <trkpt lat="44.79043" lon="4.26389">
        <ele>1016.51</ele>
        <time>2021-05-23T08:01:25.367Z</time>
      </trkpt>
      <trkpt lat="44.79047" lon="4.26399">
        <ele>1016.98</ele>
        <time>2021-05-23T08:01:50.375Z</time>
      </trkpt>
      <trkpt lat="44.7905" lon="4.26412">
        <ele>1018.73</ele>
        <time>2021-05-23T08:01:59.715Z</time>
      </trkpt>
      <trkpt lat="44.79054" lon="4.2642">
        <ele>1018.97</ele>
        <time>2021-05-23T08:02:09.513Z</time>
      </trkpt>
      <trkpt lat="44.79058" lon="4.26426">
        <ele>1018.41</ele>
        <time>2021-05-23T08:02:18.975Z</time>
      </trkpt>
      <trkpt lat="44.79062" lon="4.26438">
        <ele>1018.85</ele>
        <time>2021-05-23T08:02:36.193Z</time>
      </trkpt>
      <trkpt lat="44.79065" lon="4.26447">
        <ele>1019.86</ele>
        <time>2021-05-23T08:02:45.549Z</time>
      </trkpt>
      <trkpt lat="44.79068" lon="4.26459">
        <ele>1021.19</ele>
        <time>2021-05-23T08:02:55.236Z</time>
      </trkpt>
      <trkpt lat="44.79066" lon="4.2647">
        <ele>1025.96</ele>
        <time>2021-05-23T08:03:04.535Z</time>
      </trkpt>
      <trkpt lat="44.79067" lon="4.26484">
        <ele>1029.06</ele>
        <time>2021-05-23T08:03:14.035Z</time>
      </trkpt>
      <trkpt lat="44.79067" lon="4.26496">
        <ele>1032.45</ele>
        <time>2021-05-23T08:03:23.471Z</time>
      </trkpt>
      <trkpt lat="44.79067" lon="4.26512">
        <ele>1036.31</ele>
        <time>2021-05-23T08:03:33.330Z</time>
      </trkpt>
      <trkpt lat="44.79074" lon="4.26524">
        <ele>1035.3</ele>
        <time>2021-05-23T08:03:43.391Z</time>
      </trkpt>
      <trkpt lat="44.79083" lon="4.26531">
        <ele>1030.52</ele>
        <time>2021-05-23T08:03:53.288Z</time>
      </trkpt>
      <trkpt lat="44.79091" lon="4.26539">
        <ele>1026.86</ele>
        <time>2021-05-23T08:04:02.496Z</time>
      </trkpt>
      <trkpt lat="44.79094" lon="4.26552">
        <ele>1027.55</ele>
        <time>2021-05-23T08:04:12.000Z</time>
      </trkpt>
      <trkpt lat="44.79092" lon="4.26563">
        <ele>1032.15</ele>
        <time>2021-05-23T08:04:21.536Z</time>
      </trkpt>
      <trkpt lat="44.79093" lon="4.2658">
        <ele>1034.36</ele>
        <time>2021-05-23T08:04:31.038Z</time>
      </trkpt>
      <trkpt lat="44.79094" lon="4.26598">
        <ele>1036.22</ele>
        <time>2021-05-23T08:04:40.233Z</time>
      </trkpt>
      <trkpt lat="44.79092" lon="4.26612">
        <ele>1040.33</ele>
        <time>2021-05-23T08:04:49.553Z</time>
      </trkpt>
      <trkpt lat="44.79093" lon="4.26628">
        <ele>1041.17</ele>
        <time>2021-05-23T08:04:58.631Z</time>
      </trkpt>
      <trkpt lat="44.79098" lon="4.26645">
        <ele>1037.94</ele>
        <time>2021-05-23T08:05:08.491Z</time>
      </trkpt>
      <trkpt lat="44.79103" lon="4.26659">
        <ele>1034.59</ele>
        <time>2021-05-23T08:05:17.590Z</time>
      </trkpt>
      <trkpt lat="44.79109" lon="4.26672">
        <ele>1029.88</ele>
        <time>2021-05-23T08:05:27.051Z</time>
      </trkpt>
      <trkpt lat="44.79113" lon="4.26681">
        <ele>1025.69</ele>
        <time>2021-05-23T08:05:37.417Z</time>
      </trkpt>
      <trkpt lat="44.79116" lon="4.26689">
        <ele>1022.77</ele>
        <time>2021-05-23T08:05:46.462Z</time>
      </trkpt>
      <trkpt lat="44.79118" lon="4.267">
        <ele>1021.14</ele>
        <time>2021-05-23T08:05:55.473Z</time>
      </trkpt>
      <trkpt lat="44.79118" lon="4.26707">
        <ele>1020.54</ele>
        <time>2021-05-23T08:06:05.000Z</time>
      </trkpt>
      <trkpt lat="44.7912" lon="4.26719">
        <ele>1018.45</ele>
        <time>2021-05-23T08:06:15.276Z</time>
      </trkpt>
      <trkpt lat="44.79122" lon="4.2673">
        <ele>1016.16</ele>
        <time>2021-05-23T08:06:24.572Z</time>
      </trkpt>
      <trkpt lat="44.79124" lon="4.26736">
        <ele>1014.84</ele>
        <time>2021-05-23T08:06:34.466Z</time>
      </trkpt>
      <trkpt lat="44.79127" lon="4.26743">
        <ele>1012.93</ele>
        <time>2021-05-23T08:06:43.513Z</time>
      </trkpt>
      <trkpt lat="44.79123" lon="4.26746">
        <ele>1015.22</ele>
        <time>2021-05-23T08:07:02.000Z</time>
      </trkpt>
      <trkpt lat="44.7912" lon="4.26748">
        <ele>1016.97</ele>
        <time>2021-05-23T08:07:17.000Z</time>
      </trkpt>
      <trkpt lat="44.7912" lon="4.26751">
        <ele>1017.18</ele>
        <time>2021-05-23T08:07:26.339Z</time>
      </trkpt>
      <trkpt lat="44.7912" lon="4.26764">
        <ele>1016.24</ele>
        <time>2021-05-23T08:07:36.000Z</time>
      </trkpt>
      <trkpt lat="44.79118" lon="4.26768">
        <ele>1017.25</ele>
        <time>2021-05-23T08:07:45.397Z</time>
      </trkpt>
      <trkpt lat="44.7912" lon="4.26774">
        <ele>1015.8</ele>
        <time>2021-05-23T08:07:55.294Z</time>
      </trkpt>
      <trkpt lat="44.79122" lon="4.26786">
        <ele>1013.45</ele>
        <time>2021-05-23T08:08:05.231Z</time>
      </trkpt>
      <trkpt lat="44.79125" lon="4.26791">
        <ele>1011.49</ele>
        <time>2021-05-23T08:08:30.351Z</time>
      </trkpt>
      <trkpt lat="44.79131" lon="4.26796">
        <ele>1008.19</ele>
        <time>2021-05-23T08:08:39.358Z</time>
      </trkpt>
      <trkpt lat="44.79136" lon="4.26799">
        <ele>1006.09</ele>
        <time>2021-05-23T08:08:49.294Z</time>
      </trkpt>
      <trkpt lat="44.79139" lon="4.26802">
        <ele>1004.88</ele>
        <time>2021-05-23T08:08:59.554Z</time>
      </trkpt>
      <trkpt lat="44.79137" lon="4.26798">
        <ele>1005.4</ele>
        <time>2021-05-23T08:09:09.232Z</time>
      </trkpt>
      <trkpt lat="44.79143" lon="4.26801">
        <ele>1003.22</ele>
        <time>2021-05-23T08:09:29.091Z</time>
      </trkpt>
      <trkpt lat="44.79149" lon="4.26802">
        <ele>1001.34</ele>
        <time>2021-05-23T08:09:39.000Z</time>
      </trkpt>
      <trkpt lat="44.79151" lon="4.26803">
        <ele>1000.9</ele>
        <time>2021-05-23T08:09:50.000Z</time>
      </trkpt>
      <trkpt lat="44.7914" lon="4.26794">
        <ele>1004.52</ele>
        <time>2021-05-23T08:10:36.475Z</time>
      </trkpt>
      <trkpt lat="44.79135" lon="4.26792">
        <ele>1006.81</ele>
        <time>2021-05-23T08:10:46.000Z</time>
      </trkpt>
      <trkpt lat="44.79132" lon="4.26785">
        <ele>1008.33</ele>
        <time>2021-05-23T08:10:55.177Z</time>
      </trkpt>
      <trkpt lat="44.79131" lon="4.26777">
        <ele>1009.06</ele>
        <time>2021-05-23T08:11:05.356Z</time>
      </trkpt>
      <trkpt lat="44.79132" lon="4.26772">
        <ele>1009.21</ele>
        <time>2021-05-23T08:11:19.000Z</time>
      </trkpt>
      <trkpt lat="44.79133" lon="4.26761">
        <ele>1009.11</ele>
        <time>2021-05-23T08:11:28.572Z</time>
      </trkpt>
      <trkpt lat="44.79138" lon="4.26753">
        <ele>1006.67</ele>
        <time>2021-05-23T08:11:38.480Z</time>
      </trkpt>
      <trkpt lat="44.79141" lon="4.26756">
        <ele>1005.19</ele>
        <time>2021-05-23T08:11:47.999Z</time>
      </trkpt>
      <trkpt lat="44.79144" lon="4.2675">
        <ele>1003.79</ele>
        <time>2021-05-23T08:11:58.072Z</time>
      </trkpt>
      <trkpt lat="44.79147" lon="4.26742">
        <ele>1002.63</ele>
        <time>2021-05-23T08:12:07.372Z</time>
      </trkpt>
      <trkpt lat="44.7915" lon="4.26733">
        <ele>1001.16</ele>
        <time>2021-05-23T08:12:28.999Z</time>
      </trkpt>
      <trkpt lat="44.79152" lon="4.26747">
        <ele>1001.15</ele>
        <time>2021-05-23T08:12:38.999Z</time>
      </trkpt>
      <trkpt lat="44.79153" lon="4.26749">
        <ele>1001.14</ele>
        <time>2021-05-23T08:13:04.316Z</time>
      </trkpt>
      <trkpt lat="44.79155" lon="4.26756">
        <ele>1000.95</ele>
        <time>2021-05-23T08:13:13.356Z</time>
      </trkpt>
      <trkpt lat="44.79157" lon="4.26763">
        <ele>1000.73</ele>
        <time>2021-05-23T08:13:23.335Z</time>
      </trkpt>
      <trkpt lat="44.79158" lon="4.26762">
        <ele>1000.56</ele>
        <time>2021-05-23T08:13:32.373Z</time>
      </trkpt>
      <trkpt lat="44.79161" lon="4.26757">
        <ele>1000.29</ele>
        <time>2021-05-23T08:13:48.995Z</time>
      </trkpt>
      <trkpt lat="44.79164" lon="4.26749">
        <ele>999.77</ele>
        <time>2021-05-23T08:13:58.138Z</time>
      </trkpt>
      <trkpt lat="44.7917" lon="4.26741">
        <ele>999.69</ele>
        <time>2021-05-23T08:14:07.736Z</time>
      </trkpt>
      <trkpt lat="44.79176" lon="4.26735">
        <ele>1000.42</ele>
        <time>2021-05-23T08:14:16.999Z</time>
      </trkpt>
      <trkpt lat="44.79181" lon="4.26734">
        <ele>1001.67</ele>
        <time>2021-05-23T08:14:34.999Z</time>
      </trkpt>
      <trkpt lat="44.79184" lon="4.26741">
        <ele>1004.25</ele>
        <time>2021-05-23T08:14:52.999Z</time>
      </trkpt>
      <trkpt lat="44.79191" lon="4.26736">
        <ele>1006.76</ele>
        <time>2021-05-23T08:16:43.999Z</time>
      </trkpt>
      <trkpt lat="44.79189" lon="4.26737">
        <ele>1006</ele>
        <time>2021-05-23T08:17:04.999Z</time>
      </trkpt>
      <trkpt lat="44.79187" lon="4.26741">
        <ele>1005.58</ele>
        <time>2021-05-23T08:17:17.475Z</time>
      </trkpt>
      <trkpt lat="44.79186" lon="4.26742">
        <ele>1005.07</ele>
        <time>2021-05-23T08:17:27.999Z</time>
      </trkpt>
      <trkpt lat="44.79184" lon="4.26742">
        <ele>1004.27</ele>
        <time>2021-05-23T08:17:37.999Z</time>
      </trkpt>
      <trkpt lat="44.7919" lon="4.26739">
        <ele>1006.77</ele>
        <time>2021-05-23T08:17:57.999Z</time>
      </trkpt>
      <trkpt lat="44.79193" lon="4.26741">
        <ele>1008.75</ele>
        <time>2021-05-23T08:18:14.999Z</time>
      </trkpt>
      <trkpt lat="44.79188" lon="4.2674">
        <ele>1006.12</ele>
        <time>2021-05-23T08:18:25.999Z</time>
      </trkpt>
      <trkpt lat="44.79184" lon="4.26737">
        <ele>1003.48</ele>
        <time>2021-05-23T08:18:56.999Z</time>
      </trkpt>
      <trkpt lat="44.79185" lon="4.26737">
        <ele>1004.04</ele>
        <time>2021-05-23T08:19:14.999Z</time>
      </trkpt>
      <trkpt lat="44.79183" lon="4.26738">
        <ele>1003.26</ele>
        <time>2021-05-23T08:19:26.999Z</time>
      </trkpt>
      <trkpt lat="44.79181" lon="4.26735">
        <ele>1001.82</ele>
        <time>2021-05-23T08:19:37.999Z</time>
      </trkpt>
      <trkpt lat="44.79176" lon="4.26738">
        <ele>1000.53</ele>
        <time>2021-05-23T08:19:56.999Z</time>
      </trkpt>
      <trkpt lat="44.79171" lon="4.26749">
        <ele>1000.54</ele>
        <time>2021-05-23T08:20:07.393Z</time>
      </trkpt>
      <trkpt lat="44.79167" lon="4.26755">
        <ele>1000.33</ele>
        <time>2021-05-23T08:20:17.290Z</time>
      </trkpt>
      <trkpt lat="44.79161" lon="4.26758">
        <ele>1000.32</ele>
        <time>2021-05-23T08:20:31.028Z</time>
      </trkpt>
      <trkpt lat="44.79158" lon="4.26754">
        <ele>1000.44</ele>
        <time>2021-05-23T08:20:41.530Z</time>
      </trkpt>
      <trkpt lat="44.79156" lon="4.26736">
        <ele>999.66</ele>
        <time>2021-05-23T08:20:50.999Z</time>
      </trkpt>
      <trkpt lat="44.79151" lon="4.26729">
        <ele>1000.5</ele>
        <time>2021-05-23T08:21:02.395Z</time>
      </trkpt>
      <trkpt lat="44.79148" lon="4.26732">
        <ele>1001.9</ele>
        <time>2021-05-23T08:21:12.375Z</time>
      </trkpt>
      <trkpt lat="44.79143" lon="4.26739">
        <ele>1003.98</ele>
        <time>2021-05-23T08:21:27.191Z</time>
      </trkpt>
      <trkpt lat="44.79129" lon="4.26754">
        <ele>1011.55</ele>
        <time>2021-05-23T08:22:49.372Z</time>
      </trkpt>
      <trkpt lat="44.79123" lon="4.26746">
        <ele>1014.98</ele>
        <time>2021-05-23T08:22:59.000Z</time>
      </trkpt>
      <trkpt lat="44.79118" lon="4.2674">
        <ele>1018.72</ele>
        <time>2021-05-23T08:23:08.252Z</time>
      </trkpt>
      <trkpt lat="44.79115" lon="4.26731">
        <ele>1021.45</ele>
        <time>2021-05-23T08:23:17.850Z</time>
      </trkpt>
      <trkpt lat="44.79114" lon="4.26715">
        <ele>1023.34</ele>
        <time>2021-05-23T08:23:27.361Z</time>
      </trkpt>
      <trkpt lat="44.79115" lon="4.26705">
        <ele>1022.77</ele>
        <time>2021-05-23T08:23:37.402Z</time>
      </trkpt>
      <trkpt lat="44.79117" lon="4.26691">
        <ele>1021.96</ele>
        <time>2021-05-23T08:23:46.476Z</time>
      </trkpt>
      <trkpt lat="44.79114" lon="4.26679">
        <ele>1025.31</ele>
        <time>2021-05-23T08:23:56.216Z</time>
      </trkpt>
      <trkpt lat="44.79106" lon="4.26672">
        <ele>1031.8</ele>
        <time>2021-05-23T08:24:05.235Z</time>
      </trkpt>
      <trkpt lat="44.791" lon="4.2666">
        <ele>1037.29</ele>
        <time>2021-05-23T08:24:14.891Z</time>
      </trkpt>
      <trkpt lat="44.79094" lon="4.26647">
        <ele>1041.33</ele>
        <time>2021-05-23T08:24:24.192Z</time>
      </trkpt>
      <trkpt lat="44.79093" lon="4.26632">
        <ele>1041.28</ele>
        <time>2021-05-23T08:24:33.274Z</time>
      </trkpt>
      <trkpt lat="44.79089" lon="4.26616">
        <ele>1043.07</ele>
        <time>2021-05-23T08:24:43.478Z</time>
      </trkpt>
      <trkpt lat="44.79087" lon="4.26603">
        <ele>1042.97</ele>
        <time>2021-05-23T08:24:53.236Z</time>
      </trkpt>
      <trkpt lat="44.79088" lon="4.26586">
        <ele>1039.51</ele>
        <time>2021-05-23T08:25:03.316Z</time>
      </trkpt>
      <trkpt lat="44.79087" lon="4.26569">
        <ele>1037.59</ele>
        <time>2021-05-23T08:25:13.317Z</time>
      </trkpt>
      <trkpt lat="44.79089" lon="4.26557">
        <ele>1032.97</ele>
        <time>2021-05-23T08:25:23.155Z</time>
      </trkpt>
      <trkpt lat="44.79089" lon="4.26543">
        <ele>1029.32</ele>
        <time>2021-05-23T08:25:32.491Z</time>
      </trkpt>
      <trkpt lat="44.79085" lon="4.26533">
        <ele>1029.66</ele>
        <time>2021-05-23T08:25:42.011Z</time>
      </trkpt>
      <trkpt lat="44.79078" lon="4.26524">
        <ele>1032.33</ele>
        <time>2021-05-23T08:25:52.113Z</time>
      </trkpt>
      <trkpt lat="44.79068" lon="4.26513">
        <ele>1036.01</ele>
        <time>2021-05-23T08:26:01.370Z</time>
      </trkpt>
      <trkpt lat="44.79063" lon="4.26496">
        <ele>1035.17</ele>
        <time>2021-05-23T08:26:10.892Z</time>
      </trkpt>
      <trkpt lat="44.79061" lon="4.26489">
        <ele>1034.34</ele>
        <time>2021-05-23T08:26:29.968Z</time>
      </trkpt>
      <trkpt lat="44.79063" lon="4.26465">
        <ele>1026.69</ele>
        <time>2021-05-23T08:26:39.330Z</time>
      </trkpt>
      <trkpt lat="44.79059" lon="4.26446">
        <ele>1023.66</ele>
        <time>2021-05-23T08:26:49.547Z</time>
      </trkpt>
      <trkpt lat="44.79059" lon="4.26433">
        <ele>1019.94</ele>
        <time>2021-05-23T08:26:59.498Z</time>
      </trkpt>
      <trkpt lat="44.79061" lon="4.26422">
        <ele>1015.09</ele>
        <time>2021-05-23T08:27:09.139Z</time>
      </trkpt>
      <trkpt lat="44.79059" lon="4.26412">
        <ele>1013.9</ele>
        <time>2021-05-23T08:27:18.497Z</time>
      </trkpt>
      <trkpt lat="44.79054" lon="4.26405">
        <ele>1014.59</ele>
        <time>2021-05-23T08:27:28.436Z</time>
      </trkpt>
      <trkpt lat="44.79049" lon="4.26401">
        <ele>1016.38</ele>
        <time>2021-05-23T08:27:38.958Z</time>
      </trkpt>
      <trkpt lat="44.79046" lon="4.26396">
        <ele>1016.91</ele>
        <time>2021-05-23T08:27:48.014Z</time>
      </trkpt>
      <trkpt lat="44.79041" lon="4.26394">
        <ele>1019</ele>
        <time>2021-05-23T08:27:57.092Z</time>
      </trkpt>
      <trkpt lat="44.79034" lon="4.26385">
        <ele>1020.32</ele>
        <time>2021-05-23T08:28:06.447Z</time>
      </trkpt>
      <trkpt lat="44.79032" lon="4.26375">
        <ele>1018.31</ele>
        <time>2021-05-23T08:28:16.334Z</time>
      </trkpt>
      <trkpt lat="44.79026" lon="4.26363">
        <ele>1018.02</ele>
        <time>2021-05-23T08:28:25.871Z</time>
      </trkpt>
      <trkpt lat="44.7902" lon="4.26344">
        <ele>1016.01</ele>
        <time>2021-05-23T08:28:35.176Z</time>
      </trkpt>
      <trkpt lat="44.79016" lon="4.26326">
        <ele>1012.73</ele>
        <time>2021-05-23T08:28:44.318Z</time>
      </trkpt>
      <trkpt lat="44.79012" lon="4.26311">
        <ele>1010.55</ele>
        <time>2021-05-23T08:28:54.057Z</time>
      </trkpt>
      <trkpt lat="44.7901" lon="4.26303">
        <ele>1009.43</ele>
        <time>2021-05-23T08:29:03.336Z</time>
      </trkpt>
      <trkpt lat="44.7901" lon="4.2629">
        <ele>1006.22</ele>
        <time>2021-05-23T08:29:12.474Z</time>
      </trkpt>
      <trkpt lat="44.79009" lon="4.26268">
        <ele>1001.23</ele>
        <time>2021-05-23T08:29:22.074Z</time>
      </trkpt>
      <trkpt lat="44.79005" lon="4.26249">
        <ele>998.08</ele>
        <time>2021-05-23T08:29:31.313Z</time>
      </trkpt>
      <trkpt lat="44.79003" lon="4.2624">
        <ele>996.27</ele>
        <time>2021-05-23T08:29:40.333Z</time>
      </trkpt>
      <trkpt lat="44.78997" lon="4.26227">
        <ele>994.7</ele>
        <time>2021-05-23T08:29:50.000Z</time>
      </trkpt>
      <trkpt lat="44.78997" lon="4.26219">
        <ele>992.76</ele>
        <time>2021-05-23T08:30:00.000Z</time>
      </trkpt>
      <trkpt lat="44.78993" lon="4.26218">
        <ele>993.63</ele>
        <time>2021-05-23T08:30:09.391Z</time>
      </trkpt>
      <trkpt lat="44.78988" lon="4.26222">
        <ele>996.05</ele>
        <time>2021-05-23T08:30:39.000Z</time>
      </trkpt>
      <trkpt lat="44.78987" lon="4.26221">
        <ele>995.95</ele>
        <time>2021-05-23T08:31:24.000Z</time>
      </trkpt>
      <trkpt lat="44.78981" lon="4.26216">
        <ele>995.99</ele>
        <time>2021-05-23T08:31:33.295Z</time>
      </trkpt>
      <trkpt lat="44.78972" lon="4.26214">
        <ele>996.97</ele>
        <time>2021-05-23T08:31:42.468Z</time>
      </trkpt>
      <trkpt lat="44.7897" lon="4.26221">
        <ele>999.28</ele>
        <time>2021-05-23T08:31:51.711Z</time>
      </trkpt>
      <trkpt lat="44.78967" lon="4.26224">
        <ele>1000.33</ele>
        <time>2021-05-23T08:32:01.000Z</time>
      </trkpt>
      <trkpt lat="44.78964" lon="4.26229">
        <ele>1002.22</ele>
        <time>2021-05-23T08:32:10.550Z</time>
      </trkpt>
      <trkpt lat="44.78961" lon="4.26235">
        <ele>1004.01</ele>
        <time>2021-05-23T08:32:20.375Z</time>
      </trkpt>
      <trkpt lat="44.78959" lon="4.26243">
        <ele>1006.28</ele>
        <time>2021-05-23T08:32:29.395Z</time>
      </trkpt>
      <trkpt lat="44.78956" lon="4.26256">
        <ele>1009.72</ele>
        <time>2021-05-23T08:32:38.494Z</time>
      </trkpt>
      <trkpt lat="44.78948" lon="4.26266">
        <ele>1012.92</ele>
        <time>2021-05-23T08:32:47.532Z</time>
      </trkpt>
      <trkpt lat="44.78942" lon="4.26278">
        <ele>1016.4</ele>
        <time>2021-05-23T08:32:56.993Z</time>
      </trkpt>
      <trkpt lat="44.78937" lon="4.26291">
        <ele>1019.81</ele>
        <time>2021-05-23T08:33:06.169Z</time>
      </trkpt>
      <trkpt lat="44.78931" lon="4.263">
        <ele>1022.81</ele>
        <time>2021-05-23T08:33:16.108Z</time>
      </trkpt>
      <trkpt lat="44.7892" lon="4.26305">
        <ele>1026</ele>
        <time>2021-05-23T08:33:25.270Z</time>
      </trkpt>
      <trkpt lat="44.78908" lon="4.26298">
        <ele>1027.25</ele>
        <time>2021-05-23T08:33:35.488Z</time>
      </trkpt>
      <trkpt lat="44.78902" lon="4.26286">
        <ele>1026.1</ele>
        <time>2021-05-23T08:33:44.528Z</time>
      </trkpt>
      <trkpt lat="44.78892" lon="4.26277">
        <ele>1026.74</ele>
        <time>2021-05-23T08:33:54.101Z</time>
      </trkpt>
      <trkpt lat="44.78882" lon="4.26267">
        <ele>1027.15</ele>
        <time>2021-05-23T08:34:03.719Z</time>
      </trkpt>
      <trkpt lat="44.78874" lon="4.26256">
        <ele>1027</ele>
        <time>2021-05-23T08:34:13.401Z</time>
      </trkpt>
      <trkpt lat="44.78869" lon="4.26245">
        <ele>1025.68</ele>
        <time>2021-05-23T08:34:22.917Z</time>
      </trkpt>
      <trkpt lat="44.78862" lon="4.26231">
        <ele>1024.55</ele>
        <time>2021-05-23T08:34:32.533Z</time>
      </trkpt>
      <trkpt lat="44.78853" lon="4.26225">
        <ele>1026.19</ele>
        <time>2021-05-23T08:34:42.117Z</time>
      </trkpt>
      <trkpt lat="44.78845" lon="4.26213">
        <ele>1025.54</ele>
        <time>2021-05-23T08:34:52.267Z</time>
      </trkpt>
      <trkpt lat="44.78838" lon="4.262">
        <ele>1024.57</ele>
        <time>2021-05-23T08:35:01.314Z</time>
      </trkpt>
      <trkpt lat="44.7883" lon="4.26191">
        <ele>1024.61</ele>
        <time>2021-05-23T08:35:10.351Z</time>
      </trkpt>
      <trkpt lat="44.78823" lon="4.2618">
        <ele>1024.41</ele>
        <time>2021-05-23T08:35:19.466Z</time>
      </trkpt>
      <trkpt lat="44.78815" lon="4.26172">
        <ele>1025.65</ele>
        <time>2021-05-23T08:35:29.257Z</time>
      </trkpt>
      <trkpt lat="44.78806" lon="4.26167">
        <ele>1029.05</ele>
        <time>2021-05-23T08:35:38.417Z</time>
      </trkpt>
      <trkpt lat="44.78799" lon="4.26155">
        <ele>1028.8</ele>
        <time>2021-05-23T08:35:47.534Z</time>
      </trkpt>
      <trkpt lat="44.78795" lon="4.26144">
        <ele>1027.93</ele>
        <time>2021-05-23T08:35:57.474Z</time>
      </trkpt>
      <trkpt lat="44.78788" lon="4.26132">
        <ele>1028.38</ele>
        <time>2021-05-23T08:36:07.371Z</time>
      </trkpt>
      <trkpt lat="44.78781" lon="4.26122">
        <ele>1030.06</ele>
        <time>2021-05-23T08:36:16.915Z</time>
      </trkpt>
      <trkpt lat="44.78773" lon="4.26116">
        <ele>1032.74</ele>
        <time>2021-05-23T08:36:25.999Z</time>
      </trkpt>
      <trkpt lat="44.78762" lon="4.26112">
        <ele>1037.6</ele>
        <time>2021-05-23T08:36:35.415Z</time>
      </trkpt>
      <trkpt lat="44.78753" lon="4.26105">
        <ele>1039.41</ele>
        <time>2021-05-23T08:36:44.530Z</time>
      </trkpt>
      <trkpt lat="44.78743" lon="4.261">
        <ele>1041.66</ele>
        <time>2021-05-23T08:36:54.186Z</time>
      </trkpt>
      <trkpt lat="44.78736" lon="4.26091">
        <ele>1041.03</ele>
        <time>2021-05-23T08:37:03.248Z</time>
      </trkpt>
      <trkpt lat="44.78727" lon="4.26085">
        <ele>1041.27</ele>
        <time>2021-05-23T08:37:12.557Z</time>
      </trkpt>
      <trkpt lat="44.78716" lon="4.26088">
        <ele>1044.99</ele>
        <time>2021-05-23T08:37:21.999Z</time>
      </trkpt>
      <trkpt lat="44.78705" lon="4.26082">
        <ele>1044.82</ele>
        <time>2021-05-23T08:37:31.135Z</time>
      </trkpt>
      <trkpt lat="44.78692" lon="4.26078">
        <ele>1045.55</ele>
        <time>2021-05-23T08:37:40.541Z</time>
      </trkpt>
      <trkpt lat="44.78684" lon="4.26071">
        <ele>1043.91</ele>
        <time>2021-05-23T08:37:50.235Z</time>
      </trkpt>
      <trkpt lat="44.78676" lon="4.26062">
        <ele>1042.04</ele>
        <time>2021-05-23T08:37:59.336Z</time>
      </trkpt>
      <trkpt lat="44.78667" lon="4.26055">
        <ele>1040.82</ele>
        <time>2021-05-23T08:38:08.370Z</time>
      </trkpt>
      <trkpt lat="44.78659" lon="4.26048">
        <ele>1039.82</ele>
        <time>2021-05-23T08:38:17.512Z</time>
      </trkpt>
      <trkpt lat="44.78649" lon="4.2604">
        <ele>1038.33</ele>
        <time>2021-05-23T08:38:26.610Z</time>
      </trkpt>
      <trkpt lat="44.78642" lon="4.26032">
        <ele>1036.44</ele>
        <time>2021-05-23T08:38:35.811Z</time>
      </trkpt>
      <trkpt lat="44.78633" lon="4.26025">
        <ele>1034.51</ele>
        <time>2021-05-23T08:38:44.857Z</time>
      </trkpt>
      <trkpt lat="44.78623" lon="4.26026">
        <ele>1034.14</ele>
        <time>2021-05-23T08:38:54.115Z</time>
      </trkpt>
      <trkpt lat="44.78615" lon="4.26037">
        <ele>1036.81</ele>
        <time>2021-05-23T08:39:04.275Z</time>
      </trkpt>
      <trkpt lat="44.78612" lon="4.2605">
        <ele>1040.58</ele>
        <time>2021-05-23T08:39:13.772Z</time>
      </trkpt>
      <trkpt lat="44.78612" lon="4.26061">
        <ele>1043.84</ele>
        <time>2021-05-23T08:39:23.571Z</time>
      </trkpt>
      <trkpt lat="44.78611" lon="4.26066">
        <ele>1045.08</ele>
        <time>2021-05-23T08:39:33.391Z</time>
      </trkpt>
      <trkpt lat="44.7861" lon="4.26074">
        <ele>1047.3</ele>
        <time>2021-05-23T08:39:43.473Z</time>
      </trkpt>
      <trkpt lat="44.78605" lon="4.26079">
        <ele>1048.21</ele>
        <time>2021-05-23T08:39:53.108Z</time>
      </trkpt>
      <trkpt lat="44.78603" lon="4.26086">
        <ele>1049.54</ele>
        <time>2021-05-23T08:40:02.509Z</time>
      </trkpt>
      <trkpt lat="44.78598" lon="4.26096">
        <ele>1050.63</ele>
        <time>2021-05-23T08:40:12.496Z</time>
      </trkpt>
      <trkpt lat="44.78598" lon="4.26101">
        <ele>1051.54</ele>
        <time>2021-05-23T08:40:21.658Z</time>
      </trkpt>
      <trkpt lat="44.786" lon="4.26103">
        <ele>1052.49</ele>
        <time>2021-05-23T08:40:30.817Z</time>
      </trkpt>
      <trkpt lat="44.78604" lon="4.26108">
        <ele>1054.24</ele>
        <time>2021-05-23T08:40:39.958Z</time>
      </trkpt>
      <trkpt lat="44.78606" lon="4.26111">
        <ele>1055.51</ele>
        <time>2021-05-23T08:40:48.999Z</time>
      </trkpt>
      <trkpt lat="44.78609" lon="4.26115">
        <ele>1056.93</ele>
        <time>2021-05-23T08:40:58.999Z</time>
      </trkpt>
      <trkpt lat="44.7861" lon="4.26122">
        <ele>1058.73</ele>
        <time>2021-05-23T08:41:08.951Z</time>
      </trkpt>
      <trkpt lat="44.78613" lon="4.26127">
        <ele>1060.33</ele>
        <time>2021-05-23T08:41:18.052Z</time>
      </trkpt>
      <trkpt lat="44.78614" lon="4.2613">
        <ele>1061.5</ele>
        <time>2021-05-23T08:41:27.999Z</time>
      </trkpt>
      <trkpt lat="44.78616" lon="4.26133">
        <ele>1062.6</ele>
        <time>2021-05-23T08:41:37.337Z</time>
      </trkpt>
      <trkpt lat="44.78619" lon="4.26136">
        <ele>1064.13</ele>
        <time>2021-05-23T08:41:48.999Z</time>
      </trkpt>
      <trkpt lat="44.78622" lon="4.26138">
        <ele>1065.26</ele>
        <time>2021-05-23T08:42:03.094Z</time>
      </trkpt>
      <trkpt lat="44.78625" lon="4.26141">
        <ele>1066.83</ele>
        <time>2021-05-23T08:42:12.394Z</time>
      </trkpt>
      <trkpt lat="44.78627" lon="4.26143">
        <ele>1068.07</ele>
        <time>2021-05-23T08:42:22.514Z</time>
      </trkpt>
      <trkpt lat="44.78634" lon="4.26149">
        <ele>1071.48</ele>
        <time>2021-05-23T08:42:47.999Z</time>
      </trkpt>
      <trkpt lat="44.78635" lon="4.26159">
        <ele>1074.71</ele>
        <time>2021-05-23T08:42:57.999Z</time>
      </trkpt>
      <trkpt lat="44.78635" lon="4.26167">
        <ele>1076.98</ele>
        <time>2021-05-23T08:43:07.691Z</time>
      </trkpt>
      <trkpt lat="44.78637" lon="4.26173">
        <ele>1078.87</ele>
        <time>2021-05-23T08:43:17.272Z</time>
      </trkpt>
      <trkpt lat="44.78639" lon="4.26178">
        <ele>1080.79</ele>
        <time>2021-05-23T08:43:27.473Z</time>
      </trkpt>
      <trkpt lat="44.7864" lon="4.26183">
        <ele>1082.24</ele>
        <time>2021-05-23T08:43:37.472Z</time>
      </trkpt>
      <trkpt lat="44.78642" lon="4.26188">
        <ele>1084</ele>
        <time>2021-05-23T08:43:47.148Z</time>
      </trkpt>
      <trkpt lat="44.78645" lon="4.26193">
        <ele>1085.6</ele>
        <time>2021-05-23T08:43:56.200Z</time>
      </trkpt>
      <trkpt lat="44.78646" lon="4.26198">
        <ele>1087.1</ele>
        <time>2021-05-23T08:44:07.959Z</time>
      </trkpt>
      <trkpt lat="44.78648" lon="4.26201">
        <ele>1088.38</ele>
        <time>2021-05-23T08:44:17.199Z</time>
      </trkpt>
      <trkpt lat="44.78649" lon="4.26206">
        <ele>1089.53</ele>
        <time>2021-05-23T08:44:27.000Z</time>
      </trkpt>
      <trkpt lat="44.78649" lon="4.26212">
        <ele>1090.95</ele>
        <time>2021-05-23T08:44:36.464Z</time>
      </trkpt>
      <trkpt lat="44.78651" lon="4.2622">
        <ele>1093.29</ele>
        <time>2021-05-23T08:44:46.136Z</time>
      </trkpt>
      <trkpt lat="44.78653" lon="4.26228">
        <ele>1095.52</ele>
        <time>2021-05-23T08:44:56.530Z</time>
      </trkpt>
      <trkpt lat="44.78654" lon="4.26236">
        <ele>1097.6</ele>
        <time>2021-05-23T08:45:06.000Z</time>
      </trkpt>
      <trkpt lat="44.78657" lon="4.26244">
        <ele>1100.02</ele>
        <time>2021-05-23T08:45:15.778Z</time>
      </trkpt>
      <trkpt lat="44.78658" lon="4.26252">
        <ele>1102.22</ele>
        <time>2021-05-23T08:45:25.151Z</time>
      </trkpt>
      <trkpt lat="44.7866" lon="4.26259">
        <ele>1104.41</ele>
        <time>2021-05-23T08:45:34.495Z</time>
      </trkpt>
      <trkpt lat="44.78661" lon="4.26267">
        <ele>1106.77</ele>
        <time>2021-05-23T08:45:43.854Z</time>
      </trkpt>
      <trkpt lat="44.78662" lon="4.26277">
        <ele>1109.37</ele>
        <time>2021-05-23T08:45:53.058Z</time>
      </trkpt>
      <trkpt lat="44.78663" lon="4.26285">
        <ele>1111.77</ele>
        <time>2021-05-23T08:46:03.532Z</time>
      </trkpt>
      <trkpt lat="44.78664" lon="4.26293">
        <ele>1113.84</ele>
        <time>2021-05-23T08:46:13.552Z</time>
      </trkpt>
      <trkpt lat="44.78665" lon="4.26299">
        <ele>1115.79</ele>
        <time>2021-05-23T08:46:23.000Z</time>
      </trkpt>
      <trkpt lat="44.78667" lon="4.26305">
        <ele>1117.38</ele>
        <time>2021-05-23T08:46:32.032Z</time>
      </trkpt>
      <trkpt lat="44.7867" lon="4.26311">
        <ele>1119.25</ele>
        <time>2021-05-23T08:46:41.270Z</time>
      </trkpt>
      <trkpt lat="44.78672" lon="4.26319">
        <ele>1121.28</ele>
        <time>2021-05-23T08:46:51.000Z</time>
      </trkpt>
      <trkpt lat="44.78674" lon="4.26325">
        <ele>1122.9</ele>
        <time>2021-05-23T08:47:01.000Z</time>
      </trkpt>
      <trkpt lat="44.78676" lon="4.26331">
        <ele>1124.53</ele>
        <time>2021-05-23T08:47:11.461Z</time>
      </trkpt>
      <trkpt lat="44.78677" lon="4.26335">
        <ele>1125.74</ele>
        <time>2021-05-23T08:47:21.000Z</time>
      </trkpt>
      <trkpt lat="44.78678" lon="4.26344">
        <ele>1128.06</ele>
        <time>2021-05-23T08:47:31.000Z</time>
      </trkpt>
      <trkpt lat="44.78679" lon="4.2635">
        <ele>1129.49</ele>
        <time>2021-05-23T08:47:41.000Z</time>
      </trkpt>
      <trkpt lat="44.78678" lon="4.26351">
        <ele>1129.85</ele>
        <time>2021-05-23T08:47:51.000Z</time>
      </trkpt>
      <trkpt lat="44.7868" lon="4.26356">
        <ele>1131.1</ele>
        <time>2021-05-23T08:48:01.399Z</time>
      </trkpt>
      <trkpt lat="44.7868" lon="4.26363">
        <ele>1132.94</ele>
        <time>2021-05-23T08:48:11.374Z</time>
      </trkpt>
      <trkpt lat="44.78681" lon="4.26369">
        <ele>1134.41</ele>
        <time>2021-05-23T08:48:21.193Z</time>
      </trkpt>
      <trkpt lat="44.78681" lon="4.26374">
        <ele>1135.91</ele>
        <time>2021-05-23T08:48:31.548Z</time>
      </trkpt>
      <trkpt lat="44.7868" lon="4.26383">
        <ele>1138.32</ele>
        <time>2021-05-23T08:48:41.398Z</time>
      </trkpt>
      <trkpt lat="44.7868" lon="4.26395">
        <ele>1141.81</ele>
        <time>2021-05-23T08:48:51.000Z</time>
      </trkpt>
      <trkpt lat="44.78679" lon="4.26401">
        <ele>1143.49</ele>
        <time>2021-05-23T08:49:01.000Z</time>
      </trkpt>
      <trkpt lat="44.78679" lon="4.26408">
        <ele>1145.28</ele>
        <time>2021-05-23T08:49:10.295Z</time>
      </trkpt>
      <trkpt lat="44.78678" lon="4.26417">
        <ele>1147.92</ele>
        <time>2021-05-23T08:49:20.338Z</time>
      </trkpt>
      <trkpt lat="44.78677" lon="4.26423">
        <ele>1149.65</ele>
        <time>2021-05-23T08:49:30.480Z</time>
      </trkpt>
      <trkpt lat="44.78676" lon="4.26428">
        <ele>1151.05</ele>
        <time>2021-05-23T08:49:40.233Z</time>
      </trkpt>
      <trkpt lat="44.78675" lon="4.26433">
        <ele>1152.67</ele>
        <time>2021-05-23T08:49:49.971Z</time>
      </trkpt>
      <trkpt lat="44.78675" lon="4.26441">
        <ele>1154.87</ele>
        <time>2021-05-23T08:49:59.472Z</time>
      </trkpt>
      <trkpt lat="44.78674" lon="4.26449">
        <ele>1157.13</ele>
        <time>2021-05-23T08:50:09.108Z</time>
      </trkpt>
      <trkpt lat="44.78674" lon="4.26455">
        <ele>1159.06</ele>
        <time>2021-05-23T08:50:18.966Z</time>
      </trkpt>
      <trkpt lat="44.78673" lon="4.2646">
        <ele>1160.45</ele>
        <time>2021-05-23T08:50:28.357Z</time>
      </trkpt>
      <trkpt lat="44.78671" lon="4.26467">
        <ele>1162.28</ele>
        <time>2021-05-23T08:50:37.465Z</time>
      </trkpt>
      <trkpt lat="44.7867" lon="4.26469">
        <ele>1163.05</ele>
        <time>2021-05-23T08:50:46.516Z</time>
      </trkpt>
      <trkpt lat="44.78667" lon="4.26474">
        <ele>1164.35</ele>
        <time>2021-05-23T08:50:55.594Z</time>
      </trkpt>
      <trkpt lat="44.78664" lon="4.26478">
        <ele>1165.13</ele>
        <time>2021-05-23T08:51:05.000Z</time>
      </trkpt>
      <trkpt lat="44.78663" lon="4.26483">
        <ele>1166.18</ele>
        <time>2021-05-23T08:51:17.192Z</time>
      </trkpt>
      <trkpt lat="44.78659" lon="4.26492">
        <ele>1168.05</ele>
        <time>2021-05-23T08:51:26.852Z</time>
      </trkpt>
      <trkpt lat="44.78657" lon="4.26498">
        <ele>1169.1</ele>
        <time>2021-05-23T08:51:36.309Z</time>
      </trkpt>
      <trkpt lat="44.78655" lon="4.26503">
        <ele>1170.03</ele>
        <time>2021-05-23T08:51:46.300Z</time>
      </trkpt>
      <trkpt lat="44.78654" lon="4.26507">
        <ele>1170.71</ele>
        <time>2021-05-23T08:51:55.916Z</time>
      </trkpt>
      <trkpt lat="44.78652" lon="4.26513">
        <ele>1171.47</ele>
        <time>2021-05-23T08:52:05.296Z</time>
      </trkpt>
      <trkpt lat="44.78651" lon="4.26519">
        <ele>1172.6</ele>
        <time>2021-05-23T08:52:14.734Z</time>
      </trkpt>
      <trkpt lat="44.78651" lon="4.26525">
        <ele>1173.78</ele>
        <time>2021-05-23T08:52:24.153Z</time>
      </trkpt>
      <trkpt lat="44.78652" lon="4.26533">
        <ele>1175.62</ele>
        <time>2021-05-23T08:52:33.550Z</time>
      </trkpt>
      <trkpt lat="44.78653" lon="4.26539">
        <ele>1177.37</ele>
        <time>2021-05-23T08:52:43.000Z</time>
      </trkpt>
      <trkpt lat="44.78655" lon="4.26545">
        <ele>1179.02</ele>
        <time>2021-05-23T08:52:52.347Z</time>
      </trkpt>
      <trkpt lat="44.78657" lon="4.26552">
        <ele>1181.13</ele>
        <time>2021-05-23T08:53:01.548Z</time>
      </trkpt>
      <trkpt lat="44.7866" lon="4.2656">
        <ele>1183.34</ele>
        <time>2021-05-23T08:53:11.000Z</time>
      </trkpt>
      <trkpt lat="44.78661" lon="4.26565">
        <ele>1184.54</ele>
        <time>2021-05-23T08:53:20.257Z</time>
      </trkpt>
      <trkpt lat="44.78667" lon="4.26566">
        <ele>1185.83</ele>
        <time>2021-05-23T08:53:30.469Z</time>
      </trkpt>
      <trkpt lat="44.78668" lon="4.26564">
        <ele>1185.66</ele>
        <time>2021-05-23T08:54:00.000Z</time>
      </trkpt>
      <trkpt lat="44.78669" lon="4.26567">
        <ele>1186.18</ele>
        <time>2021-05-23T08:54:09.536Z</time>
      </trkpt>
      <trkpt lat="44.78674" lon="4.26577">
        <ele>1188.49</ele>
        <time>2021-05-23T08:54:19.072Z</time>
      </trkpt>
      <trkpt lat="44.78677" lon="4.26587">
        <ele>1190.59</ele>
        <time>2021-05-23T08:54:28.414Z</time>
      </trkpt>
      <trkpt lat="44.78679" lon="4.26595">
        <ele>1192.06</ele>
        <time>2021-05-23T08:54:37.421Z</time>
      </trkpt>
      <trkpt lat="44.7868" lon="4.26602">
        <ele>1193.44</ele>
        <time>2021-05-23T08:54:47.017Z</time>
      </trkpt>
      <trkpt lat="44.78681" lon="4.2661">
        <ele>1194.79</ele>
        <time>2021-05-23T08:54:57.496Z</time>
      </trkpt>
      <trkpt lat="44.78685" lon="4.26616">
        <ele>1195.83</ele>
        <time>2021-05-23T08:55:07.235Z</time>
      </trkpt>
      <trkpt lat="44.78686" lon="4.26625">
        <ele>1197.22</ele>
        <time>2021-05-23T08:55:16.912Z</time>
      </trkpt>
      <trkpt lat="44.78689" lon="4.26632">
        <ele>1198.53</ele>
        <time>2021-05-23T08:55:25.999Z</time>
      </trkpt>
      <trkpt lat="44.78691" lon="4.26637">
        <ele>1199.34</ele>
        <time>2021-05-23T08:55:35.030Z</time>
      </trkpt>
      <trkpt lat="44.78693" lon="4.26644">
        <ele>1200.55</ele>
        <time>2021-05-23T08:55:44.530Z</time>
      </trkpt>
      <trkpt lat="44.78695" lon="4.2665">
        <ele>1201.76</ele>
        <time>2021-05-23T08:55:54.270Z</time>
      </trkpt>
      <trkpt lat="44.78699" lon="4.26656">
        <ele>1202.79</ele>
        <time>2021-05-23T08:56:03.999Z</time>
      </trkpt>
      <trkpt lat="44.78701" lon="4.26659">
        <ele>1203.47</ele>
        <time>2021-05-23T08:56:13.340Z</time>
      </trkpt>
      <trkpt lat="44.78703" lon="4.26664">
        <ele>1204.46</ele>
        <time>2021-05-23T08:56:24.116Z</time>
      </trkpt>
      <trkpt lat="44.78706" lon="4.26672">
        <ele>1206.26</ele>
        <time>2021-05-23T08:56:34.555Z</time>
      </trkpt>
      <trkpt lat="44.78708" lon="4.26679">
        <ele>1207.74</ele>
        <time>2021-05-23T08:56:44.161Z</time>
      </trkpt>
      <trkpt lat="44.78708" lon="4.26685">
        <ele>1209.13</ele>
        <time>2021-05-23T08:56:53.465Z</time>
      </trkpt>
      <trkpt lat="44.78708" lon="4.26692">
        <ele>1210.94</ele>
        <time>2021-05-23T08:57:02.999Z</time>
      </trkpt>
      <trkpt lat="44.78709" lon="4.26694">
        <ele>1211.58</ele>
        <time>2021-05-23T08:57:12.251Z</time>
      </trkpt>
      <trkpt lat="44.78709" lon="4.26702">
        <ele>1213.49</ele>
        <time>2021-05-23T08:58:29.999Z</time>
      </trkpt>
      <trkpt lat="44.7871" lon="4.26712">
        <ele>1215.9</ele>
        <time>2021-05-23T08:58:39.230Z</time>
      </trkpt>
      <trkpt lat="44.78709" lon="4.26719">
        <ele>1217.54</ele>
        <time>2021-05-23T08:58:48.950Z</time>
      </trkpt>
      <trkpt lat="44.78709" lon="4.26728">
        <ele>1219.99</ele>
        <time>2021-05-23T08:58:58.371Z</time>
      </trkpt>
      <trkpt lat="44.7871" lon="4.26743">
        <ele>1223.5</ele>
        <time>2021-05-23T08:59:08.019Z</time>
      </trkpt>
      <trkpt lat="44.78712" lon="4.26756">
        <ele>1226.8</ele>
        <time>2021-05-23T08:59:17.059Z</time>
      </trkpt>
      <trkpt lat="44.78715" lon="4.26768">
        <ele>1229.82</ele>
        <time>2021-05-23T08:59:26.464Z</time>
      </trkpt>
      <trkpt lat="44.78719" lon="4.26779">
        <ele>1232.46</ele>
        <time>2021-05-23T08:59:35.534Z</time>
      </trkpt>
      <trkpt lat="44.78718" lon="4.26786">
        <ele>1233.95</ele>
        <time>2021-05-23T08:59:44.716Z</time>
      </trkpt>
      <trkpt lat="44.78719" lon="4.26794">
        <ele>1235.76</ele>
        <time>2021-05-23T08:59:53.874Z</time>
      </trkpt>
      <trkpt lat="44.78721" lon="4.26805">
        <ele>1238.03</ele>
        <time>2021-05-23T09:00:02.999Z</time>
      </trkpt>
      <trkpt lat="44.78722" lon="4.26817">
        <ele>1240.42</ele>
        <time>2021-05-23T09:00:13.470Z</time>
      </trkpt>
      <trkpt lat="44.78719" lon="4.26827">
        <ele>1242.14</ele>
        <time>2021-05-23T09:00:23.111Z</time>
      </trkpt>
      <trkpt lat="44.78719" lon="4.2684">
        <ele>1244.71</ele>
        <time>2021-05-23T09:00:33.276Z</time>
      </trkpt>
      <trkpt lat="44.78718" lon="4.26851">
        <ele>1246.98</ele>
        <time>2021-05-23T09:00:43.076Z</time>
      </trkpt>
      <trkpt lat="44.78716" lon="4.26861">
        <ele>1248.84</ele>
        <time>2021-05-23T09:00:52.175Z</time>
      </trkpt>
      <trkpt lat="44.78716" lon="4.26874">
        <ele>1251.33</ele>
        <time>2021-05-23T09:01:02.476Z</time>
      </trkpt>
      <trkpt lat="44.78716" lon="4.26888">
        <ele>1254.04</ele>
        <time>2021-05-23T09:01:12.174Z</time>
      </trkpt>
      <trkpt lat="44.78717" lon="4.26898">
        <ele>1255.91</ele>
        <time>2021-05-23T09:01:21.999Z</time>
      </trkpt>
      <trkpt lat="44.78716" lon="4.26908">
        <ele>1257.57</ele>
        <time>2021-05-23T09:01:32.330Z</time>
      </trkpt>
      <trkpt lat="44.78715" lon="4.26918">
        <ele>1259.27</ele>
        <time>2021-05-23T09:01:41.410Z</time>
      </trkpt>
      <trkpt lat="44.78717" lon="4.26932">
        <ele>1261.27</ele>
        <time>2021-05-23T09:01:50.819Z</time>
      </trkpt>
      <trkpt lat="44.78717" lon="4.26944">
        <ele>1262.97</ele>
        <time>2021-05-23T09:02:00.240Z</time>
      </trkpt>
      <trkpt lat="44.78716" lon="4.26954">
        <ele>1264.4</ele>
        <time>2021-05-23T09:02:10.516Z</time>
      </trkpt>
      <trkpt lat="44.78716" lon="4.26967">
        <ele>1265.91</ele>
        <time>2021-05-23T09:02:19.876Z</time>
      </trkpt>
      <trkpt lat="44.78715" lon="4.26977">
        <ele>1267.1</ele>
        <time>2021-05-23T09:02:29.392Z</time>
      </trkpt>
      <trkpt lat="44.78714" lon="4.26989">
        <ele>1268.48</ele>
        <time>2021-05-23T09:02:38.994Z</time>
      </trkpt>
      <trkpt lat="44.78713" lon="4.27002">
        <ele>1269.85</ele>
        <time>2021-05-23T09:02:48.374Z</time>
      </trkpt>
      <trkpt lat="44.78713" lon="4.27016">
        <ele>1271.28</ele>
        <time>2021-05-23T09:02:57.510Z</time>
      </trkpt>
      <trkpt lat="44.78708" lon="4.27029">
        <ele>1272.73</ele>
        <time>2021-05-23T09:03:06.689Z</time>
      </trkpt>
      <trkpt lat="44.78704" lon="4.27043">
        <ele>1274.23</ele>
        <time>2021-05-23T09:03:16.131Z</time>
      </trkpt>
      <trkpt lat="44.78698" lon="4.27057">
        <ele>1275.78</ele>
        <time>2021-05-23T09:03:26.271Z</time>
      </trkpt>
      <trkpt lat="44.78693" lon="4.27071">
        <ele>1277.28</ele>
        <time>2021-05-23T09:03:35.839Z</time>
      </trkpt>
      <trkpt lat="44.78691" lon="4.27085">
        <ele>1278.58</ele>
        <time>2021-05-23T09:03:45.177Z</time>
      </trkpt>
      <trkpt lat="44.78685" lon="4.27101">
        <ele>1280.23</ele>
        <time>2021-05-23T09:03:55.414Z</time>
      </trkpt>
      <trkpt lat="44.7868" lon="4.27116">
        <ele>1281.9</ele>
        <time>2021-05-23T09:04:05.193Z</time>
      </trkpt>
      <trkpt lat="44.78676" lon="4.27135">
        <ele>1283.76</ele>
        <time>2021-05-23T09:04:15.252Z</time>
      </trkpt>
      <trkpt lat="44.7867" lon="4.27148">
        <ele>1285.38</ele>
        <time>2021-05-23T09:04:24.314Z</time>
      </trkpt>
      <trkpt lat="44.78668" lon="4.27164">
        <ele>1286.72</ele>
        <time>2021-05-23T09:04:33.999Z</time>
      </trkpt>
      <trkpt lat="44.78666" lon="4.27178">
        <ele>1287.75</ele>
        <time>2021-05-23T09:04:43.470Z</time>
      </trkpt>
      <trkpt lat="44.78662" lon="4.27191">
        <ele>1289.01</ele>
        <time>2021-05-23T09:04:53.370Z</time>
      </trkpt>
      <trkpt lat="44.78656" lon="4.27201">
        <ele>1290.34</ele>
        <time>2021-05-23T09:05:03.000Z</time>
      </trkpt>
      <trkpt lat="44.78647" lon="4.2721">
        <ele>1291.95</ele>
        <time>2021-05-23T09:05:13.100Z</time>
      </trkpt>
      <trkpt lat="44.78642" lon="4.27219">
        <ele>1293</ele>
        <time>2021-05-23T09:05:22.359Z</time>
      </trkpt>
      <trkpt lat="44.78636" lon="4.27227">
        <ele>1293.98</ele>
        <time>2021-05-23T09:05:31.518Z</time>
      </trkpt>
      <trkpt lat="44.78629" lon="4.27233">
        <ele>1295.03</ele>
        <time>2021-05-23T09:05:41.213Z</time>
      </trkpt>
      <trkpt lat="44.78623" lon="4.27237">
        <ele>1295.77</ele>
        <time>2021-05-23T09:05:50.391Z</time>
      </trkpt>
      <trkpt lat="44.78615" lon="4.27242">
        <ele>1296.63</ele>
        <time>2021-05-23T09:05:59.467Z</time>
      </trkpt>
      <trkpt lat="44.78608" lon="4.27247">
        <ele>1297.27</ele>
        <time>2021-05-23T09:06:09.052Z</time>
      </trkpt>
      <trkpt lat="44.78599" lon="4.27252">
        <ele>1297.99</ele>
        <time>2021-05-23T09:06:19.000Z</time>
      </trkpt>
      <trkpt lat="44.78594" lon="4.27254">
        <ele>1298.35</ele>
        <time>2021-05-23T09:06:29.000Z</time>
      </trkpt>
      <trkpt lat="44.78593" lon="4.27255">
        <ele>1298.38</ele>
        <time>2021-05-23T09:17:33.829Z</time>
      </trkpt>
      <trkpt lat="44.78595" lon="4.27254">
        <ele>1298.26</ele>
        <time>2021-05-23T09:18:28.999Z</time>
      </trkpt>
      <trkpt lat="44.78595" lon="4.27253">
        <ele>1298.31</ele>
        <time>2021-05-23T09:18:45.396Z</time>
      </trkpt>
      <trkpt lat="44.78588" lon="4.2726">
        <ele>1298.69</ele>
        <time>2021-05-23T09:18:55.315Z</time>
      </trkpt>
      <trkpt lat="44.78585" lon="4.2726">
        <ele>1298.88</ele>
        <time>2021-05-23T09:19:04.552Z</time>
      </trkpt>
      <trkpt lat="44.78576" lon="4.27265">
        <ele>1299.4</ele>
        <time>2021-05-23T09:19:13.999Z</time>
      </trkpt>
      <trkpt lat="44.78567" lon="4.27268">
        <ele>1299.89</ele>
        <time>2021-05-23T09:19:23.298Z</time>
      </trkpt>
      <trkpt lat="44.78557" lon="4.27276">
        <ele>1300.22</ele>
        <time>2021-05-23T09:19:32.410Z</time>
      </trkpt>
      <trkpt lat="44.78547" lon="4.27282">
        <ele>1300.46</ele>
        <time>2021-05-23T09:19:42.419Z</time>
      </trkpt>
      <trkpt lat="44.78538" lon="4.27288">
        <ele>1300.55</ele>
        <time>2021-05-23T09:19:52.076Z</time>
      </trkpt>
      <trkpt lat="44.78527" lon="4.27293">
        <ele>1300.49</ele>
        <time>2021-05-23T09:20:02.136Z</time>
      </trkpt>
      <trkpt lat="44.78518" lon="4.27297">
        <ele>1300.28</ele>
        <time>2021-05-23T09:20:11.484Z</time>
      </trkpt>
      <trkpt lat="44.78509" lon="4.27303">
        <ele>1299.77</ele>
        <time>2021-05-23T09:20:21.193Z</time>
      </trkpt>
      <trkpt lat="44.785" lon="4.27312">
        <ele>1299.02</ele>
        <time>2021-05-23T09:20:30.536Z</time>
      </trkpt>
      <trkpt lat="44.78492" lon="4.2732">
        <ele>1298.21</ele>
        <time>2021-05-23T09:20:39.891Z</time>
      </trkpt>
      <trkpt lat="44.78485" lon="4.27329">
        <ele>1297.46</ele>
        <time>2021-05-23T09:20:49.251Z</time>
      </trkpt>
      <trkpt lat="44.78477" lon="4.27326">
        <ele>1297</ele>
        <time>2021-05-23T09:20:59.267Z</time>
      </trkpt>
      <trkpt lat="44.78477" lon="4.2732">
        <ele>1297.08</ele>
        <time>2021-05-23T09:21:08.999Z</time>
      </trkpt>
      <trkpt lat="44.78479" lon="4.27322">
        <ele>1297.23</ele>
        <time>2021-05-23T09:21:33.116Z</time>
      </trkpt>
      <trkpt lat="44.78473" lon="4.2734">
        <ele>1296.38</ele>
        <time>2021-05-23T09:21:42.255Z</time>
      </trkpt>
      <trkpt lat="44.78462" lon="4.27354">
        <ele>1295.39</ele>
        <time>2021-05-23T09:21:52.034Z</time>
      </trkpt>
      <trkpt lat="44.78453" lon="4.27366">
        <ele>1294.8</ele>
        <time>2021-05-23T09:22:01.333Z</time>
      </trkpt>
      <trkpt lat="44.78443" lon="4.27378">
        <ele>1294.41</ele>
        <time>2021-05-23T09:22:11.391Z</time>
      </trkpt>
      <trkpt lat="44.78433" lon="4.27389">
        <ele>1294.21</ele>
        <time>2021-05-23T09:22:21.194Z</time>
      </trkpt>
      <trkpt lat="44.78427" lon="4.27405">
        <ele>1294.33</ele>
        <time>2021-05-23T09:22:30.833Z</time>
      </trkpt>
      <trkpt lat="44.78425" lon="4.27409">
        <ele>1294.33</ele>
        <time>2021-05-23T09:22:39.932Z</time>
      </trkpt>
      <trkpt lat="44.78414" lon="4.27424">
        <ele>1293.84</ele>
        <time>2021-05-23T09:22:49.295Z</time>
      </trkpt>
      <trkpt lat="44.78405" lon="4.27438">
        <ele>1293.18</ele>
        <time>2021-05-23T09:22:59.210Z</time>
      </trkpt>
      <trkpt lat="44.78394" lon="4.27453">
        <ele>1292.53</ele>
        <time>2021-05-23T09:23:09.170Z</time>
      </trkpt>
      <trkpt lat="44.78386" lon="4.2747">
        <ele>1292.08</ele>
        <time>2021-05-23T09:23:18.219Z</time>
      </trkpt>
      <trkpt lat="44.78377" lon="4.27483">
        <ele>1292.08</ele>
        <time>2021-05-23T09:23:27.419Z</time>
      </trkpt>
      <trkpt lat="44.78368" lon="4.27497">
        <ele>1292.34</ele>
        <time>2021-05-23T09:23:36.996Z</time>
      </trkpt>
      <trkpt lat="44.7836" lon="4.27511">
        <ele>1292.8</ele>
        <time>2021-05-23T09:23:46.056Z</time>
      </trkpt>
      <trkpt lat="44.78351" lon="4.27524">
        <ele>1293.11</ele>
        <time>2021-05-23T09:23:55.353Z</time>
      </trkpt>
      <trkpt lat="44.78343" lon="4.27539">
        <ele>1293.16</ele>
        <time>2021-05-23T09:24:05.074Z</time>
      </trkpt>
      <trkpt lat="44.78335" lon="4.27553">
        <ele>1292.97</ele>
        <time>2021-05-23T09:24:14.930Z</time>
      </trkpt>
      <trkpt lat="44.78327" lon="4.27564">
        <ele>1292.56</ele>
        <time>2021-05-23T09:24:24.351Z</time>
      </trkpt>
      <trkpt lat="44.78321" lon="4.27574">
        <ele>1292.21</ele>
        <time>2021-05-23T09:24:33.928Z</time>
      </trkpt>
      <trkpt lat="44.78312" lon="4.27585">
        <ele>1291.71</ele>
        <time>2021-05-23T09:24:42.949Z</time>
      </trkpt>
      <trkpt lat="44.78303" lon="4.27598">
        <ele>1291.54</ele>
        <time>2021-05-23T09:24:52.900Z</time>
      </trkpt>
      <trkpt lat="44.78296" lon="4.2761">
        <ele>1291.72</ele>
        <time>2021-05-23T09:25:01.979Z</time>
      </trkpt>
      <trkpt lat="44.78286" lon="4.2762">
        <ele>1291.96</ele>
        <time>2021-05-23T09:25:12.058Z</time>
      </trkpt>
      <trkpt lat="44.78277" lon="4.2763">
        <ele>1292.69</ele>
        <time>2021-05-23T09:25:21.115Z</time>
      </trkpt>
      <trkpt lat="44.78269" lon="4.27643">
        <ele>1293.88</ele>
        <time>2021-05-23T09:25:31.233Z</time>
      </trkpt>
      <trkpt lat="44.78263" lon="4.27651">
        <ele>1294.72</ele>
        <time>2021-05-23T09:25:40.852Z</time>
      </trkpt>
      <trkpt lat="44.78261" lon="4.27652">
        <ele>1294.75</ele>
        <time>2021-05-23T09:25:50.132Z</time>
      </trkpt>
      <trkpt lat="44.78254" lon="4.27657">
        <ele>1295.11</ele>
        <time>2021-05-23T09:26:00.000Z</time>
      </trkpt>
      <trkpt lat="44.78253" lon="4.27664">
        <ele>1295.8</ele>
        <time>2021-05-23T09:26:09.256Z</time>
      </trkpt>
      <trkpt lat="44.78241" lon="4.27676">
        <ele>1296.48</ele>
        <time>2021-05-23T09:26:19.116Z</time>
      </trkpt>
      <trkpt lat="44.78232" lon="4.27687">
        <ele>1296.95</ele>
        <time>2021-05-23T09:26:28.476Z</time>
      </trkpt>
      <trkpt lat="44.78223" lon="4.27702">
        <ele>1297.41</ele>
        <time>2021-05-23T09:26:38.354Z</time>
      </trkpt>
      <trkpt lat="44.78213" lon="4.27713">
        <ele>1297.58</ele>
        <time>2021-05-23T09:26:47.494Z</time>
      </trkpt>
      <trkpt lat="44.78206" lon="4.27727">
        <ele>1297.85</ele>
        <time>2021-05-23T09:26:57.413Z</time>
      </trkpt>
      <trkpt lat="44.782" lon="4.27742">
        <ele>1298.11</ele>
        <time>2021-05-23T09:27:07.371Z</time>
      </trkpt>
      <trkpt lat="44.78194" lon="4.27753">
        <ele>1298.25</ele>
        <time>2021-05-23T09:27:16.473Z</time>
      </trkpt>
      <trkpt lat="44.78188" lon="4.27763">
        <ele>1298.2</ele>
        <time>2021-05-23T09:27:25.569Z</time>
      </trkpt>
      <trkpt lat="44.78185" lon="4.27775">
        <ele>1298.03</ele>
        <time>2021-05-23T09:27:34.577Z</time>
      </trkpt>
      <trkpt lat="44.7818" lon="4.2779">
        <ele>1297.59</ele>
        <time>2021-05-23T09:27:43.937Z</time>
      </trkpt>
      <trkpt lat="44.78173" lon="4.27802">
        <ele>1296.99</ele>
        <time>2021-05-23T09:27:53.337Z</time>
      </trkpt>
      <trkpt lat="44.78167" lon="4.27814">
        <ele>1296.29</ele>
        <time>2021-05-23T09:28:02.773Z</time>
      </trkpt>
      <trkpt lat="44.7816" lon="4.27824">
        <ele>1295.56</ele>
        <time>2021-05-23T09:28:11.852Z</time>
      </trkpt>
      <trkpt lat="44.78154" lon="4.27835">
        <ele>1294.9</ele>
        <time>2021-05-23T09:28:21.394Z</time>
      </trkpt>
      <trkpt lat="44.78147" lon="4.27848">
        <ele>1294.25</ele>
        <time>2021-05-23T09:28:31.466Z</time>
      </trkpt>
      <trkpt lat="44.78141" lon="4.27858">
        <ele>1293.72</ele>
        <time>2021-05-23T09:28:40.550Z</time>
      </trkpt>
      <trkpt lat="44.78134" lon="4.2787">
        <ele>1293.37</ele>
        <time>2021-05-23T09:28:49.841Z</time>
      </trkpt>
      <trkpt lat="44.78129" lon="4.27883">
        <ele>1293.43</ele>
        <time>2021-05-23T09:28:58.957Z</time>
      </trkpt>
      <trkpt lat="44.78123" lon="4.27896">
        <ele>1293.73</ele>
        <time>2021-05-23T09:29:08.471Z</time>
      </trkpt>
      <trkpt lat="44.78115" lon="4.27906">
        <ele>1294.06</ele>
        <time>2021-05-23T09:29:17.653Z</time>
      </trkpt>
      <trkpt lat="44.78108" lon="4.27916">
        <ele>1294.45</ele>
        <time>2021-05-23T09:29:26.814Z</time>
      </trkpt>
      <trkpt lat="44.78102" lon="4.27928">
        <ele>1295.08</ele>
        <time>2021-05-23T09:29:35.991Z</time>
      </trkpt>
      <trkpt lat="44.78097" lon="4.27941">
        <ele>1295.95</ele>
        <time>2021-05-23T09:29:45.391Z</time>
      </trkpt>
      <trkpt lat="44.78091" lon="4.27956">
        <ele>1296.8</ele>
        <time>2021-05-23T09:29:55.330Z</time>
      </trkpt>
      <trkpt lat="44.78088" lon="4.2797">
        <ele>1297.68</ele>
        <time>2021-05-23T09:30:04.466Z</time>
      </trkpt>
      <trkpt lat="44.78085" lon="4.27985">
        <ele>1298.69</ele>
        <time>2021-05-23T09:30:14.039Z</time>
      </trkpt>
      <trkpt lat="44.78081" lon="4.28001">
        <ele>1299.64</ele>
        <time>2021-05-23T09:30:23.698Z</time>
      </trkpt>
      <trkpt lat="44.78081" lon="4.28016">
        <ele>1301.35</ele>
        <time>2021-05-23T09:30:33.179Z</time>
      </trkpt>
      <trkpt lat="44.78079" lon="4.28031">
        <ele>1302.53</ele>
        <time>2021-05-23T09:30:42.198Z</time>
      </trkpt>
      <trkpt lat="44.78078" lon="4.28045">
        <ele>1303.78</ele>
        <time>2021-05-23T09:30:51.255Z</time>
      </trkpt>
      <trkpt lat="44.78075" lon="4.28059">
        <ele>1305.1</ele>
        <time>2021-05-23T09:31:01.255Z</time>
      </trkpt>
      <trkpt lat="44.78076" lon="4.2807">
        <ele>1306.49</ele>
        <time>2021-05-23T09:31:10.293Z</time>
      </trkpt>
      <trkpt lat="44.78075" lon="4.28084">
        <ele>1308.27</ele>
        <time>2021-05-23T09:31:20.096Z</time>
      </trkpt>
      <trkpt lat="44.78073" lon="4.281">
        <ele>1310.6</ele>
        <time>2021-05-23T09:31:30.490Z</time>
      </trkpt>
      <trkpt lat="44.78073" lon="4.28114">
        <ele>1313.01</ele>
        <time>2021-05-23T09:31:39.993Z</time>
      </trkpt>
      <trkpt lat="44.78071" lon="4.28125">
        <ele>1315.03</ele>
        <time>2021-05-23T09:31:49.192Z</time>
      </trkpt>
      <trkpt lat="44.7807" lon="4.28138">
        <ele>1317.31</ele>
        <time>2021-05-23T09:31:58.216Z</time>
      </trkpt>
      <trkpt lat="44.78071" lon="4.2815">
        <ele>1319.63</ele>
        <time>2021-05-23T09:32:07.254Z</time>
      </trkpt>
      <trkpt lat="44.78067" lon="4.28164">
        <ele>1321.96</ele>
        <time>2021-05-23T09:32:16.374Z</time>
      </trkpt>
      <trkpt lat="44.78066" lon="4.28176">
        <ele>1323.92</ele>
        <time>2021-05-23T09:32:26.393Z</time>
      </trkpt>
      <trkpt lat="44.78064" lon="4.28185">
        <ele>1325.47</ele>
        <time>2021-05-23T09:32:35.471Z</time>
      </trkpt>
      <trkpt lat="44.78064" lon="4.28194">
        <ele>1327.02</ele>
        <time>2021-05-23T09:32:44.490Z</time>
      </trkpt>
      <trkpt lat="44.7806" lon="4.28207">
        <ele>1329.26</ele>
        <time>2021-05-23T09:32:54.311Z</time>
      </trkpt>
      <trkpt lat="44.78057" lon="4.28216">
        <ele>1330.89</ele>
        <time>2021-05-23T09:33:03.990Z</time>
      </trkpt>
      <trkpt lat="44.78054" lon="4.28227">
        <ele>1332.9</ele>
        <time>2021-05-23T09:33:14.411Z</time>
      </trkpt>
      <trkpt lat="44.78051" lon="4.28239">
        <ele>1334.95</ele>
        <time>2021-05-23T09:33:23.538Z</time>
      </trkpt>
      <trkpt lat="44.78049" lon="4.28253">
        <ele>1336.8</ele>
        <time>2021-05-23T09:33:33.278Z</time>
      </trkpt>
      <trkpt lat="44.78049" lon="4.28266">
        <ele>1337.74</ele>
        <time>2021-05-23T09:33:42.471Z</time>
      </trkpt>
      <trkpt lat="44.78048" lon="4.28278">
        <ele>1338.34</ele>
        <time>2021-05-23T09:33:51.472Z</time>
      </trkpt>
      <trkpt lat="44.78047" lon="4.28289">
        <ele>1338.85</ele>
        <time>2021-05-23T09:34:00.957Z</time>
      </trkpt>
      <trkpt lat="44.78045" lon="4.28301">
        <ele>1339.27</ele>
        <time>2021-05-23T09:34:10.090Z</time>
      </trkpt>
      <trkpt lat="44.78042" lon="4.2831">
        <ele>1339.77</ele>
        <time>2021-05-23T09:34:19.131Z</time>
      </trkpt>
      <trkpt lat="44.78038" lon="4.2832">
        <ele>1340.53</ele>
        <time>2021-05-23T09:34:28.490Z</time>
      </trkpt>
      <trkpt lat="44.7804" lon="4.28334">
        <ele>1340.46</ele>
        <time>2021-05-23T09:34:38.008Z</time>
      </trkpt>
      <trkpt lat="44.78036" lon="4.28345">
        <ele>1341.18</ele>
        <time>2021-05-23T09:34:47.030Z</time>
      </trkpt>
      <trkpt lat="44.78027" lon="4.28353">
        <ele>1342.16</ele>
        <time>2021-05-23T09:35:08.996Z</time>
      </trkpt>
      <trkpt lat="44.78017" lon="4.28365">
        <ele>1342.44</ele>
        <time>2021-05-23T09:35:18.075Z</time>
      </trkpt>
      <trkpt lat="44.78009" lon="4.28378">
        <ele>1341.78</ele>
        <time>2021-05-23T09:35:28.114Z</time>
      </trkpt>
      <trkpt lat="44.78002" lon="4.28392">
        <ele>1340.7</ele>
        <time>2021-05-23T09:35:37.571Z</time>
      </trkpt>
      <trkpt lat="44.77992" lon="4.28404">
        <ele>1339.33</ele>
        <time>2021-05-23T09:35:47.191Z</time>
      </trkpt>
      <trkpt lat="44.77983" lon="4.28411">
        <ele>1338.17</ele>
        <time>2021-05-23T09:35:56.489Z</time>
      </trkpt>
      <trkpt lat="44.77975" lon="4.28419">
        <ele>1337.17</ele>
        <time>2021-05-23T09:36:06.270Z</time>
      </trkpt>
      <trkpt lat="44.77967" lon="4.28426">
        <ele>1336.17</ele>
        <time>2021-05-23T09:36:16.357Z</time>
      </trkpt>
      <trkpt lat="44.77959" lon="4.28435">
        <ele>1335.53</ele>
        <time>2021-05-23T09:36:26.439Z</time>
      </trkpt>
      <trkpt lat="44.77954" lon="4.2844">
        <ele>1335.31</ele>
        <time>2021-05-23T09:36:35.661Z</time>
      </trkpt>
      <trkpt lat="44.77949" lon="4.28452">
        <ele>1335.71</ele>
        <time>2021-05-23T09:36:44.798Z</time>
      </trkpt>
      <trkpt lat="44.77945" lon="4.28465">
        <ele>1336.48</ele>
        <time>2021-05-23T09:36:54.037Z</time>
      </trkpt>
      <trkpt lat="44.77938" lon="4.28482">
        <ele>1337.57</ele>
        <time>2021-05-23T09:37:03.276Z</time>
      </trkpt>
      <trkpt lat="44.7793" lon="4.28494">
        <ele>1338.14</ele>
        <time>2021-05-23T09:37:12.714Z</time>
      </trkpt>
      <trkpt lat="44.77924" lon="4.28506">
        <ele>1338.94</ele>
        <time>2021-05-23T09:37:22.175Z</time>
      </trkpt>
      <trkpt lat="44.77918" lon="4.2852">
        <ele>1340.12</ele>
        <time>2021-05-23T09:37:31.999Z</time>
      </trkpt>
      <trkpt lat="44.77917" lon="4.28533">
        <ele>1341.42</ele>
        <time>2021-05-23T09:37:41.533Z</time>
      </trkpt>
      <trkpt lat="44.77915" lon="4.28549">
        <ele>1342.85</ele>
        <time>2021-05-23T09:37:51.097Z</time>
      </trkpt>
      <trkpt lat="44.77914" lon="4.28561">
        <ele>1343.87</ele>
        <time>2021-05-23T09:38:00.177Z</time>
      </trkpt>
      <trkpt lat="44.77914" lon="4.28577">
        <ele>1345.38</ele>
        <time>2021-05-23T09:38:10.395Z</time>
      </trkpt>
      <trkpt lat="44.77913" lon="4.2859">
        <ele>1346.54</ele>
        <time>2021-05-23T09:38:20.440Z</time>
      </trkpt>
      <trkpt lat="44.77913" lon="4.28598">
        <ele>1347.31</ele>
        <time>2021-05-23T09:38:29.473Z</time>
      </trkpt>
      <trkpt lat="44.77913" lon="4.28615">
        <ele>1348.77</ele>
        <time>2021-05-23T09:38:38.893Z</time>
      </trkpt>
      <trkpt lat="44.77908" lon="4.28625">
        <ele>1349.62</ele>
        <time>2021-05-23T09:38:48.292Z</time>
      </trkpt>
      <trkpt lat="44.77907" lon="4.28631">
        <ele>1350.17</ele>
        <time>2021-05-23T09:39:00.529Z</time>
      </trkpt>
      <trkpt lat="44.77908" lon="4.28653">
        <ele>1352.07</ele>
        <time>2021-05-23T09:39:09.930Z</time>
      </trkpt>
      <trkpt lat="44.77907" lon="4.2867">
        <ele>1353.42</ele>
        <time>2021-05-23T09:39:19.088Z</time>
      </trkpt>
      <trkpt lat="44.7791" lon="4.2868">
        <ele>1354.19</ele>
        <time>2021-05-23T09:39:29.179Z</time>
      </trkpt>
      <trkpt lat="44.77913" lon="4.28688">
        <ele>1354.68</ele>
        <time>2021-05-23T09:39:47.119Z</time>
      </trkpt>
      <trkpt lat="44.77918" lon="4.28705">
        <ele>1355.74</ele>
        <time>2021-05-23T09:39:56.253Z</time>
      </trkpt>
      <trkpt lat="44.77924" lon="4.28715">
        <ele>1356.36</ele>
        <time>2021-05-23T09:40:05.795Z</time>
      </trkpt>
      <trkpt lat="44.77927" lon="4.28722">
        <ele>1356.79</ele>
        <time>2021-05-23T09:40:17.312Z</time>
      </trkpt>
      <trkpt lat="44.77931" lon="4.2874">
        <ele>1358.01</ele>
        <time>2021-05-23T09:40:26.514Z</time>
      </trkpt>
      <trkpt lat="44.77935" lon="4.2875">
        <ele>1358.7</ele>
        <time>2021-05-23T09:40:35.834Z</time>
      </trkpt>
      <trkpt lat="44.77938" lon="4.28756">
        <ele>1359.14</ele>
        <time>2021-05-23T09:40:46.312Z</time>
      </trkpt>
      <trkpt lat="44.77937" lon="4.28775">
        <ele>1360.53</ele>
        <time>2021-05-23T09:40:56.498Z</time>
      </trkpt>
      <trkpt lat="44.77934" lon="4.2878">
        <ele>1360.97</ele>
        <time>2021-05-23T09:41:06.000Z</time>
      </trkpt>
      <trkpt lat="44.7793" lon="4.28785">
        <ele>1361.39</ele>
        <time>2021-05-23T09:41:18.154Z</time>
      </trkpt>
      <trkpt lat="44.77923" lon="4.28793">
        <ele>1362.29</ele>
        <time>2021-05-23T09:41:27.335Z</time>
      </trkpt>
      <trkpt lat="44.77918" lon="4.28813">
        <ele>1364.2</ele>
        <time>2021-05-23T09:41:37.093Z</time>
      </trkpt>
      <trkpt lat="44.77915" lon="4.28834">
        <ele>1366.12</ele>
        <time>2021-05-23T09:41:47.294Z</time>
      </trkpt>
      <trkpt lat="44.7792" lon="4.28855">
        <ele>1367.58</ele>
        <time>2021-05-23T09:41:56.992Z</time>
      </trkpt>
      <trkpt lat="44.77919" lon="4.28867">
        <ele>1368.66</ele>
        <time>2021-05-23T09:42:06.311Z</time>
      </trkpt>
      <trkpt lat="44.77918" lon="4.28879">
        <ele>1369.58</ele>
        <time>2021-05-23T09:42:16.467Z</time>
      </trkpt>
      <trkpt lat="44.77917" lon="4.28889">
        <ele>1370.37</ele>
        <time>2021-05-23T09:42:25.999Z</time>
      </trkpt>
      <trkpt lat="44.77915" lon="4.28902">
        <ele>1371.31</ele>
        <time>2021-05-23T09:42:35.020Z</time>
      </trkpt>
      <trkpt lat="44.77915" lon="4.28917">
        <ele>1372.06</ele>
        <time>2021-05-23T09:42:44.360Z</time>
      </trkpt>
      <trkpt lat="44.77917" lon="4.28929">
        <ele>1372.5</ele>
        <time>2021-05-23T09:42:53.935Z</time>
      </trkpt>
      <trkpt lat="44.77917" lon="4.28935">
        <ele>1372.67</ele>
        <time>2021-05-23T09:43:03.096Z</time>
      </trkpt>
      <trkpt lat="44.77918" lon="4.28939">
        <ele>1372.79</ele>
        <time>2021-05-23T09:43:12.999Z</time>
      </trkpt>
      <trkpt lat="44.77922" lon="4.2894">
        <ele>1372.74</ele>
        <time>2021-05-23T09:43:43.999Z</time>
      </trkpt>
      <trkpt lat="44.77921" lon="4.28936">
        <ele>1372.65</ele>
        <time>2021-05-23T09:45:18.999Z</time>
      </trkpt>
      <trkpt lat="44.77923" lon="4.28946">
        <ele>1372.91</ele>
        <time>2021-05-23T09:46:37.294Z</time>
      </trkpt>
      <trkpt lat="44.77916" lon="4.28963">
        <ele>1373.39</ele>
        <time>2021-05-23T09:46:46.493Z</time>
      </trkpt>
      <trkpt lat="44.77903" lon="4.28976">
        <ele>1373.86</ele>
        <time>2021-05-23T09:46:56.295Z</time>
      </trkpt>
      <trkpt lat="44.77893" lon="4.2898">
        <ele>1374.28</ele>
        <time>2021-05-23T09:47:05.490Z</time>
      </trkpt>
      <trkpt lat="44.77885" lon="4.28982">
        <ele>1374.73</ele>
        <time>2021-05-23T09:47:15.090Z</time>
      </trkpt>
      <trkpt lat="44.77877" lon="4.28981">
        <ele>1375.25</ele>
        <time>2021-05-23T09:47:24.230Z</time>
      </trkpt>
      <trkpt lat="44.77866" lon="4.2898">
        <ele>1376.06</ele>
        <time>2021-05-23T09:47:34.360Z</time>
      </trkpt>
      <trkpt lat="44.77856" lon="4.28977">
        <ele>1376.78</ele>
        <time>2021-05-23T09:47:43.497Z</time>
      </trkpt>
      <trkpt lat="44.77848" lon="4.28974">
        <ele>1377.49</ele>
        <time>2021-05-23T09:47:53.086Z</time>
      </trkpt>
      <trkpt lat="44.77837" lon="4.2897">
        <ele>1378.26</ele>
        <time>2021-05-23T09:48:02.319Z</time>
      </trkpt>
      <trkpt lat="44.77827" lon="4.28965">
        <ele>1378.94</ele>
        <time>2021-05-23T09:48:12.398Z</time>
      </trkpt>
      <trkpt lat="44.77817" lon="4.2896">
        <ele>1379.56</ele>
        <time>2021-05-23T09:48:22.175Z</time>
      </trkpt>
      <trkpt lat="44.77807" lon="4.28958">
        <ele>1379.94</ele>
        <time>2021-05-23T09:48:31.711Z</time>
      </trkpt>
      <trkpt lat="44.77793" lon="4.28957">
        <ele>1380.36</ele>
        <time>2021-05-23T09:48:41.193Z</time>
      </trkpt>
      <trkpt lat="44.77783" lon="4.28954">
        <ele>1380.68</ele>
        <time>2021-05-23T09:48:50.311Z</time>
      </trkpt>
      <trkpt lat="44.77773" lon="4.28951">
        <ele>1380.98</ele>
        <time>2021-05-23T09:49:00.117Z</time>
      </trkpt>
      <trkpt lat="44.77765" lon="4.28946">
        <ele>1381.29</ele>
        <time>2021-05-23T09:49:09.238Z</time>
      </trkpt>
      <trkpt lat="44.77754" lon="4.28939">
        <ele>1381.67</ele>
        <time>2021-05-23T09:49:18.836Z</time>
      </trkpt>
      <trkpt lat="44.77746" lon="4.28927">
        <ele>1382</ele>
        <time>2021-05-23T09:49:28.355Z</time>
      </trkpt>
      <trkpt lat="44.77744" lon="4.28913">
        <ele>1382.09</ele>
        <time>2021-05-23T09:49:38.031Z</time>
      </trkpt>
      <trkpt lat="44.77743" lon="4.28903">
        <ele>1382.03</ele>
        <time>2021-05-23T09:49:47.422Z</time>
      </trkpt>
      <trkpt lat="44.77739" lon="4.28893">
        <ele>1381.97</ele>
        <time>2021-05-23T09:49:56.512Z</time>
      </trkpt>
      <trkpt lat="44.77733" lon="4.28884">
        <ele>1381.86</ele>
        <time>2021-05-23T09:50:05.548Z</time>
      </trkpt>
      <trkpt lat="44.77733" lon="4.28875">
        <ele>1381.69</ele>
        <time>2021-05-23T09:50:20.596Z</time>
      </trkpt>
      <trkpt lat="44.77729" lon="4.28853">
        <ele>1381.14</ele>
        <time>2021-05-23T09:50:29.998Z</time>
      </trkpt>
      <trkpt lat="44.77724" lon="4.28838">
        <ele>1380.76</ele>
        <time>2021-05-23T09:50:39.036Z</time>
      </trkpt>
      <trkpt lat="44.77717" lon="4.28821">
        <ele>1380.33</ele>
        <time>2021-05-23T09:50:48.995Z</time>
      </trkpt>
      <trkpt lat="44.77712" lon="4.28809">
        <ele>1380.01</ele>
        <time>2021-05-23T09:50:58.072Z</time>
      </trkpt>
      <trkpt lat="44.77705" lon="4.28793">
        <ele>1379.61</ele>
        <time>2021-05-23T09:51:07.154Z</time>
      </trkpt>
      <trkpt lat="44.77696" lon="4.28778">
        <ele>1379.3</ele>
        <time>2021-05-23T09:51:16.175Z</time>
      </trkpt>
      <trkpt lat="44.77688" lon="4.28765">
        <ele>1378.99</ele>
        <time>2021-05-23T09:51:25.232Z</time>
      </trkpt>
      <trkpt lat="44.77679" lon="4.28749">
        <ele>1378.49</ele>
        <time>2021-05-23T09:51:34.489Z</time>
      </trkpt>
      <trkpt lat="44.77667" lon="4.28738">
        <ele>1378.23</ele>
        <time>2021-05-23T09:51:44.298Z</time>
      </trkpt>
      <trkpt lat="44.77657" lon="4.28732">
        <ele>1378.26</ele>
        <time>2021-05-23T09:51:54.121Z</time>
      </trkpt>
      <trkpt lat="44.77649" lon="4.28726">
        <ele>1378.19</ele>
        <time>2021-05-23T09:52:03.274Z</time>
      </trkpt>
      <trkpt lat="44.77645" lon="4.28722">
        <ele>1378.09</ele>
        <time>2021-05-23T09:52:20.832Z</time>
      </trkpt>
      <trkpt lat="44.77628" lon="4.28709">
        <ele>1377.96</ele>
        <time>2021-05-23T09:52:30.212Z</time>
      </trkpt>
      <trkpt lat="44.77613" lon="4.28695">
        <ele>1377.71</ele>
        <time>2021-05-23T09:52:40.152Z</time>
      </trkpt>
      <trkpt lat="44.77599" lon="4.28684">
        <ele>1377.55</ele>
        <time>2021-05-23T09:52:50.010Z</time>
      </trkpt>
      <trkpt lat="44.77588" lon="4.28675">
        <ele>1377.29</ele>
        <time>2021-05-23T09:52:59.329Z</time>
      </trkpt>
      <trkpt lat="44.77578" lon="4.28664">
        <ele>1376.9</ele>
        <time>2021-05-23T09:53:08.380Z</time>
      </trkpt>
      <trkpt lat="44.77568" lon="4.28652">
        <ele>1376.49</ele>
        <time>2021-05-23T09:53:18.060Z</time>
      </trkpt>
      <trkpt lat="44.7756" lon="4.28642">
        <ele>1376.16</ele>
        <time>2021-05-23T09:53:28.119Z</time>
      </trkpt>
      <trkpt lat="44.77552" lon="4.28637">
        <ele>1375.97</ele>
        <time>2021-05-23T09:53:38.295Z</time>
      </trkpt>
      <trkpt lat="44.77544" lon="4.2863">
        <ele>1375.81</ele>
        <time>2021-05-23T09:53:47.297Z</time>
      </trkpt>
      <trkpt lat="44.77536" lon="4.28618">
        <ele>1375.73</ele>
        <time>2021-05-23T09:53:56.633Z</time>
      </trkpt>
      <trkpt lat="44.77531" lon="4.28603">
        <ele>1375.9</ele>
        <time>2021-05-23T09:54:05.872Z</time>
      </trkpt>
      <trkpt lat="44.77532" lon="4.28592">
        <ele>1376.18</ele>
        <time>2021-05-23T09:54:15.000Z</time>
      </trkpt>
      <trkpt lat="44.77531" lon="4.2859">
        <ele>1376.22</ele>
        <time>2021-05-23T09:54:26.000Z</time>
      </trkpt>
      <trkpt lat="44.77531" lon="4.28576">
        <ele>1376.69</ele>
        <time>2021-05-23T09:54:35.192Z</time>
      </trkpt>
      <trkpt lat="44.77531" lon="4.28561">
        <ele>1377.41</ele>
        <time>2021-05-23T09:54:44.271Z</time>
      </trkpt>
      <trkpt lat="44.77531" lon="4.28548">
        <ele>1378.12</ele>
        <time>2021-05-23T09:54:53.495Z</time>
      </trkpt>
      <trkpt lat="44.7753" lon="4.28536">
        <ele>1378.9</ele>
        <time>2021-05-23T09:55:03.417Z</time>
      </trkpt>
      <trkpt lat="44.77531" lon="4.28523">
        <ele>1379.71</ele>
        <time>2021-05-23T09:55:13.056Z</time>
      </trkpt>
      <trkpt lat="44.77532" lon="4.28508">
        <ele>1380.61</ele>
        <time>2021-05-23T09:55:22.376Z</time>
      </trkpt>
      <trkpt lat="44.77529" lon="4.28491">
        <ele>1381.71</ele>
        <time>2021-05-23T09:55:31.852Z</time>
      </trkpt>
      <trkpt lat="44.77525" lon="4.28476">
        <ele>1383.08</ele>
        <time>2021-05-23T09:55:41.415Z</time>
      </trkpt>
      <trkpt lat="44.77524" lon="4.28467">
        <ele>1383.96</ele>
        <time>2021-05-23T09:55:50.812Z</time>
      </trkpt>
      <trkpt lat="44.77522" lon="4.28452">
        <ele>1385.22</ele>
        <time>2021-05-23T09:56:00.110Z</time>
      </trkpt>
      <trkpt lat="44.77522" lon="4.28438">
        <ele>1386.05</ele>
        <time>2021-05-23T09:56:10.470Z</time>
      </trkpt>
      <trkpt lat="44.77522" lon="4.2843">
        <ele>1386.32</ele>
        <time>2021-05-23T09:56:19.989Z</time>
      </trkpt>
      <trkpt lat="44.77522" lon="4.28421">
        <ele>1386.34</ele>
        <time>2021-05-23T09:56:29.498Z</time>
      </trkpt>
      <trkpt lat="44.77519" lon="4.28413">
        <ele>1386.15</ele>
        <time>2021-05-23T09:56:38.559Z</time>
      </trkpt>
      <trkpt lat="44.77516" lon="4.28405">
        <ele>1385.81</ele>
        <time>2021-05-23T09:56:48.040Z</time>
      </trkpt>
      <trkpt lat="44.77516" lon="4.28402">
        <ele>1385.64</ele>
        <time>2021-05-23T09:56:57.463Z</time>
      </trkpt>
      <trkpt lat="44.77515" lon="4.28399">
        <ele>1385.44</ele>
        <time>2021-05-23T09:57:08.999Z</time>
      </trkpt>
      <trkpt lat="44.77514" lon="4.28394">
        <ele>1385.13</ele>
        <time>2021-05-23T09:57:18.035Z</time>
      </trkpt>
      <trkpt lat="44.77515" lon="4.28389">
        <ele>1384.67</ele>
        <time>2021-05-23T09:57:27.999Z</time>
      </trkpt>
      <trkpt lat="44.77514" lon="4.28388">
        <ele>1384.57</ele>
        <time>2021-05-23T09:57:37.999Z</time>
      </trkpt>
      <trkpt lat="44.77514" lon="4.28386">
        <ele>1384.42</ele>
        <time>2021-05-23T09:58:01.999Z</time>
      </trkpt>
      <trkpt lat="44.77512" lon="4.28385">
        <ele>1384.4</ele>
        <time>2021-05-23T09:58:11.257Z</time>
      </trkpt>
      <trkpt lat="44.77508" lon="4.2838">
        <ele>1384.01</ele>
        <time>2021-05-23T09:58:21.477Z</time>
      </trkpt>
      <trkpt lat="44.77506" lon="4.28378">
        <ele>1383.78</ele>
        <time>2021-05-23T09:58:31.375Z</time>
      </trkpt>
      <trkpt lat="44.77506" lon="4.28375">
        <ele>1383.4</ele>
        <time>2021-05-23T09:58:41.255Z</time>
      </trkpt>
      <trkpt lat="44.77506" lon="4.2837">
        <ele>1382.91</ele>
        <time>2021-05-23T09:58:54.252Z</time>
      </trkpt>
      <trkpt lat="44.77503" lon="4.28369">
        <ele>1382.7</ele>
        <time>2021-05-23T09:59:03.932Z</time>
      </trkpt>
      <trkpt lat="44.77501" lon="4.28365">
        <ele>1382.25</ele>
        <time>2021-05-23T09:59:13.149Z</time>
      </trkpt>
      <trkpt lat="44.77498" lon="4.28363">
        <ele>1381.86</ele>
        <time>2021-05-23T09:59:22.474Z</time>
      </trkpt>
      <trkpt lat="44.77496" lon="4.2836">
        <ele>1381.38</ele>
        <time>2021-05-23T09:59:31.999Z</time>
      </trkpt>
      <trkpt lat="44.77494" lon="4.28358">
        <ele>1381.14</ele>
        <time>2021-05-23T10:05:00.999Z</time>
      </trkpt>
      <trkpt lat="44.77495" lon="4.28361">
        <ele>1381.6</ele>
        <time>2021-05-23T10:05:12.008Z</time>
      </trkpt>
      <trkpt lat="44.77498" lon="4.28363">
        <ele>1381.91</ele>
        <time>2021-05-23T10:05:34.735Z</time>
      </trkpt>
      <trkpt lat="44.77502" lon="4.28366">
        <ele>1382.31</ele>
        <time>2021-05-23T10:05:44.534Z</time>
      </trkpt>
      <trkpt lat="44.77505" lon="4.28377">
        <ele>1383.64</ele>
        <time>2021-05-23T10:05:54.378Z</time>
      </trkpt>
      <trkpt lat="44.77509" lon="4.28384">
        <ele>1384.38</ele>
        <time>2021-05-23T10:06:03.999Z</time>
      </trkpt>
      <trkpt lat="44.7751" lon="4.28385">
        <ele>1384.39</ele>
        <time>2021-05-23T10:06:13.535Z</time>
      </trkpt>
      <trkpt lat="44.77514" lon="4.28395">
        <ele>1385.22</ele>
        <time>2021-05-23T10:06:23.071Z</time>
      </trkpt>
      <trkpt lat="44.77517" lon="4.2841">
        <ele>1386.06</ele>
        <time>2021-05-23T10:06:32.101Z</time>
      </trkpt>
      <trkpt lat="44.77522" lon="4.28424">
        <ele>1386.36</ele>
        <time>2021-05-23T10:06:41.518Z</time>
      </trkpt>
      <trkpt lat="44.77523" lon="4.2844">
        <ele>1385.95</ele>
        <time>2021-05-23T10:06:51.097Z</time>
      </trkpt>
      <trkpt lat="44.77521" lon="4.2846">
        <ele>1384.63</ele>
        <time>2021-05-23T10:07:01.194Z</time>
      </trkpt>
      <trkpt lat="44.77522" lon="4.28475">
        <ele>1383.28</ele>
        <time>2021-05-23T10:07:10.417Z</time>
      </trkpt>
      <trkpt lat="44.77525" lon="4.28492">
        <ele>1381.8</ele>
        <time>2021-05-23T10:07:19.612Z</time>
      </trkpt>
      <trkpt lat="44.77529" lon="4.28503">
        <ele>1380.99</ele>
        <time>2021-05-23T10:07:29.312Z</time>
      </trkpt>
      <trkpt lat="44.77529" lon="4.28518">
        <ele>1380.1</ele>
        <time>2021-05-23T10:07:38.612Z</time>
      </trkpt>
      <trkpt lat="44.77529" lon="4.28533">
        <ele>1379.09</ele>
        <time>2021-05-23T10:07:48.110Z</time>
      </trkpt>
      <trkpt lat="44.77532" lon="4.28554">
        <ele>1377.77</ele>
        <time>2021-05-23T10:07:58.188Z</time>
      </trkpt>
      <trkpt lat="44.77531" lon="4.28575">
        <ele>1376.75</ele>
        <time>2021-05-23T10:08:08.089Z</time>
      </trkpt>
      <trkpt lat="44.77531" lon="4.2859">
        <ele>1376.22</ele>
        <time>2021-05-23T10:08:17.270Z</time>
      </trkpt>
      <trkpt lat="44.77529" lon="4.28608">
        <ele>1375.79</ele>
        <time>2021-05-23T10:08:27.000Z</time>
      </trkpt>
      <trkpt lat="44.77521" lon="4.28616">
        <ele>1375.5</ele>
        <time>2021-05-23T10:08:36.327Z</time>
      </trkpt>
      <trkpt lat="44.7751" lon="4.28625">
        <ele>1374.97</ele>
        <time>2021-05-23T10:08:46.021Z</time>
      </trkpt>
      <trkpt lat="44.77499" lon="4.28631">
        <ele>1374.36</ele>
        <time>2021-05-23T10:08:55.081Z</time>
      </trkpt>
      <trkpt lat="44.77486" lon="4.28636">
        <ele>1373.56</ele>
        <time>2021-05-23T10:09:05.259Z</time>
      </trkpt>
      <trkpt lat="44.77475" lon="4.28645">
        <ele>1372.68</ele>
        <time>2021-05-23T10:09:15.297Z</time>
      </trkpt>
      <trkpt lat="44.7746" lon="4.28647">
        <ele>1371.61</ele>
        <time>2021-05-23T10:09:25.000Z</time>
      </trkpt>
      <trkpt lat="44.7745" lon="4.28646">
        <ele>1370.81</ele>
        <time>2021-05-23T10:09:34.397Z</time>
      </trkpt>
      <trkpt lat="44.77439" lon="4.28641">
        <ele>1369.98</ele>
        <time>2021-05-23T10:09:44.176Z</time>
      </trkpt>
      <trkpt lat="44.77433" lon="4.28629">
        <ele>1369.64</ele>
        <time>2021-05-23T10:09:53.335Z</time>
      </trkpt>
      <trkpt lat="44.77426" lon="4.28613">
        <ele>1369.37</ele>
        <time>2021-05-23T10:10:02.875Z</time>
      </trkpt>
      <trkpt lat="44.77414" lon="4.28599">
        <ele>1368.49</ele>
        <time>2021-05-23T10:10:12.034Z</time>
      </trkpt>
      <trkpt lat="44.77401" lon="4.28589">
        <ele>1367.22</ele>
        <time>2021-05-23T10:10:21.630Z</time>
      </trkpt>
      <trkpt lat="44.77391" lon="4.2858">
        <ele>1366.16</ele>
        <time>2021-05-23T10:10:30.879Z</time>
      </trkpt>
      <trkpt lat="44.77383" lon="4.28577">
        <ele>1365.24</ele>
        <time>2021-05-23T10:10:40.417Z</time>
      </trkpt>
      <trkpt lat="44.77378" lon="4.28578">
        <ele>1364.55</ele>
        <time>2021-05-23T10:10:58.000Z</time>
      </trkpt>
      <trkpt lat="44.77377" lon="4.28574">
        <ele>1364.45</ele>
        <time>2021-05-23T10:11:19.000Z</time>
      </trkpt>
      <trkpt lat="44.77376" lon="4.28575">
        <ele>1364.33</ele>
        <time>2021-05-23T10:11:28.110Z</time>
      </trkpt>
      <trkpt lat="44.77368" lon="4.28577">
        <ele>1363.34</ele>
        <time>2021-05-23T10:11:37.370Z</time>
      </trkpt>
      <trkpt lat="44.77354" lon="4.28582">
        <ele>1361.55</ele>
        <time>2021-05-23T10:11:47.218Z</time>
      </trkpt>
      <trkpt lat="44.77345" lon="4.28577">
        <ele>1360.39</ele>
        <time>2021-05-23T10:11:57.238Z</time>
      </trkpt>
      <trkpt lat="44.77337" lon="4.28572">
        <ele>1359.44</ele>
        <time>2021-05-23T10:12:06.698Z</time>
      </trkpt>
      <trkpt lat="44.77332" lon="4.28566">
        <ele>1358.78</ele>
        <time>2021-05-23T10:12:22.016Z</time>
      </trkpt>
      <trkpt lat="44.77326" lon="4.2856">
        <ele>1358.03</ele>
        <time>2021-05-23T10:12:31.216Z</time>
      </trkpt>
      <trkpt lat="44.77313" lon="4.2855">
        <ele>1356.5</ele>
        <time>2021-05-23T10:12:41.194Z</time>
      </trkpt>
      <trkpt lat="44.77295" lon="4.28525">
        <ele>1354.2</ele>
        <time>2021-05-23T10:12:50.711Z</time>
      </trkpt>
      <trkpt lat="44.77288" lon="4.28508">
        <ele>1353.17</ele>
        <time>2021-05-23T10:13:00.130Z</time>
      </trkpt>
      <trkpt lat="44.77284" lon="4.28493">
        <ele>1352.49</ele>
        <time>2021-05-23T10:13:09.316Z</time>
      </trkpt>
      <trkpt lat="44.77282" lon="4.28477">
        <ele>1352.08</ele>
        <time>2021-05-23T10:13:18.800Z</time>
      </trkpt>
      <trkpt lat="44.77274" lon="4.28462">
        <ele>1350.97</ele>
        <time>2021-05-23T10:13:28.000Z</time>
      </trkpt>
      <trkpt lat="44.77265" lon="4.28452">
        <ele>1349.74</ele>
        <time>2021-05-23T10:13:38.094Z</time>
      </trkpt>
      <trkpt lat="44.77256" lon="4.28443">
        <ele>1348.41</ele>
        <time>2021-05-23T10:13:47.469Z</time>
      </trkpt>
      <trkpt lat="44.77243" lon="4.28436">
        <ele>1346.6</ele>
        <time>2021-05-23T10:13:57.249Z</time>
      </trkpt>
      <trkpt lat="44.77232" lon="4.2843">
        <ele>1344.97</ele>
        <time>2021-05-23T10:14:07.007Z</time>
      </trkpt>
      <trkpt lat="44.77222" lon="4.28426">
        <ele>1343.55</ele>
        <time>2021-05-23T10:14:16.043Z</time>
      </trkpt>
      <trkpt lat="44.77214" lon="4.28419">
        <ele>1342.38</ele>
        <time>2021-05-23T10:14:25.454Z</time>
      </trkpt>
      <trkpt lat="44.77202" lon="4.28411">
        <ele>1340.74</ele>
        <time>2021-05-23T10:14:35.374Z</time>
      </trkpt>
      <trkpt lat="44.77193" lon="4.28404">
        <ele>1339.35</ele>
        <time>2021-05-23T10:14:44.821Z</time>
      </trkpt>
      <trkpt lat="44.77183" lon="4.28398">
        <ele>1338</ele>
        <time>2021-05-23T10:14:54.098Z</time>
      </trkpt>
      <trkpt lat="44.77172" lon="4.2839">
        <ele>1336.45</ele>
        <time>2021-05-23T10:15:03.453Z</time>
      </trkpt>
      <trkpt lat="44.77164" lon="4.28377">
        <ele>1335.26</ele>
        <time>2021-05-23T10:15:12.996Z</time>
      </trkpt>
      <trkpt lat="44.77156" lon="4.28368">
        <ele>1334.1</ele>
        <time>2021-05-23T10:15:22.000Z</time>
      </trkpt>
      <trkpt lat="44.77156" lon="4.28372">
        <ele>1334.14</ele>
        <time>2021-05-23T10:15:32.000Z</time>
      </trkpt>
      <trkpt lat="44.77157" lon="4.28372">
        <ele>1334.32</ele>
        <time>2021-05-23T10:17:02.000Z</time>
      </trkpt>
      <trkpt lat="44.77157" lon="4.28371">
        <ele>1334.2</ele>
        <time>2021-05-23T10:17:14.000Z</time>
      </trkpt>
      <trkpt lat="44.77154" lon="4.28366">
        <ele>1333.76</ele>
        <time>2021-05-23T10:17:23.970Z</time>
      </trkpt>
      <trkpt lat="44.77149" lon="4.28363">
        <ele>1333.08</ele>
        <time>2021-05-23T10:17:47.476Z</time>
      </trkpt>
      <trkpt lat="44.77146" lon="4.28365">
        <ele>1332.78</ele>
        <time>2021-05-23T10:18:13.999Z</time>
      </trkpt>
      <trkpt lat="44.77144" lon="4.28367">
        <ele>1332.5</ele>
        <time>2021-05-23T10:21:24.999Z</time>
      </trkpt>
      <trkpt lat="44.77143" lon="4.28359">
        <ele>1332.3</ele>
        <time>2021-05-23T10:24:44.999Z</time>
      </trkpt>
      <trkpt lat="44.77144" lon="4.28358">
        <ele>1332.3</ele>
        <time>2021-05-23T10:25:51.999Z</time>
      </trkpt>
      <trkpt lat="44.77143" lon="4.28357">
        <ele>1332.17</ele>
        <time>2021-05-23T10:29:43.000Z</time>
      </trkpt>
      <trkpt lat="44.77135" lon="4.28355">
        <ele>1331.21</ele>
        <time>2021-05-23T10:29:52.354Z</time>
      </trkpt>
      <trkpt lat="44.77125" lon="4.28346">
        <ele>1329.58</ele>
        <time>2021-05-23T10:30:02.464Z</time>
      </trkpt>
      <trkpt lat="44.77115" lon="4.28336">
        <ele>1328.05</ele>
        <time>2021-05-23T10:30:12.210Z</time>
      </trkpt>
      <trkpt lat="44.77109" lon="4.28324">
        <ele>1326.71</ele>
        <time>2021-05-23T10:30:21.273Z</time>
      </trkpt>
      <trkpt lat="44.771" lon="4.28308">
        <ele>1324.79</ele>
        <time>2021-05-23T10:30:31.418Z</time>
      </trkpt>
      <trkpt lat="44.77092" lon="4.28292">
        <ele>1322.75</ele>
        <time>2021-05-23T10:30:41.234Z</time>
      </trkpt>
      <trkpt lat="44.77084" lon="4.28278">
        <ele>1320.77</ele>
        <time>2021-05-23T10:30:50.776Z</time>
      </trkpt>
      <trkpt lat="44.77079" lon="4.28263">
        <ele>1319.16</ele>
        <time>2021-05-23T10:31:00.115Z</time>
      </trkpt>
      <trkpt lat="44.77076" lon="4.28247">
        <ele>1317.8</ele>
        <time>2021-05-23T10:31:09.298Z</time>
      </trkpt>
      <trkpt lat="44.7707" lon="4.28235">
        <ele>1316.2</ele>
        <time>2021-05-23T10:31:19.193Z</time>
      </trkpt>
      <trkpt lat="44.77064" lon="4.28226">
        <ele>1314.91</ele>
        <time>2021-05-23T10:31:28.774Z</time>
      </trkpt>
      <trkpt lat="44.7706" lon="4.28219">
        <ele>1313.92</ele>
        <time>2021-05-23T10:31:38.451Z</time>
      </trkpt>
      <trkpt lat="44.77051" lon="4.28207">
        <ele>1312.25</ele>
        <time>2021-05-23T10:31:47.669Z</time>
      </trkpt>
      <trkpt lat="44.77042" lon="4.28198">
        <ele>1310.84</ele>
        <time>2021-05-23T10:31:57.009Z</time>
      </trkpt>
      <trkpt lat="44.77033" lon="4.28184">
        <ele>1309.33</ele>
        <time>2021-05-23T10:32:07.201Z</time>
      </trkpt>
      <trkpt lat="44.77026" lon="4.28177">
        <ele>1308.21</ele>
        <time>2021-05-23T10:32:16.315Z</time>
      </trkpt>
      <trkpt lat="44.77018" lon="4.28169">
        <ele>1306.96</ele>
        <time>2021-05-23T10:32:25.401Z</time>
      </trkpt>
      <trkpt lat="44.7701" lon="4.28163">
        <ele>1305.63</ele>
        <time>2021-05-23T10:32:35.076Z</time>
      </trkpt>
      <trkpt lat="44.77" lon="4.28156">
        <ele>1304</ele>
        <time>2021-05-23T10:32:44.115Z</time>
      </trkpt>
      <trkpt lat="44.7699" lon="4.2815">
        <ele>1302.11</ele>
        <time>2021-05-23T10:32:53.475Z</time>
      </trkpt>
      <trkpt lat="44.76981" lon="4.28142">
        <ele>1300.27</ele>
        <time>2021-05-23T10:33:02.814Z</time>
      </trkpt>
      <trkpt lat="44.76972" lon="4.28129">
        <ele>1298.42</ele>
        <time>2021-05-23T10:33:12.375Z</time>
      </trkpt>
      <trkpt lat="44.76965" lon="4.28123">
        <ele>1296.79</ele>
        <time>2021-05-23T10:33:21.392Z</time>
      </trkpt>
      <trkpt lat="44.76957" lon="4.28118">
        <ele>1295.06</ele>
        <time>2021-05-23T10:33:31.402Z</time>
      </trkpt>
      <trkpt lat="44.76949" lon="4.28113">
        <ele>1293.07</ele>
        <time>2021-05-23T10:33:40.416Z</time>
      </trkpt>
      <trkpt lat="44.7694" lon="4.2811">
        <ele>1291.06</ele>
        <time>2021-05-23T10:33:49.471Z</time>
      </trkpt>
      <trkpt lat="44.76931" lon="4.28106">
        <ele>1289.37</ele>
        <time>2021-05-23T10:33:58.994Z</time>
      </trkpt>
      <trkpt lat="44.76921" lon="4.28097">
        <ele>1287.7</ele>
        <time>2021-05-23T10:34:08.456Z</time>
      </trkpt>
      <trkpt lat="44.76912" lon="4.28089">
        <ele>1286.38</ele>
        <time>2021-05-23T10:34:18.410Z</time>
      </trkpt>
      <trkpt lat="44.76901" lon="4.28084">
        <ele>1285.04</ele>
        <time>2021-05-23T10:34:28.074Z</time>
      </trkpt>
      <trkpt lat="44.76891" lon="4.28074">
        <ele>1284.02</ele>
        <time>2021-05-23T10:34:38.210Z</time>
      </trkpt>
      <trkpt lat="44.76882" lon="4.28067">
        <ele>1283.34</ele>
        <time>2021-05-23T10:34:48.000Z</time>
      </trkpt>
      <trkpt lat="44.76876" lon="4.28063">
        <ele>1283.06</ele>
        <time>2021-05-23T10:34:57.277Z</time>
      </trkpt>
      <trkpt lat="44.76867" lon="4.28056">
        <ele>1282.73</ele>
        <time>2021-05-23T10:35:07.178Z</time>
      </trkpt>
      <trkpt lat="44.76859" lon="4.28046">
        <ele>1282.68</ele>
        <time>2021-05-23T10:35:16.718Z</time>
      </trkpt>
      <trkpt lat="44.76851" lon="4.28038">
        <ele>1282.68</ele>
        <time>2021-05-23T10:35:25.897Z</time>
      </trkpt>
      <trkpt lat="44.76842" lon="4.28032">
        <ele>1282.54</ele>
        <time>2021-05-23T10:35:35.037Z</time>
      </trkpt>
      <trkpt lat="44.76832" lon="4.28025">
        <ele>1282.21</ele>
        <time>2021-05-23T10:35:44.215Z</time>
      </trkpt>
      <trkpt lat="44.76823" lon="4.28014">
        <ele>1281.81</ele>
        <time>2021-05-23T10:35:53.533Z</time>
      </trkpt>
      <trkpt lat="44.76816" lon="4.28001">
        <ele>1281.26</ele>
        <time>2021-05-23T10:36:02.994Z</time>
      </trkpt>
      <trkpt lat="44.76809" lon="4.27988">
        <ele>1280.4</ele>
        <time>2021-05-23T10:36:12.009Z</time>
      </trkpt>
      <trkpt lat="44.76801" lon="4.27978">
        <ele>1279.54</ele>
        <time>2021-05-23T10:36:21.140Z</time>
      </trkpt>
      <trkpt lat="44.76796" lon="4.27965">
        <ele>1278.43</ele>
        <time>2021-05-23T10:36:31.217Z</time>
      </trkpt>
      <trkpt lat="44.7679" lon="4.27953">
        <ele>1277.41</ele>
        <time>2021-05-23T10:36:40.408Z</time>
      </trkpt>
      <trkpt lat="44.76782" lon="4.27944">
        <ele>1276.68</ele>
        <time>2021-05-23T10:36:49.480Z</time>
      </trkpt>
      <trkpt lat="44.76775" lon="4.27937">
        <ele>1276.22</ele>
        <time>2021-05-23T10:36:58.536Z</time>
      </trkpt>
      <trkpt lat="44.76767" lon="4.27927">
        <ele>1275.79</ele>
        <time>2021-05-23T10:37:07.836Z</time>
      </trkpt>
      <trkpt lat="44.76759" lon="4.2792">
        <ele>1275.71</ele>
        <time>2021-05-23T10:37:17.000Z</time>
      </trkpt>
      <trkpt lat="44.76748" lon="4.27925">
        <ele>1276.31</ele>
        <time>2021-05-23T10:37:26.472Z</time>
      </trkpt>
      <trkpt lat="44.76741" lon="4.27927">
        <ele>1276.44</ele>
        <time>2021-05-23T10:37:35.999Z</time>
      </trkpt>
      <trkpt lat="44.76743" lon="4.27924">
        <ele>1276.4</ele>
        <time>2021-05-23T10:37:57.282Z</time>
      </trkpt>
      <trkpt lat="44.7674" lon="4.27923">
        <ele>1276.43</ele>
        <time>2021-05-23T10:38:06.476Z</time>
      </trkpt>
      <trkpt lat="44.76735" lon="4.27926">
        <ele>1276.44</ele>
        <time>2021-05-23T10:38:15.999Z</time>
      </trkpt>
      <trkpt lat="44.76735" lon="4.27927">
        <ele>1276.43</ele>
        <time>2021-05-23T10:38:27.999Z</time>
      </trkpt>
      <trkpt lat="44.76729" lon="4.27924">
        <ele>1276.42</ele>
        <time>2021-05-23T10:38:38.057Z</time>
      </trkpt>
      <trkpt lat="44.76722" lon="4.2792">
        <ele>1276.47</ele>
        <time>2021-05-23T10:38:47.492Z</time>
      </trkpt>
      <trkpt lat="44.76712" lon="4.27918">
        <ele>1276.43</ele>
        <time>2021-05-23T10:38:57.175Z</time>
      </trkpt>
      <trkpt lat="44.76707" lon="4.27916">
        <ele>1276.51</ele>
        <time>2021-05-23T10:39:06.999Z</time>
      </trkpt>
      <trkpt lat="44.76707" lon="4.27914">
        <ele>1276.66</ele>
        <time>2021-05-23T10:39:16.234Z</time>
      </trkpt>
      <trkpt lat="44.76701" lon="4.27899">
        <ele>1277.64</ele>
        <time>2021-05-23T10:39:25.397Z</time>
      </trkpt>
      <trkpt lat="44.76692" lon="4.27888">
        <ele>1278.77</ele>
        <time>2021-05-23T10:39:34.999Z</time>
      </trkpt>
      <trkpt lat="44.76691" lon="4.27887">
        <ele>1278.91</ele>
        <time>2021-05-23T10:39:51.377Z</time>
      </trkpt>
      <trkpt lat="44.76689" lon="4.27872">
        <ele>1280.15</ele>
        <time>2021-05-23T10:40:01.356Z</time>
      </trkpt>
      <trkpt lat="44.76684" lon="4.2786">
        <ele>1281.65</ele>
        <time>2021-05-23T10:40:11.275Z</time>
      </trkpt>
      <trkpt lat="44.76675" lon="4.27854">
        <ele>1283.58</ele>
        <time>2021-05-23T10:40:21.373Z</time>
      </trkpt>
      <trkpt lat="44.76667" lon="4.27849">
        <ele>1285.29</ele>
        <time>2021-05-23T10:40:30.793Z</time>
      </trkpt>
      <trkpt lat="44.7666" lon="4.27849">
        <ele>1286.43</ele>
        <time>2021-05-23T10:40:39.999Z</time>
      </trkpt>
      <trkpt lat="44.76653" lon="4.27848">
        <ele>1287.75</ele>
        <time>2021-05-23T10:40:49.032Z</time>
      </trkpt>
      <trkpt lat="44.76646" lon="4.27846">
        <ele>1289.08</ele>
        <time>2021-05-23T10:40:58.213Z</time>
      </trkpt>
      <trkpt lat="44.76638" lon="4.27844">
        <ele>1290.76</ele>
        <time>2021-05-23T10:41:07.329Z</time>
      </trkpt>
      <trkpt lat="44.76628" lon="4.27843">
        <ele>1292.43</ele>
        <time>2021-05-23T10:41:16.548Z</time>
      </trkpt>
      <trkpt lat="44.76618" lon="4.2784">
        <ele>1294.3</ele>
        <time>2021-05-23T10:41:25.929Z</time>
      </trkpt>
      <trkpt lat="44.76608" lon="4.27843">
        <ele>1295.39</ele>
        <time>2021-05-23T10:41:35.280Z</time>
      </trkpt>
      <trkpt lat="44.76597" lon="4.27845">
        <ele>1296.62</ele>
        <time>2021-05-23T10:41:44.537Z</time>
      </trkpt>
      <trkpt lat="44.76593" lon="4.27845">
        <ele>1297.04</ele>
        <time>2021-05-23T10:41:53.999Z</time>
      </trkpt>
      <trkpt lat="44.76596" lon="4.27846">
        <ele>1296.61</ele>
        <time>2021-05-23T10:42:23.370Z</time>
      </trkpt>
      <trkpt lat="44.76585" lon="4.27848">
        <ele>1297.52</ele>
        <time>2021-05-23T10:42:32.972Z</time>
      </trkpt>
      <trkpt lat="44.76577" lon="4.27848">
        <ele>1298.22</ele>
        <time>2021-05-23T10:42:42.113Z</time>
      </trkpt>
      <trkpt lat="44.76569" lon="4.27851">
        <ele>1298.5</ele>
        <time>2021-05-23T10:42:52.305Z</time>
      </trkpt>
      <trkpt lat="44.7656" lon="4.27851">
        <ele>1299.18</ele>
        <time>2021-05-23T10:43:02.038Z</time>
      </trkpt>
      <trkpt lat="44.76554" lon="4.27852">
        <ele>1299.34</ele>
        <time>2021-05-23T10:43:11.999Z</time>
      </trkpt>
      <trkpt lat="44.76554" lon="4.27854">
        <ele>1299.18</ele>
        <time>2021-05-23T10:43:25.854Z</time>
      </trkpt>
      <trkpt lat="44.7655" lon="4.27854">
        <ele>1299.41</ele>
        <time>2021-05-23T10:43:34.999Z</time>
      </trkpt>
      <trkpt lat="44.76542" lon="4.27851">
        <ele>1300.11</ele>
        <time>2021-05-23T10:43:44.490Z</time>
      </trkpt>
      <trkpt lat="44.76534" lon="4.27851">
        <ele>1300.38</ele>
        <time>2021-05-23T10:43:53.851Z</time>
      </trkpt>
      <trkpt lat="44.76528" lon="4.27859">
        <ele>1299.79</ele>
        <time>2021-05-23T10:44:03.191Z</time>
      </trkpt>
      <trkpt lat="44.76522" lon="4.27864">
        <ele>1299.55</ele>
        <time>2021-05-23T10:44:12.999Z</time>
      </trkpt>
      <trkpt lat="44.76516" lon="4.27867">
        <ele>1299.35</ele>
        <time>2021-05-23T10:44:22.231Z</time>
      </trkpt>
      <trkpt lat="44.76505" lon="4.27871">
        <ele>1299.37</ele>
        <time>2021-05-23T10:44:31.628Z</time>
      </trkpt>
      <trkpt lat="44.76496" lon="4.27876">
        <ele>1299.21</ele>
        <time>2021-05-23T10:44:41.220Z</time>
      </trkpt>
      <trkpt lat="44.76487" lon="4.27883">
        <ele>1298.8</ele>
        <time>2021-05-23T10:44:50.798Z</time>
      </trkpt>
      <trkpt lat="44.76476" lon="4.27889">
        <ele>1298.76</ele>
        <time>2021-05-23T10:44:59.998Z</time>
      </trkpt>
      <trkpt lat="44.76465" lon="4.27895">
        <ele>1298.9</ele>
        <time>2021-05-23T10:45:09.176Z</time>
      </trkpt>
      <trkpt lat="44.76455" lon="4.27904">
        <ele>1298.91</ele>
        <time>2021-05-23T10:45:19.198Z</time>
      </trkpt>
      <trkpt lat="44.76447" lon="4.27915">
        <ele>1298.74</ele>
        <time>2021-05-23T10:45:28.611Z</time>
      </trkpt>
      <trkpt lat="44.76437" lon="4.27919">
        <ele>1299.33</ele>
        <time>2021-05-23T10:45:37.629Z</time>
      </trkpt>
      <trkpt lat="44.76428" lon="4.27923">
        <ele>1299.76</ele>
        <time>2021-05-23T10:45:47.191Z</time>
      </trkpt>
      <trkpt lat="44.76419" lon="4.2793">
        <ele>1299.83</ele>
        <time>2021-05-23T10:45:56.509Z</time>
      </trkpt>
      <trkpt lat="44.76409" lon="4.27936">
        <ele>1299.77</ele>
        <time>2021-05-23T10:46:05.831Z</time>
      </trkpt>
      <trkpt lat="44.764" lon="4.27943">
        <ele>1299.55</ele>
        <time>2021-05-23T10:46:15.051Z</time>
      </trkpt>
      <trkpt lat="44.76395" lon="4.27954">
        <ele>1298.34</ele>
        <time>2021-05-23T10:46:24.336Z</time>
      </trkpt>
      <trkpt lat="44.76388" lon="4.27962">
        <ele>1297.78</ele>
        <time>2021-05-23T10:46:33.478Z</time>
      </trkpt>
      <trkpt lat="44.7638" lon="4.27969">
        <ele>1297.54</ele>
        <time>2021-05-23T10:46:42.975Z</time>
      </trkpt>
      <trkpt lat="44.76372" lon="4.27978">
        <ele>1296.98</ele>
        <time>2021-05-23T10:46:52.072Z</time>
      </trkpt>
      <trkpt lat="44.76364" lon="4.27986">
        <ele>1296.86</ele>
        <time>2021-05-23T10:47:01.173Z</time>
      </trkpt>
      <trkpt lat="44.76355" lon="4.27989">
        <ele>1297.53</ele>
        <time>2021-05-23T10:47:10.410Z</time>
      </trkpt>
      <trkpt lat="44.76345" lon="4.27991">
        <ele>1298.45</ele>
        <time>2021-05-23T10:47:19.993Z</time>
      </trkpt>
      <trkpt lat="44.76336" lon="4.2799">
        <ele>1299.63</ele>
        <time>2021-05-23T10:47:29.128Z</time>
      </trkpt>
      <trkpt lat="44.76325" lon="4.27995">
        <ele>1300.39</ele>
        <time>2021-05-23T10:47:38.198Z</time>
      </trkpt>
      <trkpt lat="44.76318" lon="4.27994">
        <ele>1301.18</ele>
        <time>2021-05-23T10:47:47.261Z</time>
      </trkpt>
      <trkpt lat="44.76317" lon="4.27986">
        <ele>1301.89</ele>
        <time>2021-05-23T10:47:57.474Z</time>
      </trkpt>
      <trkpt lat="44.76316" lon="4.27984">
        <ele>1302.13</ele>
        <time>2021-05-23T10:48:25.000Z</time>
      </trkpt>
      <trkpt lat="44.76313" lon="4.2798">
        <ele>1302.52</ele>
        <time>2021-05-23T10:48:34.373Z</time>
      </trkpt>
      <trkpt lat="44.7631" lon="4.27975">
        <ele>1303.11</ele>
        <time>2021-05-23T10:48:51.000Z</time>
      </trkpt>
      <trkpt lat="44.76308" lon="4.27976">
        <ele>1303.21</ele>
        <time>2021-05-23T10:49:11.279Z</time>
      </trkpt>
      <trkpt lat="44.76313" lon="4.27985">
        <ele>1302.31</ele>
        <time>2021-05-23T10:49:21.000Z</time>
      </trkpt>
      <trkpt lat="44.76313" lon="4.27986">
        <ele>1302.21</ele>
        <time>2021-05-23T10:49:49.000Z</time>
      </trkpt>
      <trkpt lat="44.76289" lon="4.28015">
        <ele>1303.02</ele>
        <time>2021-05-23T11:46:32.434Z</time>
      </trkpt>
      <trkpt lat="44.76282" lon="4.28019">
        <ele>1303.65</ele>
        <time>2021-05-23T11:46:42.353Z</time>
      </trkpt>
      <trkpt lat="44.76271" lon="4.28022">
        <ele>1304.82</ele>
        <time>2021-05-23T11:46:51.494Z</time>
      </trkpt>
      <trkpt lat="44.76257" lon="4.28026">
        <ele>1306.39</ele>
        <time>2021-05-23T11:47:00.890Z</time>
      </trkpt>
      <trkpt lat="44.76244" lon="4.28028">
        <ele>1308.01</ele>
        <time>2021-05-23T11:47:10.172Z</time>
      </trkpt>
      <trkpt lat="44.76234" lon="4.28024">
        <ele>1309.53</ele>
        <time>2021-05-23T11:47:20.089Z</time>
      </trkpt>
      <trkpt lat="44.76224" lon="4.2802">
        <ele>1311.01</ele>
        <time>2021-05-23T11:47:29.348Z</time>
      </trkpt>
      <trkpt lat="44.76214" lon="4.28024">
        <ele>1312.36</ele>
        <time>2021-05-23T11:47:38.607Z</time>
      </trkpt>
      <trkpt lat="44.76202" lon="4.28031">
        <ele>1313.81</ele>
        <time>2021-05-23T11:47:47.858Z</time>
      </trkpt>
      <trkpt lat="44.76192" lon="4.28035">
        <ele>1315.18</ele>
        <time>2021-05-23T11:47:57.000Z</time>
      </trkpt>
      <trkpt lat="44.76182" lon="4.28037">
        <ele>1316.31</ele>
        <time>2021-05-23T11:48:06.449Z</time>
      </trkpt>
      <trkpt lat="44.76173" lon="4.28035">
        <ele>1317.38</ele>
        <time>2021-05-23T11:48:16.334Z</time>
      </trkpt>
      <trkpt lat="44.76163" lon="4.28039">
        <ele>1318.29</ele>
        <time>2021-05-23T11:48:26.276Z</time>
      </trkpt>
      <trkpt lat="44.76155" lon="4.28044">
        <ele>1319.24</ele>
        <time>2021-05-23T11:48:36.372Z</time>
      </trkpt>
      <trkpt lat="44.76145" lon="4.28049">
        <ele>1320.41</ele>
        <time>2021-05-23T11:48:46.000Z</time>
      </trkpt>
      <trkpt lat="44.76139" lon="4.28059">
        <ele>1321.17</ele>
        <time>2021-05-23T11:48:55.258Z</time>
      </trkpt>
      <trkpt lat="44.76129" lon="4.28069">
        <ele>1322.47</ele>
        <time>2021-05-23T11:49:05.257Z</time>
      </trkpt>
      <trkpt lat="44.76118" lon="4.28069">
        <ele>1323.89</ele>
        <time>2021-05-23T11:49:14.514Z</time>
      </trkpt>
      <trkpt lat="44.76109" lon="4.28077">
        <ele>1324.9</ele>
        <time>2021-05-23T11:49:24.194Z</time>
      </trkpt>
      <trkpt lat="44.76102" lon="4.2809">
        <ele>1325.28</ele>
        <time>2021-05-23T11:49:33.213Z</time>
      </trkpt>
      <trkpt lat="44.76096" lon="4.28104">
        <ele>1325.2</ele>
        <time>2021-05-23T11:49:43.051Z</time>
      </trkpt>
      <trkpt lat="44.76088" lon="4.28114">
        <ele>1325.1</ele>
        <time>2021-05-23T11:49:52.570Z</time>
      </trkpt>
      <trkpt lat="44.76077" lon="4.2812">
        <ele>1324.99</ele>
        <time>2021-05-23T11:50:01.710Z</time>
      </trkpt>
      <trkpt lat="44.76066" lon="4.28129">
        <ele>1324.63</ele>
        <time>2021-05-23T11:50:10.767Z</time>
      </trkpt>
      <trkpt lat="44.76056" lon="4.2814">
        <ele>1324.04</ele>
        <time>2021-05-23T11:50:20.000Z</time>
      </trkpt>
      <trkpt lat="44.76044" lon="4.28138">
        <ele>1324.16</ele>
        <time>2021-05-23T11:50:29.465Z</time>
      </trkpt>
      <trkpt lat="44.76032" lon="4.28128">
        <ele>1323.72</ele>
        <time>2021-05-23T11:50:39.101Z</time>
      </trkpt>
      <trkpt lat="44.7602" lon="4.28128">
        <ele>1322.21</ele>
        <time>2021-05-23T11:50:48.119Z</time>
      </trkpt>
      <trkpt lat="44.76008" lon="4.2813">
        <ele>1319.98</ele>
        <time>2021-05-23T11:50:57.375Z</time>
      </trkpt>
      <trkpt lat="44.75999" lon="4.28143">
        <ele>1318.44</ele>
        <time>2021-05-23T11:51:06.853Z</time>
      </trkpt>
      <trkpt lat="44.75992" lon="4.28155">
        <ele>1316.99</ele>
        <time>2021-05-23T11:51:16.273Z</time>
      </trkpt>
      <trkpt lat="44.75988" lon="4.2817">
        <ele>1316.33</ele>
        <time>2021-05-23T11:51:26.195Z</time>
      </trkpt>
      <trkpt lat="44.75984" lon="4.28183">
        <ele>1315.34</ele>
        <time>2021-05-23T11:51:36.000Z</time>
      </trkpt>
      <trkpt lat="44.75979" lon="4.28196">
        <ele>1313.78</ele>
        <time>2021-05-23T11:51:45.173Z</time>
      </trkpt>
      <trkpt lat="44.75971" lon="4.28208">
        <ele>1311.79</ele>
        <time>2021-05-23T11:51:54.416Z</time>
      </trkpt>
      <trkpt lat="44.75964" lon="4.28221">
        <ele>1309.9</ele>
        <time>2021-05-23T11:52:03.838Z</time>
      </trkpt>
      <trkpt lat="44.75955" lon="4.28234">
        <ele>1307.84</ele>
        <time>2021-05-23T11:52:13.000Z</time>
      </trkpt>
      <trkpt lat="44.75944" lon="4.28243">
        <ele>1305.46</ele>
        <time>2021-05-23T11:52:22.397Z</time>
      </trkpt>
      <trkpt lat="44.75935" lon="4.28257">
        <ele>1302.91</ele>
        <time>2021-05-23T11:52:32.075Z</time>
      </trkpt>
      <trkpt lat="44.75924" lon="4.28254">
        <ele>1301.26</ele>
        <time>2021-05-23T11:52:41.093Z</time>
      </trkpt>
      <trkpt lat="44.75913" lon="4.28263">
        <ele>1299</ele>
        <time>2021-05-23T11:52:50.396Z</time>
      </trkpt>
      <trkpt lat="44.75903" lon="4.28271">
        <ele>1296.75</ele>
        <time>2021-05-23T11:52:59.531Z</time>
      </trkpt>
      <trkpt lat="44.75892" lon="4.28277">
        <ele>1294.57</ele>
        <time>2021-05-23T11:53:09.402Z</time>
      </trkpt>
      <trkpt lat="44.75883" lon="4.2828">
        <ele>1293.12</ele>
        <time>2021-05-23T11:53:18.529Z</time>
      </trkpt>
      <trkpt lat="44.75871" lon="4.2829">
        <ele>1290.91</ele>
        <time>2021-05-23T11:53:27.549Z</time>
      </trkpt>
      <trkpt lat="44.7586" lon="4.28295">
        <ele>1289.31</ele>
        <time>2021-05-23T11:53:36.867Z</time>
      </trkpt>
      <trkpt lat="44.75846" lon="4.28296">
        <ele>1287.3</ele>
        <time>2021-05-23T11:53:46.000Z</time>
      </trkpt>
      <trkpt lat="44.75836" lon="4.28297">
        <ele>1285.52</ele>
        <time>2021-05-23T11:53:55.154Z</time>
      </trkpt>
      <trkpt lat="44.75827" lon="4.28304">
        <ele>1284.18</ele>
        <time>2021-05-23T11:54:05.240Z</time>
      </trkpt>
      <trkpt lat="44.75817" lon="4.28311">
        <ele>1282.63</ele>
        <time>2021-05-23T11:54:14.495Z</time>
      </trkpt>
      <trkpt lat="44.7581" lon="4.28323">
        <ele>1281.59</ele>
        <time>2021-05-23T11:54:24.403Z</time>
      </trkpt>
      <trkpt lat="44.75809" lon="4.2833">
        <ele>1281.22</ele>
        <time>2021-05-23T11:54:35.633Z</time>
      </trkpt>
      <trkpt lat="44.75801" lon="4.28339">
        <ele>1279.25</ele>
        <time>2021-05-23T11:54:44.835Z</time>
      </trkpt>
      <trkpt lat="44.75789" lon="4.28339">
        <ele>1277.35</ele>
        <time>2021-05-23T11:54:54.035Z</time>
      </trkpt>
      <trkpt lat="44.75782" lon="4.28339">
        <ele>1276.07</ele>
        <time>2021-05-23T11:55:03.189Z</time>
      </trkpt>
      <trkpt lat="44.75773" lon="4.28337">
        <ele>1274.38</ele>
        <time>2021-05-23T11:55:12.211Z</time>
      </trkpt>
      <trkpt lat="44.75761" lon="4.28346">
        <ele>1271.58</ele>
        <time>2021-05-23T11:55:22.000Z</time>
      </trkpt>
      <trkpt lat="44.75752" lon="4.28346">
        <ele>1269.58</ele>
        <time>2021-05-23T11:55:31.317Z</time>
      </trkpt>
      <trkpt lat="44.75747" lon="4.28344">
        <ele>1268.45</ele>
        <time>2021-05-23T11:55:41.471Z</time>
      </trkpt>
      <trkpt lat="44.75743" lon="4.28347">
        <ele>1267.37</ele>
        <time>2021-05-23T11:55:50.915Z</time>
      </trkpt>
      <trkpt lat="44.75735" lon="4.28356">
        <ele>1264.99</ele>
        <time>2021-05-23T11:56:00.294Z</time>
      </trkpt>
      <trkpt lat="44.75727" lon="4.28362">
        <ele>1262.7</ele>
        <time>2021-05-23T11:56:10.032Z</time>
      </trkpt>
      <trkpt lat="44.7572" lon="4.28366">
        <ele>1260.53</ele>
        <time>2021-05-23T11:56:20.493Z</time>
      </trkpt>
      <trkpt lat="44.75714" lon="4.28365">
        <ele>1258.63</ele>
        <time>2021-05-23T11:56:29.610Z</time>
      </trkpt>
      <trkpt lat="44.75709" lon="4.28362">
        <ele>1257.38</ele>
        <time>2021-05-23T11:56:39.170Z</time>
      </trkpt>
      <trkpt lat="44.75702" lon="4.28367">
        <ele>1254.92</ele>
        <time>2021-05-23T11:56:49.179Z</time>
      </trkpt>
      <trkpt lat="44.75694" lon="4.28373">
        <ele>1252.08</ele>
        <time>2021-05-23T11:56:58.559Z</time>
      </trkpt>
      <trkpt lat="44.75686" lon="4.2838">
        <ele>1248.83</ele>
        <time>2021-05-23T11:57:07.935Z</time>
      </trkpt>
      <trkpt lat="44.75681" lon="4.28388">
        <ele>1246.57</ele>
        <time>2021-05-23T11:57:17.134Z</time>
      </trkpt>
      <trkpt lat="44.75673" lon="4.28392">
        <ele>1243.77</ele>
        <time>2021-05-23T11:57:27.297Z</time>
      </trkpt>
      <trkpt lat="44.75665" lon="4.28397">
        <ele>1240.98</ele>
        <time>2021-05-23T11:57:37.216Z</time>
      </trkpt>
      <trkpt lat="44.75654" lon="4.28401">
        <ele>1237.66</ele>
        <time>2021-05-23T11:57:46.999Z</time>
      </trkpt>
      <trkpt lat="44.75648" lon="4.2841">
        <ele>1235.27</ele>
        <time>2021-05-23T11:57:56.090Z</time>
      </trkpt>
      <trkpt lat="44.75643" lon="4.28416">
        <ele>1233.33</ele>
        <time>2021-05-23T11:58:05.130Z</time>
      </trkpt>
      <trkpt lat="44.75638" lon="4.28421">
        <ele>1231.44</ele>
        <time>2021-05-23T11:58:14.332Z</time>
      </trkpt>
      <trkpt lat="44.7563" lon="4.28426">
        <ele>1229.06</ele>
        <time>2021-05-23T11:58:24.549Z</time>
      </trkpt>
      <trkpt lat="44.75634" lon="4.28428">
        <ele>1229.56</ele>
        <time>2021-05-23T11:58:57.872Z</time>
      </trkpt>
      <trkpt lat="44.75629" lon="4.28433">
        <ele>1227.72</ele>
        <time>2021-05-23T11:59:07.092Z</time>
      </trkpt>
      <trkpt lat="44.75617" lon="4.28435">
        <ele>1225.55</ele>
        <time>2021-05-23T11:59:16.394Z</time>
      </trkpt>
      <trkpt lat="44.75608" lon="4.28434">
        <ele>1224.16</ele>
        <time>2021-05-23T11:59:26.014Z</time>
      </trkpt>
      <trkpt lat="44.756" lon="4.28437">
        <ele>1222.38</ele>
        <time>2021-05-23T11:59:35.289Z</time>
      </trkpt>
      <trkpt lat="44.75587" lon="4.28439">
        <ele>1219.98</ele>
        <time>2021-05-23T11:59:44.638Z</time>
      </trkpt>
      <trkpt lat="44.75577" lon="4.28444">
        <ele>1217.49</ele>
        <time>2021-05-23T11:59:54.038Z</time>
      </trkpt>
      <trkpt lat="44.75571" lon="4.28453">
        <ele>1215.25</ele>
        <time>2021-05-23T12:00:03.256Z</time>
      </trkpt>
      <trkpt lat="44.75566" lon="4.28462">
        <ele>1213.43</ele>
        <time>2021-05-23T12:00:13.131Z</time>
      </trkpt>
      <trkpt lat="44.75563" lon="4.2847">
        <ele>1211.63</ele>
        <time>2021-05-23T12:00:22.638Z</time>
      </trkpt>
      <trkpt lat="44.75556" lon="4.28477">
        <ele>1209.27</ele>
        <time>2021-05-23T12:00:31.891Z</time>
      </trkpt>
      <trkpt lat="44.75551" lon="4.28484">
        <ele>1206.97</ele>
        <time>2021-05-23T12:00:40.892Z</time>
      </trkpt>
      <trkpt lat="44.75548" lon="4.28485">
        <ele>1206.26</ele>
        <time>2021-05-23T12:00:50.071Z</time>
      </trkpt>
      <trkpt lat="44.75543" lon="4.28485">
        <ele>1205.31</ele>
        <time>2021-05-23T12:00:59.250Z</time>
      </trkpt>
      <trkpt lat="44.75535" lon="4.2848">
        <ele>1204.37</ele>
        <time>2021-05-23T12:01:09.028Z</time>
      </trkpt>
      <trkpt lat="44.75525" lon="4.28478">
        <ele>1202.66</ele>
        <time>2021-05-23T12:01:18.532Z</time>
      </trkpt>
      <trkpt lat="44.75515" lon="4.28476">
        <ele>1200.93</ele>
        <time>2021-05-23T12:01:28.000Z</time>
      </trkpt>
      <trkpt lat="44.755" lon="4.28467">
        <ele>1198.79</ele>
        <time>2021-05-23T12:01:37.339Z</time>
      </trkpt>
      <trkpt lat="44.75496" lon="4.28461">
        <ele>1198.21</ele>
        <time>2021-05-23T12:01:47.474Z</time>
      </trkpt>
      <trkpt lat="44.75493" lon="4.28451">
        <ele>1197.46</ele>
        <time>2021-05-23T12:01:57.235Z</time>
      </trkpt>
      <trkpt lat="44.75493" lon="4.28443">
        <ele>1196.9</ele>
        <time>2021-05-23T12:02:07.469Z</time>
      </trkpt>
      <trkpt lat="44.75483" lon="4.28442">
        <ele>1194.88</ele>
        <time>2021-05-23T12:02:17.375Z</time>
      </trkpt>
      <trkpt lat="44.75477" lon="4.28442">
        <ele>1193.74</ele>
        <time>2021-05-23T12:02:26.692Z</time>
      </trkpt>
      <trkpt lat="44.75471" lon="4.2844">
        <ele>1192.52</ele>
        <time>2021-05-23T12:02:35.972Z</time>
      </trkpt>
      <trkpt lat="44.75459" lon="4.28441">
        <ele>1190.64</ele>
        <time>2021-05-23T12:02:45.550Z</time>
      </trkpt>
      <trkpt lat="44.75449" lon="4.28438">
        <ele>1188.71</ele>
        <time>2021-05-23T12:02:54.913Z</time>
      </trkpt>
      <trkpt lat="44.75439" lon="4.28435">
        <ele>1186.5</ele>
        <time>2021-05-23T12:03:04.398Z</time>
      </trkpt>
      <trkpt lat="44.7543" lon="4.28427">
        <ele>1183.05</ele>
        <time>2021-05-23T12:03:14.135Z</time>
      </trkpt>
      <trkpt lat="44.75422" lon="4.28424">
        <ele>1180.91</ele>
        <time>2021-05-23T12:03:23.335Z</time>
      </trkpt>
      <trkpt lat="44.75413" lon="4.28421">
        <ele>1178.54</ele>
        <time>2021-05-23T12:03:33.093Z</time>
      </trkpt>
      <trkpt lat="44.75401" lon="4.28428">
        <ele>1178.44</ele>
        <time>2021-05-23T12:03:43.212Z</time>
      </trkpt>
      <trkpt lat="44.75394" lon="4.28432">
        <ele>1178.53</ele>
        <time>2021-05-23T12:03:52.311Z</time>
      </trkpt>
      <trkpt lat="44.75382" lon="4.28435">
        <ele>1177.45</ele>
        <time>2021-05-23T12:04:02.270Z</time>
      </trkpt>
      <trkpt lat="44.75373" lon="4.28437">
        <ele>1176.73</ele>
        <time>2021-05-23T12:04:11.811Z</time>
      </trkpt>
      <trkpt lat="44.75363" lon="4.28436">
        <ele>1175.06</ele>
        <time>2021-05-23T12:04:20.889Z</time>
      </trkpt>
      <trkpt lat="44.7535" lon="4.28431">
        <ele>1171.36</ele>
        <time>2021-05-23T12:04:30.405Z</time>
      </trkpt>
      <trkpt lat="44.75343" lon="4.28431">
        <ele>1170.07</ele>
        <time>2021-05-23T12:04:39.515Z</time>
      </trkpt>
      <trkpt lat="44.75332" lon="4.28432">
        <ele>1168.25</ele>
        <time>2021-05-23T12:04:49.338Z</time>
      </trkpt>
      <trkpt lat="44.75323" lon="4.28433">
        <ele>1167.06</ele>
        <time>2021-05-23T12:04:58.573Z</time>
      </trkpt>
      <trkpt lat="44.75313" lon="4.28431">
        <ele>1164.06</ele>
        <time>2021-05-23T12:05:08.226Z</time>
      </trkpt>
      <trkpt lat="44.75304" lon="4.28429">
        <ele>1161.4</ele>
        <time>2021-05-23T12:05:17.835Z</time>
      </trkpt>
      <trkpt lat="44.75294" lon="4.28431">
        <ele>1159.61</ele>
        <time>2021-05-23T12:05:27.446Z</time>
      </trkpt>
      <trkpt lat="44.75284" lon="4.28429">
        <ele>1156.73</ele>
        <time>2021-05-23T12:05:36.633Z</time>
      </trkpt>
      <trkpt lat="44.75271" lon="4.28432">
        <ele>1154.64</ele>
        <time>2021-05-23T12:05:45.812Z</time>
      </trkpt>
      <trkpt lat="44.7526" lon="4.28432">
        <ele>1152.1</ele>
        <time>2021-05-23T12:05:55.453Z</time>
      </trkpt>
      <trkpt lat="44.75252" lon="4.28431">
        <ele>1150.52</ele>
        <time>2021-05-23T12:06:05.000Z</time>
      </trkpt>
      <trkpt lat="44.75254" lon="4.28432">
        <ele>1150.92</ele>
        <time>2021-05-23T12:06:17.000Z</time>
      </trkpt>
      <trkpt lat="44.75245" lon="4.28431">
        <ele>1148.85</ele>
        <time>2021-05-23T12:06:26.419Z</time>
      </trkpt>
      <trkpt lat="44.75235" lon="4.28434">
        <ele>1147.76</ele>
        <time>2021-05-23T12:06:36.175Z</time>
      </trkpt>
      <trkpt lat="44.75225" lon="4.28434">
        <ele>1145.65</ele>
        <time>2021-05-23T12:06:45.274Z</time>
      </trkpt>
      <trkpt lat="44.75213" lon="4.28431">
        <ele>1142.51</ele>
        <time>2021-05-23T12:06:55.312Z</time>
      </trkpt>
      <trkpt lat="44.75203" lon="4.28427">
        <ele>1139.28</ele>
        <time>2021-05-23T12:07:05.000Z</time>
      </trkpt>
      <trkpt lat="44.75194" lon="4.28427">
        <ele>1137.66</ele>
        <time>2021-05-23T12:07:14.481Z</time>
      </trkpt>
      <trkpt lat="44.75187" lon="4.2842">
        <ele>1134.87</ele>
        <time>2021-05-23T12:07:24.128Z</time>
      </trkpt>
      <trkpt lat="44.75179" lon="4.28417">
        <ele>1132.6</ele>
        <time>2021-05-23T12:07:33.308Z</time>
      </trkpt>
      <trkpt lat="44.75167" lon="4.2841">
        <ele>1129.33</ele>
        <time>2021-05-23T12:07:43.061Z</time>
      </trkpt>
      <trkpt lat="44.75156" lon="4.28411">
        <ele>1128.33</ele>
        <time>2021-05-23T12:07:52.468Z</time>
      </trkpt>
      <trkpt lat="44.75148" lon="4.28402">
        <ele>1125.07</ele>
        <time>2021-05-23T12:08:02.138Z</time>
      </trkpt>
      <trkpt lat="44.75141" lon="4.28393">
        <ele>1121.85</ele>
        <time>2021-05-23T12:08:11.256Z</time>
      </trkpt>
      <trkpt lat="44.75133" lon="4.28388">
        <ele>1119.87</ele>
        <time>2021-05-23T12:08:21.256Z</time>
      </trkpt>
      <trkpt lat="44.75124" lon="4.28383">
        <ele>1118.32</ele>
        <time>2021-05-23T12:08:31.116Z</time>
      </trkpt>
      <trkpt lat="44.75119" lon="4.28379">
        <ele>1117.19</ele>
        <time>2021-05-23T12:08:40.973Z</time>
      </trkpt>
      <trkpt lat="44.75111" lon="4.28366">
        <ele>1114</ele>
        <time>2021-05-23T12:08:50.458Z</time>
      </trkpt>
      <trkpt lat="44.75101" lon="4.28358">
        <ele>1113.13</ele>
        <time>2021-05-23T12:08:59.888Z</time>
      </trkpt>
      <trkpt lat="44.75093" lon="4.28354">
        <ele>1113.52</ele>
        <time>2021-05-23T12:09:08.956Z</time>
      </trkpt>
      <trkpt lat="44.75087" lon="4.28349">
        <ele>1113.57</ele>
        <time>2021-05-23T12:09:17.997Z</time>
      </trkpt>
      <trkpt lat="44.75081" lon="4.28341">
        <ele>1113.14</ele>
        <time>2021-05-23T12:09:27.196Z</time>
      </trkpt>
      <trkpt lat="44.75076" lon="4.28328">
        <ele>1112.25</ele>
        <time>2021-05-23T12:09:36.493Z</time>
      </trkpt>
      <trkpt lat="44.75075" lon="4.28315">
        <ele>1109.72</ele>
        <time>2021-05-23T12:09:51.171Z</time>
      </trkpt>
      <trkpt lat="44.75075" lon="4.28306">
        <ele>1107.81</ele>
        <time>2021-05-23T12:10:02.071Z</time>
      </trkpt>
      <trkpt lat="44.75079" lon="4.28307">
        <ele>1106.11</ele>
        <time>2021-05-23T12:10:13.008Z</time>
      </trkpt>
      <trkpt lat="44.75088" lon="4.28318">
        <ele>1106.01</ele>
        <time>2021-05-23T12:10:22.151Z</time>
      </trkpt>
      <trkpt lat="44.75095" lon="4.28324">
        <ele>1105.64</ele>
        <time>2021-05-23T12:10:31.383Z</time>
      </trkpt>
      <trkpt lat="44.75101" lon="4.28327">
        <ele>1104.63</ele>
        <time>2021-05-23T12:10:40.404Z</time>
      </trkpt>
      <trkpt lat="44.75108" lon="4.28328">
        <ele>1103.02</ele>
        <time>2021-05-23T12:10:50.000Z</time>
      </trkpt>
      <trkpt lat="44.75114" lon="4.28327">
        <ele>1101.44</ele>
        <time>2021-05-23T12:11:00.000Z</time>
      </trkpt>
      <trkpt lat="44.7512" lon="4.28323">
        <ele>1098.33</ele>
        <time>2021-05-23T12:11:34.000Z</time>
      </trkpt>
      <trkpt lat="44.75119" lon="4.28322">
        <ele>1098.18</ele>
        <time>2021-05-23T12:11:47.000Z</time>
      </trkpt>
      <trkpt lat="44.75117" lon="4.28319">
        <ele>1097.93</ele>
        <time>2021-05-23T12:11:58.000Z</time>
      </trkpt>
      <trkpt lat="44.7512" lon="4.28323">
        <ele>1098.47</ele>
        <time>2021-05-23T12:12:13.091Z</time>
      </trkpt>
      <trkpt lat="44.75127" lon="4.28324">
        <ele>1097.22</ele>
        <time>2021-05-23T12:12:22.918Z</time>
      </trkpt>
      <trkpt lat="44.75137" lon="4.28325">
        <ele>1095.77</ele>
        <time>2021-05-23T12:12:32.000Z</time>
      </trkpt>
      <trkpt lat="44.75142" lon="4.28318">
        <ele>1091.92</ele>
        <time>2021-05-23T12:12:45.000Z</time>
      </trkpt>
      <trkpt lat="44.75148" lon="4.28313">
        <ele>1088.87</ele>
        <time>2021-05-23T12:12:55.000Z</time>
      </trkpt>
      <trkpt lat="44.75149" lon="4.28317">
        <ele>1090.72</ele>
        <time>2021-05-23T12:13:17.000Z</time>
      </trkpt>
      <trkpt lat="44.75152" lon="4.28313">
        <ele>1088.47</ele>
        <time>2021-05-23T12:13:27.874Z</time>
      </trkpt>
      <trkpt lat="44.75158" lon="4.28314">
        <ele>1087.77</ele>
        <time>2021-05-23T12:13:39.291Z</time>
      </trkpt>
      <trkpt lat="44.75169" lon="4.28315">
        <ele>1087.53</ele>
        <time>2021-05-23T12:13:48.469Z</time>
      </trkpt>
      <trkpt lat="44.75177" lon="4.28312">
        <ele>1086.13</ele>
        <time>2021-05-23T12:13:57.488Z</time>
      </trkpt>
      <trkpt lat="44.75185" lon="4.28307">
        <ele>1083.74</ele>
        <time>2021-05-23T12:14:06.509Z</time>
      </trkpt>
      <trkpt lat="44.75201" lon="4.283">
        <ele>1081.27</ele>
        <time>2021-05-23T12:14:16.261Z</time>
      </trkpt>
      <trkpt lat="44.75212" lon="4.28295">
        <ele>1080.53</ele>
        <time>2021-05-23T12:14:25.466Z</time>
      </trkpt>
      <trkpt lat="44.75224" lon="4.28288">
        <ele>1078.81</ele>
        <time>2021-05-23T12:14:35.000Z</time>
      </trkpt>
      <trkpt lat="44.75233" lon="4.28271">
        <ele>1071.53</ele>
        <time>2021-05-23T12:14:44.337Z</time>
      </trkpt>
      <trkpt lat="44.75241" lon="4.28257">
        <ele>1065.99</ele>
        <time>2021-05-23T12:14:53.756Z</time>
      </trkpt>
      <trkpt lat="44.75252" lon="4.28255">
        <ele>1066.98</ele>
        <time>2021-05-23T12:15:03.011Z</time>
      </trkpt>
      <trkpt lat="44.75262" lon="4.28253">
        <ele>1067.46</ele>
        <time>2021-05-23T12:15:12.052Z</time>
      </trkpt>
      <trkpt lat="44.7527" lon="4.28242">
        <ele>1063.34</ele>
        <time>2021-05-23T12:15:21.109Z</time>
      </trkpt>
      <trkpt lat="44.75278" lon="4.28231">
        <ele>1059.52</ele>
        <time>2021-05-23T12:15:30.529Z</time>
      </trkpt>
      <trkpt lat="44.75286" lon="4.28223">
        <ele>1057.51</ele>
        <time>2021-05-23T12:15:39.997Z</time>
      </trkpt>
      <trkpt lat="44.7529" lon="4.28216">
        <ele>1054.64</ele>
        <time>2021-05-23T12:15:49.239Z</time>
      </trkpt>
      <trkpt lat="44.75292" lon="4.28209">
        <ele>1051.75</ele>
        <time>2021-05-23T12:15:58.360Z</time>
      </trkpt>
      <trkpt lat="44.75299" lon="4.28196">
        <ele>1046.67</ele>
        <time>2021-05-23T12:16:07.488Z</time>
      </trkpt>
      <trkpt lat="44.75309" lon="4.28189">
        <ele>1045.72</ele>
        <time>2021-05-23T12:16:16.955Z</time>
      </trkpt>
      <trkpt lat="44.7532" lon="4.28182">
        <ele>1044.45</ele>
        <time>2021-05-23T12:16:26.091Z</time>
      </trkpt>
      <trkpt lat="44.75331" lon="4.28177">
        <ele>1044.31</ele>
        <time>2021-05-23T12:16:35.353Z</time>
      </trkpt>
      <trkpt lat="44.75338" lon="4.2817">
        <ele>1042.34</ele>
        <time>2021-05-23T12:16:44.450Z</time>
      </trkpt>
      <trkpt lat="44.7535" lon="4.28159">
        <ele>1039.52</ele>
        <time>2021-05-23T12:16:53.490Z</time>
      </trkpt>
      <trkpt lat="44.75349" lon="4.28152">
        <ele>1035.8</ele>
        <time>2021-05-23T12:17:03.149Z</time>
      </trkpt>
      <trkpt lat="44.75333" lon="4.28147">
        <ele>1030.43</ele>
        <time>2021-05-23T12:17:12.250Z</time>
      </trkpt>
      <trkpt lat="44.75317" lon="4.28143">
        <ele>1025.24</ele>
        <time>2021-05-23T12:17:21.841Z</time>
      </trkpt>
      <trkpt lat="44.75304" lon="4.28144">
        <ele>1023.36</ele>
        <time>2021-05-23T12:17:30.959Z</time>
      </trkpt>
      <trkpt lat="44.75295" lon="4.2815">
        <ele>1024.33</ele>
        <time>2021-05-23T12:17:40.155Z</time>
      </trkpt>
      <trkpt lat="44.75289" lon="4.28154">
        <ele>1024.59</ele>
        <time>2021-05-23T12:17:49.459Z</time>
      </trkpt>
      <trkpt lat="44.75275" lon="4.28158">
        <ele>1024.59</ele>
        <time>2021-05-23T12:17:58.472Z</time>
      </trkpt>
      <trkpt lat="44.75268" lon="4.28161">
        <ele>1024.72</ele>
        <time>2021-05-23T12:18:07.894Z</time>
      </trkpt>
      <trkpt lat="44.75253" lon="4.28164">
        <ele>1025.17</ele>
        <time>2021-05-23T12:18:17.730Z</time>
      </trkpt>
      <trkpt lat="44.75244" lon="4.28161">
        <ele>1023.52</ele>
        <time>2021-05-23T12:18:27.014Z</time>
      </trkpt>
      <trkpt lat="44.75233" lon="4.28156">
        <ele>1021.9</ele>
        <time>2021-05-23T12:18:36.507Z</time>
      </trkpt>
      <trkpt lat="44.7522" lon="4.2816">
        <ele>1023.75</ele>
        <time>2021-05-23T12:18:46.118Z</time>
      </trkpt>
      <trkpt lat="44.75214" lon="4.28146">
        <ele>1020.02</ele>
        <time>2021-05-23T12:18:56.255Z</time>
      </trkpt>
      <trkpt lat="44.75214" lon="4.28132">
        <ele>1015.87</ele>
        <time>2021-05-23T12:19:06.216Z</time>
      </trkpt>
      <trkpt lat="44.75216" lon="4.28119">
        <ele>1011.59</ele>
        <time>2021-05-23T12:19:15.533Z</time>
      </trkpt>
      <trkpt lat="44.75218" lon="4.28103">
        <ele>1007.05</ele>
        <time>2021-05-23T12:19:25.233Z</time>
      </trkpt>
      <trkpt lat="44.7522" lon="4.28091">
        <ele>1003.22</ele>
        <time>2021-05-23T12:19:34.991Z</time>
      </trkpt>
      <trkpt lat="44.75222" lon="4.28071">
        <ele>997.75</ele>
        <time>2021-05-23T12:19:44.299Z</time>
      </trkpt>
      <trkpt lat="44.75224" lon="4.28052">
        <ele>992.56</ele>
        <time>2021-05-23T12:19:53.628Z</time>
      </trkpt>
      <trkpt lat="44.75226" lon="4.28035">
        <ele>988</ele>
        <time>2021-05-23T12:20:02.845Z</time>
      </trkpt>
      <trkpt lat="44.75229" lon="4.28017">
        <ele>983.53</ele>
        <time>2021-05-23T12:20:12.007Z</time>
      </trkpt>
      <trkpt lat="44.7523" lon="4.28005">
        <ele>980.78</ele>
        <time>2021-05-23T12:20:21.403Z</time>
      </trkpt>
      <trkpt lat="44.75233" lon="4.27992">
        <ele>977.74</ele>
        <time>2021-05-23T12:20:30.899Z</time>
      </trkpt>
      <trkpt lat="44.75235" lon="4.27985">
        <ele>976.01</ele>
        <time>2021-05-23T12:20:40.398Z</time>
      </trkpt>
      <trkpt lat="44.75237" lon="4.27971">
        <ele>973.55</ele>
        <time>2021-05-23T12:20:49.938Z</time>
      </trkpt>
      <trkpt lat="44.75239" lon="4.27951">
        <ele>971.46</ele>
        <time>2021-05-23T12:20:59.034Z</time>
      </trkpt>
      <trkpt lat="44.75241" lon="4.27938">
        <ele>969.43</ele>
        <time>2021-05-23T12:21:08.355Z</time>
      </trkpt>
      <trkpt lat="44.75243" lon="4.27923">
        <ele>967.6</ele>
        <time>2021-05-23T12:21:17.473Z</time>
      </trkpt>
      <trkpt lat="44.75246" lon="4.27904">
        <ele>964.29</ele>
        <time>2021-05-23T12:21:26.753Z</time>
      </trkpt>
      <trkpt lat="44.75248" lon="4.2789">
        <ele>961.54</ele>
        <time>2021-05-23T12:21:36.028Z</time>
      </trkpt>
      <trkpt lat="44.75248" lon="4.27877">
        <ele>959.98</ele>
        <time>2021-05-23T12:21:45.056Z</time>
      </trkpt>
      <trkpt lat="44.75248" lon="4.27866">
        <ele>958.78</ele>
        <time>2021-05-23T12:21:54.516Z</time>
      </trkpt>
      <trkpt lat="44.7525" lon="4.27859">
        <ele>957.05</ele>
        <time>2021-05-23T12:22:03.999Z</time>
      </trkpt>
      <trkpt lat="44.75251" lon="4.27854">
        <ele>955.92</ele>
        <time>2021-05-23T12:22:13.412Z</time>
      </trkpt>
      <trkpt lat="44.75255" lon="4.27843">
        <ele>952.93</ele>
        <time>2021-05-23T12:22:22.530Z</time>
      </trkpt>
      <trkpt lat="44.75257" lon="4.27831">
        <ele>950.61</ele>
        <time>2021-05-23T12:22:31.832Z</time>
      </trkpt>
      <trkpt lat="44.75259" lon="4.27823">
        <ele>948.83</ele>
        <time>2021-05-23T12:22:41.403Z</time>
      </trkpt>
      <trkpt lat="44.75263" lon="4.27808">
        <ele>945.27</ele>
        <time>2021-05-23T12:22:51.050Z</time>
      </trkpt>
      <trkpt lat="44.75267" lon="4.27789">
        <ele>941.26</ele>
        <time>2021-05-23T12:23:00.576Z</time>
      </trkpt>
      <trkpt lat="44.75271" lon="4.27777">
        <ele>937.88</ele>
        <time>2021-05-23T12:23:09.920Z</time>
      </trkpt>
      <trkpt lat="44.75273" lon="4.27765">
        <ele>935.58</ele>
        <time>2021-05-23T12:23:19.238Z</time>
      </trkpt>
      <trkpt lat="44.75272" lon="4.27757">
        <ele>934.6</ele>
        <time>2021-05-23T12:23:28.396Z</time>
      </trkpt>
      <trkpt lat="44.75277" lon="4.27746">
        <ele>931.01</ele>
        <time>2021-05-23T12:23:37.956Z</time>
      </trkpt>
      <trkpt lat="44.75281" lon="4.27732">
        <ele>927.04</ele>
        <time>2021-05-23T12:23:47.458Z</time>
      </trkpt>
      <trkpt lat="44.75284" lon="4.27721">
        <ele>923.78</ele>
        <time>2021-05-23T12:23:57.233Z</time>
      </trkpt>
      <trkpt lat="44.75285" lon="4.27713">
        <ele>922.07</ele>
        <time>2021-05-23T12:24:06.271Z</time>
      </trkpt>
      <trkpt lat="44.75285" lon="4.27703">
        <ele>920.69</ele>
        <time>2021-05-23T12:24:15.334Z</time>
      </trkpt>
      <trkpt lat="44.75284" lon="4.27697">
        <ele>920.51</ele>
        <time>2021-05-23T12:24:24.477Z</time>
      </trkpt>
      <trkpt lat="44.75285" lon="4.27689">
        <ele>918.92</ele>
        <time>2021-05-23T12:24:35.177Z</time>
      </trkpt>
      <trkpt lat="44.75287" lon="4.27671">
        <ele>914.94</ele>
        <time>2021-05-23T12:24:44.469Z</time>
      </trkpt>
      <trkpt lat="44.75289" lon="4.27657">
        <ele>911.48</ele>
        <time>2021-05-23T12:24:53.675Z</time>
      </trkpt>
      <trkpt lat="44.75293" lon="4.2764">
        <ele>906.51</ele>
        <time>2021-05-23T12:25:02.976Z</time>
      </trkpt>
      <trkpt lat="44.75298" lon="4.27624">
        <ele>900.9</ele>
        <time>2021-05-23T12:25:12.821Z</time>
      </trkpt>
      <trkpt lat="44.75297" lon="4.27608">
        <ele>898.13</ele>
        <time>2021-05-23T12:25:22.234Z</time>
      </trkpt>
      <trkpt lat="44.75296" lon="4.27596">
        <ele>896</ele>
        <time>2021-05-23T12:25:31.467Z</time>
      </trkpt>
      <trkpt lat="44.75294" lon="4.27577">
        <ele>892.22</ele>
        <time>2021-05-23T12:25:41.000Z</time>
      </trkpt>
      <trkpt lat="44.75295" lon="4.27563">
        <ele>888.28</ele>
        <time>2021-05-23T12:25:50.051Z</time>
      </trkpt>
      <trkpt lat="44.7529" lon="4.27552">
        <ele>886.96</ele>
        <time>2021-05-23T12:25:59.069Z</time>
      </trkpt>
      <trkpt lat="44.75281" lon="4.27546">
        <ele>888.55</ele>
        <time>2021-05-23T12:26:09.000Z</time>
      </trkpt>
      <trkpt lat="44.75273" lon="4.27543">
        <ele>890.32</ele>
        <time>2021-05-23T12:26:18.151Z</time>
      </trkpt>
      <trkpt lat="44.75269" lon="4.27537">
        <ele>890.2</ele>
        <time>2021-05-23T12:26:28.839Z</time>
      </trkpt>
      <trkpt lat="44.75256" lon="4.27532">
        <ele>893.22</ele>
        <time>2021-05-23T12:26:38.074Z</time>
      </trkpt>
      <trkpt lat="44.75245" lon="4.27526">
        <ele>894.91</ele>
        <time>2021-05-23T12:26:47.176Z</time>
      </trkpt>
      <trkpt lat="44.75234" lon="4.27509">
        <ele>893.83</ele>
        <time>2021-05-23T12:26:56.476Z</time>
      </trkpt>
      <trkpt lat="44.75225" lon="4.27492">
        <ele>893.45</ele>
        <time>2021-05-23T12:27:06.034Z</time>
      </trkpt>
      <trkpt lat="44.75217" lon="4.27482">
        <ele>894.56</ele>
        <time>2021-05-23T12:27:16.235Z</time>
      </trkpt>
      <trkpt lat="44.75216" lon="4.27474">
        <ele>894.03</ele>
        <time>2021-05-23T12:27:25.395Z</time>
      </trkpt>
      <trkpt lat="44.75217" lon="4.27465">
        <ele>892.42</ele>
        <time>2021-05-23T12:27:35.511Z</time>
      </trkpt>
      <trkpt lat="44.75219" lon="4.27457">
        <ele>890.61</ele>
        <time>2021-05-23T12:27:44.973Z</time>
      </trkpt>
      <trkpt lat="44.75227" lon="4.27443">
        <ele>885.54</ele>
        <time>2021-05-23T12:27:54.271Z</time>
      </trkpt>
      <trkpt lat="44.75235" lon="4.27428">
        <ele>880.52</ele>
        <time>2021-05-23T12:28:04.000Z</time>
      </trkpt>
      <trkpt lat="44.75233" lon="4.27426">
        <ele>881.1</ele>
        <time>2021-05-23T12:28:28.814Z</time>
      </trkpt>
      <trkpt lat="44.75241" lon="4.27417">
        <ele>876.36</ele>
        <time>2021-05-23T12:28:37.994Z</time>
      </trkpt>
      <trkpt lat="44.75248" lon="4.274">
        <ele>873.73</ele>
        <time>2021-05-23T12:28:47.372Z</time>
      </trkpt>
      <trkpt lat="44.75251" lon="4.27388">
        <ele>873.02</ele>
        <time>2021-05-23T12:28:57.272Z</time>
      </trkpt>
      <trkpt lat="44.75255" lon="4.27373">
        <ele>873.51</ele>
        <time>2021-05-23T12:29:07.150Z</time>
      </trkpt>
      <trkpt lat="44.75261" lon="4.27356">
        <ele>872.1</ele>
        <time>2021-05-23T12:29:17.000Z</time>
      </trkpt>
      <trkpt lat="44.75268" lon="4.27341">
        <ele>869.87</ele>
        <time>2021-05-23T12:29:26.279Z</time>
      </trkpt>
      <trkpt lat="44.75276" lon="4.27326">
        <ele>865.57</ele>
        <time>2021-05-23T12:29:35.359Z</time>
      </trkpt>
      <trkpt lat="44.75282" lon="4.27316">
        <ele>862.22</ele>
        <time>2021-05-23T12:29:44.816Z</time>
      </trkpt>
      <trkpt lat="44.75288" lon="4.27301">
        <ele>858.73</ele>
        <time>2021-05-23T12:29:54.517Z</time>
      </trkpt>
      <trkpt lat="44.75292" lon="4.27291">
        <ele>856.84</ele>
        <time>2021-05-23T12:30:04.155Z</time>
      </trkpt>
      <trkpt lat="44.75297" lon="4.27275">
        <ele>854.88</ele>
        <time>2021-05-23T12:30:14.029Z</time>
      </trkpt>
      <trkpt lat="44.753" lon="4.27259">
        <ele>853.55</ele>
        <time>2021-05-23T12:30:23.672Z</time>
      </trkpt>
      <trkpt lat="44.75303" lon="4.27247">
        <ele>852.33</ele>
        <time>2021-05-23T12:30:32.793Z</time>
      </trkpt>
      <trkpt lat="44.75305" lon="4.27229">
        <ele>850.36</ele>
        <time>2021-05-23T12:30:42.192Z</time>
      </trkpt>
      <trkpt lat="44.75309" lon="4.27213">
        <ele>847.37</ele>
        <time>2021-05-23T12:30:52.557Z</time>
      </trkpt>
      <trkpt lat="44.75315" lon="4.27196">
        <ele>843.19</ele>
        <time>2021-05-23T12:31:02.495Z</time>
      </trkpt>
      <trkpt lat="44.75323" lon="4.27177">
        <ele>838.76</ele>
        <time>2021-05-23T12:31:12.316Z</time>
      </trkpt>
      <trkpt lat="44.75327" lon="4.27162">
        <ele>836.45</ele>
        <time>2021-05-23T12:31:21.477Z</time>
      </trkpt>
      <trkpt lat="44.75323" lon="4.27148">
        <ele>838.52</ele>
        <time>2021-05-23T12:31:31.234Z</time>
      </trkpt>
      <trkpt lat="44.75317" lon="4.27137">
        <ele>841.14</ele>
        <time>2021-05-23T12:31:41.052Z</time>
      </trkpt>
      <trkpt lat="44.75319" lon="4.27125">
        <ele>840.95</ele>
        <time>2021-05-23T12:31:50.111Z</time>
      </trkpt>
      <trkpt lat="44.75323" lon="4.27114">
        <ele>839.48</ele>
        <time>2021-05-23T12:31:59.152Z</time>
      </trkpt>
      <trkpt lat="44.7533" lon="4.27103">
        <ele>836.69</ele>
        <time>2021-05-23T12:32:09.169Z</time>
      </trkpt>
      <trkpt lat="44.75338" lon="4.27091">
        <ele>833.1</ele>
        <time>2021-05-23T12:32:18.867Z</time>
      </trkpt>
      <trkpt lat="44.75348" lon="4.27082">
        <ele>828.98</ele>
        <time>2021-05-23T12:32:28.381Z</time>
      </trkpt>
      <trkpt lat="44.75355" lon="4.27064">
        <ele>826.67</ele>
        <time>2021-05-23T12:32:38.298Z</time>
      </trkpt>
      <trkpt lat="44.75365" lon="4.27047">
        <ele>823.56</ele>
        <time>2021-05-23T12:32:47.462Z</time>
      </trkpt>
      <trkpt lat="44.75372" lon="4.27035">
        <ele>821.21</ele>
        <time>2021-05-23T12:32:56.466Z</time>
      </trkpt>
      <trkpt lat="44.75382" lon="4.2702">
        <ele>817.57</ele>
        <time>2021-05-23T12:33:05.553Z</time>
      </trkpt>
      <trkpt lat="44.75388" lon="4.27007">
        <ele>815.91</ele>
        <time>2021-05-23T12:33:15.251Z</time>
      </trkpt>
      <trkpt lat="44.75391" lon="4.26999">
        <ele>815.1</ele>
        <time>2021-05-23T12:33:24.312Z</time>
      </trkpt>
      <trkpt lat="44.75396" lon="4.26987">
        <ele>813.99</ele>
        <time>2021-05-23T12:33:34.072Z</time>
      </trkpt>
      <trkpt lat="44.75406" lon="4.26977">
        <ele>810.64</ele>
        <time>2021-05-23T12:33:43.468Z</time>
      </trkpt>
      <trkpt lat="44.75415" lon="4.26973">
        <ele>807.14</ele>
        <time>2021-05-23T12:33:53.490Z</time>
      </trkpt>
      <trkpt lat="44.75423" lon="4.26965">
        <ele>804.48</ele>
        <time>2021-05-23T12:34:03.018Z</time>
      </trkpt>
      <trkpt lat="44.75429" lon="4.26959">
        <ele>802.08</ele>
        <time>2021-05-23T12:34:12.096Z</time>
      </trkpt>
      <trkpt lat="44.75443" lon="4.26948">
        <ele>795.72</ele>
        <time>2021-05-23T12:34:22.414Z</time>
      </trkpt>
      <trkpt lat="44.75455" lon="4.26933">
        <ele>789.98</ele>
        <time>2021-05-23T12:34:32.196Z</time>
      </trkpt>
      <trkpt lat="44.75466" lon="4.26916">
        <ele>784.98</ele>
        <time>2021-05-23T12:34:41.974Z</time>
      </trkpt>
      <trkpt lat="44.75473" lon="4.26898">
        <ele>782.89</ele>
        <time>2021-05-23T12:34:51.313Z</time>
      </trkpt>
      <trkpt lat="44.75476" lon="4.26881">
        <ele>782.39</ele>
        <time>2021-05-23T12:35:01.112Z</time>
      </trkpt>
      <trkpt lat="44.75481" lon="4.26865">
        <ele>781.3</ele>
        <time>2021-05-23T12:35:10.270Z</time>
      </trkpt>
      <trkpt lat="44.75486" lon="4.26849">
        <ele>779.45</ele>
        <time>2021-05-23T12:35:20.507Z</time>
      </trkpt>
      <trkpt lat="44.75492" lon="4.2683">
        <ele>777.59</ele>
        <time>2021-05-23T12:35:30.268Z</time>
      </trkpt>
      <trkpt lat="44.75495" lon="4.26814">
        <ele>776.61</ele>
        <time>2021-05-23T12:35:40.017Z</time>
      </trkpt>
      <trkpt lat="44.75503" lon="4.26799">
        <ele>773.43</ele>
        <time>2021-05-23T12:35:49.036Z</time>
      </trkpt>
      <trkpt lat="44.75508" lon="4.26788">
        <ele>770.87</ele>
        <time>2021-05-23T12:35:58.055Z</time>
      </trkpt>
      <trkpt lat="44.75512" lon="4.26773">
        <ele>769.05</ele>
        <time>2021-05-23T12:36:07.796Z</time>
      </trkpt>
      <trkpt lat="44.75518" lon="4.26758">
        <ele>765.45</ele>
        <time>2021-05-23T12:36:17.613Z</time>
      </trkpt>
      <trkpt lat="44.75523" lon="4.26743">
        <ele>761.78</ele>
        <time>2021-05-23T12:36:27.113Z</time>
      </trkpt>
      <trkpt lat="44.75529" lon="4.26729">
        <ele>756.71</ele>
        <time>2021-05-23T12:36:36.494Z</time>
      </trkpt>
      <trkpt lat="44.75531" lon="4.26716">
        <ele>754.58</ele>
        <time>2021-05-23T12:36:45.710Z</time>
      </trkpt>
      <trkpt lat="44.75533" lon="4.26701">
        <ele>752.45</ele>
        <time>2021-05-23T12:36:55.172Z</time>
      </trkpt>
      <trkpt lat="44.75536" lon="4.26685">
        <ele>749.02</ele>
        <time>2021-05-23T12:37:04.818Z</time>
      </trkpt>
      <trkpt lat="44.75538" lon="4.2667">
        <ele>745.89</ele>
        <time>2021-05-23T12:37:14.422Z</time>
      </trkpt>
      <trkpt lat="44.75538" lon="4.26656">
        <ele>743.3</ele>
        <time>2021-05-23T12:37:23.471Z</time>
      </trkpt>
      <trkpt lat="44.75541" lon="4.26639">
        <ele>738.35</ele>
        <time>2021-05-23T12:37:32.994Z</time>
      </trkpt>
      <trkpt lat="44.7554" lon="4.26623">
        <ele>734.75</ele>
        <time>2021-05-23T12:37:42.173Z</time>
      </trkpt>
      <trkpt lat="44.75531" lon="4.2661">
        <ele>734.83</ele>
        <time>2021-05-23T12:37:52.093Z</time>
      </trkpt>
      <trkpt lat="44.75523" lon="4.26602">
        <ele>735.36</ele>
        <time>2021-05-23T12:38:02.390Z</time>
      </trkpt>
      <trkpt lat="44.75513" lon="4.26596">
        <ele>736.9</ele>
        <time>2021-05-23T12:38:12.323Z</time>
      </trkpt>
      <trkpt lat="44.75501" lon="4.2659">
        <ele>738.93</ele>
        <time>2021-05-23T12:38:22.090Z</time>
      </trkpt>
      <trkpt lat="44.75489" lon="4.26586">
        <ele>741.98</ele>
        <time>2021-05-23T12:38:32.110Z</time>
      </trkpt>
      <trkpt lat="44.7548" lon="4.26584">
        <ele>744.42</ele>
        <time>2021-05-23T12:38:41.288Z</time>
      </trkpt>
      <trkpt lat="44.75475" lon="4.26576">
        <ele>744.8</ele>
        <time>2021-05-23T12:38:50.340Z</time>
      </trkpt>
      <trkpt lat="44.75472" lon="4.26564">
        <ele>744.75</ele>
        <time>2021-05-23T12:38:59.999Z</time>
      </trkpt>
      <trkpt lat="44.75468" lon="4.26566">
        <ele>746.38</ele>
        <time>2021-05-23T12:39:17.999Z</time>
      </trkpt>
      <trkpt lat="44.75468" lon="4.2657">
        <ele>746.7</ele>
        <time>2021-05-23T12:39:39.999Z</time>
      </trkpt>
      <trkpt lat="44.75468" lon="4.26573">
        <ele>746.98</ele>
        <time>2021-05-23T12:39:51.999Z</time>
      </trkpt>
      <trkpt lat="44.75468" lon="4.26567">
        <ele>746.35</ele>
        <time>2021-05-23T12:40:01.999Z</time>
      </trkpt>
      <trkpt lat="44.75473" lon="4.26556">
        <ele>744.21</ele>
        <time>2021-05-23T12:40:11.839Z</time>
      </trkpt>
      <trkpt lat="44.75477" lon="4.26544">
        <ele>742.13</ele>
        <time>2021-05-23T12:40:21.255Z</time>
      </trkpt>
      <trkpt lat="44.75484" lon="4.26529">
        <ele>739.4</ele>
        <time>2021-05-23T12:40:31.195Z</time>
      </trkpt>
      <trkpt lat="44.75492" lon="4.26516">
        <ele>736.42</ele>
        <time>2021-05-23T12:40:40.748Z</time>
      </trkpt>
      <trkpt lat="44.75498" lon="4.26506">
        <ele>733.81</ele>
        <time>2021-05-23T12:40:50.054Z</time>
      </trkpt>
      <trkpt lat="44.75505" lon="4.26497">
        <ele>731.14</ele>
        <time>2021-05-23T12:41:00.094Z</time>
      </trkpt>
      <trkpt lat="44.75512" lon="4.26482">
        <ele>727.86</ele>
        <time>2021-05-23T12:41:10.132Z</time>
      </trkpt>
      <trkpt lat="44.75519" lon="4.26466">
        <ele>725.45</ele>
        <time>2021-05-23T12:41:19.294Z</time>
      </trkpt>
      <trkpt lat="44.75526" lon="4.2645">
        <ele>722.75</ele>
        <time>2021-05-23T12:41:28.310Z</time>
      </trkpt>
      <trkpt lat="44.75531" lon="4.26433">
        <ele>721.04</ele>
        <time>2021-05-23T12:41:37.507Z</time>
      </trkpt>
      <trkpt lat="44.75533" lon="4.26416">
        <ele>720.44</ele>
        <time>2021-05-23T12:41:46.999Z</time>
      </trkpt>
      <trkpt lat="44.75531" lon="4.26399">
        <ele>720.99</ele>
        <time>2021-05-23T12:41:56.248Z</time>
      </trkpt>
      <trkpt lat="44.75525" lon="4.26381">
        <ele>723.34</ele>
        <time>2021-05-23T12:42:05.382Z</time>
      </trkpt>
      <trkpt lat="44.75515" lon="4.26373">
        <ele>726.29</ele>
        <time>2021-05-23T12:42:15.259Z</time>
      </trkpt>
      <trkpt lat="44.75504" lon="4.26368">
        <ele>729.07</ele>
        <time>2021-05-23T12:42:24.378Z</time>
      </trkpt>
      <trkpt lat="44.75489" lon="4.26361">
        <ele>731.26</ele>
        <time>2021-05-23T12:42:34.354Z</time>
      </trkpt>
      <trkpt lat="44.75479" lon="4.26353">
        <ele>731.66</ele>
        <time>2021-05-23T12:42:43.999Z</time>
      </trkpt>
      <trkpt lat="44.7547" lon="4.26345">
        <ele>731.26</ele>
        <time>2021-05-23T12:42:53.389Z</time>
      </trkpt>
      <trkpt lat="44.75462" lon="4.26341">
        <ele>731.08</ele>
        <time>2021-05-23T12:43:03.403Z</time>
      </trkpt>
      <trkpt lat="44.75456" lon="4.26353">
        <ele>732.92</ele>
        <time>2021-05-23T12:43:13.271Z</time>
      </trkpt>
      <trkpt lat="44.75451" lon="4.26362">
        <ele>734.53</ele>
        <time>2021-05-23T12:43:22.472Z</time>
      </trkpt>
      <trkpt lat="44.75444" lon="4.2637">
        <ele>736.11</ele>
        <time>2021-05-23T12:43:31.950Z</time>
      </trkpt>
      <trkpt lat="44.75436" lon="4.26368">
        <ele>736.05</ele>
        <time>2021-05-23T12:43:41.349Z</time>
      </trkpt>
      <trkpt lat="44.75428" lon="4.26357">
        <ele>734.03</ele>
        <time>2021-05-23T12:43:50.657Z</time>
      </trkpt>
      <trkpt lat="44.7542" lon="4.26352">
        <ele>732.94</ele>
        <time>2021-05-23T12:44:00.194Z</time>
      </trkpt>
      <trkpt lat="44.75412" lon="4.2635">
        <ele>732.45</ele>
        <time>2021-05-23T12:44:09.536Z</time>
      </trkpt>
      <trkpt lat="44.75399" lon="4.26352">
        <ele>732.61</ele>
        <time>2021-05-23T12:44:19.115Z</time>
      </trkpt>
      <trkpt lat="44.75389" lon="4.26357">
        <ele>733.33</ele>
        <time>2021-05-23T12:44:29.031Z</time>
      </trkpt>
      <trkpt lat="44.75378" lon="4.26364">
        <ele>734.84</ele>
        <time>2021-05-23T12:44:38.151Z</time>
      </trkpt>
      <trkpt lat="44.75368" lon="4.26372">
        <ele>736.7</ele>
        <time>2021-05-23T12:44:47.210Z</time>
      </trkpt>
      <trkpt lat="44.7536" lon="4.26378">
        <ele>738.34</ele>
        <time>2021-05-23T12:44:57.000Z</time>
      </trkpt>
      <trkpt lat="44.75359" lon="4.26369">
        <ele>735.54</ele>
        <time>2021-05-23T12:45:06.371Z</time>
      </trkpt>
      <trkpt lat="44.75353" lon="4.26348">
        <ele>728.39</ele>
        <time>2021-05-23T12:45:15.488Z</time>
      </trkpt>
      <trkpt lat="44.75345" lon="4.26334">
        <ele>723.8</ele>
        <time>2021-05-23T12:45:24.910Z</time>
      </trkpt>
      <trkpt lat="44.75341" lon="4.26324">
        <ele>720.82</ele>
        <time>2021-05-23T12:45:35.389Z</time>
      </trkpt>
      <trkpt lat="44.75329" lon="4.26318">
        <ele>719.11</ele>
        <time>2021-05-23T12:45:45.300Z</time>
      </trkpt>
      <trkpt lat="44.75316" lon="4.26312">
        <ele>717.6</ele>
        <time>2021-05-23T12:45:54.739Z</time>
      </trkpt>
      <trkpt lat="44.75306" lon="4.26311">
        <ele>717.58</ele>
        <time>2021-05-23T12:46:04.000Z</time>
      </trkpt>
      <trkpt lat="44.75304" lon="4.26315">
        <ele>718.28</ele>
        <time>2021-05-23T12:46:22.000Z</time>
      </trkpt>
      <trkpt lat="44.75303" lon="4.26315">
        <ele>718.18</ele>
        <time>2021-05-23T12:46:31.095Z</time>
      </trkpt>
      <trkpt lat="44.75294" lon="4.26325">
        <ele>720.12</ele>
        <time>2021-05-23T12:46:41.151Z</time>
      </trkpt>
      <trkpt lat="44.75283" lon="4.26323">
        <ele>720</ele>
        <time>2021-05-23T12:46:50.889Z</time>
      </trkpt>
      <trkpt lat="44.75276" lon="4.26311">
        <ele>719.08</ele>
        <time>2021-05-23T12:47:00.000Z</time>
      </trkpt>
      <trkpt lat="44.75278" lon="4.26304">
        <ele>718.29</ele>
        <time>2021-05-23T12:47:09.237Z</time>
      </trkpt>
      <trkpt lat="44.75275" lon="4.26284">
        <ele>717.52</ele>
        <time>2021-05-23T12:47:19.196Z</time>
      </trkpt>
      <trkpt lat="44.75276" lon="4.26263">
        <ele>716.37</ele>
        <time>2021-05-23T12:47:29.179Z</time>
      </trkpt>
      <trkpt lat="44.75284" lon="4.2625">
        <ele>713.64</ele>
        <time>2021-05-23T12:47:39.194Z</time>
      </trkpt>
      <trkpt lat="44.75295" lon="4.26236">
        <ele>710.19</ele>
        <time>2021-05-23T12:47:48.991Z</time>
      </trkpt>
      <trkpt lat="44.75308" lon="4.26225">
        <ele>706.56</ele>
        <time>2021-05-23T12:47:58.470Z</time>
      </trkpt>
      <trkpt lat="44.75317" lon="4.26217">
        <ele>704.04</ele>
        <time>2021-05-23T12:48:08.370Z</time>
      </trkpt>
      <trkpt lat="44.75323" lon="4.26202">
        <ele>701.9</ele>
        <time>2021-05-23T12:48:17.971Z</time>
      </trkpt>
      <trkpt lat="44.75321" lon="4.26181">
        <ele>700.3</ele>
        <time>2021-05-23T12:48:27.974Z</time>
      </trkpt>
      <trkpt lat="44.75313" lon="4.26168">
        <ele>700.57</ele>
        <time>2021-05-23T12:48:37.050Z</time>
      </trkpt>
      <trkpt lat="44.75307" lon="4.26164">
        <ele>701.37</ele>
        <time>2021-05-23T12:48:46.950Z</time>
      </trkpt>
      <trkpt lat="44.75304" lon="4.26157">
        <ele>701.3</ele>
        <time>2021-05-23T12:48:56.198Z</time>
      </trkpt>
      <trkpt lat="44.75292" lon="4.26148">
        <ele>702.81</ele>
        <time>2021-05-23T12:49:05.517Z</time>
      </trkpt>
      <trkpt lat="44.7528" lon="4.26139">
        <ele>704.03</ele>
        <time>2021-05-23T12:49:14.876Z</time>
      </trkpt>
      <trkpt lat="44.75271" lon="4.26123">
        <ele>702.42</ele>
        <time>2021-05-23T12:49:23.950Z</time>
      </trkpt>
      <trkpt lat="44.75261" lon="4.26112">
        <ele>701.61</ele>
        <time>2021-05-23T12:49:33.252Z</time>
      </trkpt>
      <trkpt lat="44.7525" lon="4.26103">
        <ele>700.97</ele>
        <time>2021-05-23T12:49:43.000Z</time>
      </trkpt>
      <trkpt lat="44.75239" lon="4.26099">
        <ele>701.45</ele>
        <time>2021-05-23T12:49:52.409Z</time>
      </trkpt>
      <trkpt lat="44.75227" lon="4.26104">
        <ele>703.44</ele>
        <time>2021-05-23T12:50:02.000Z</time>
      </trkpt>
      <trkpt lat="44.75216" lon="4.26095">
        <ele>702.26</ele>
        <time>2021-05-23T12:50:11.093Z</time>
      </trkpt>
      <trkpt lat="44.75201" lon="4.26103">
        <ele>705.22</ele>
        <time>2021-05-23T12:50:21.000Z</time>
      </trkpt>
      <trkpt lat="44.75188" lon="4.26107">
        <ele>707.21</ele>
        <time>2021-05-23T12:50:30.219Z</time>
      </trkpt>
      <trkpt lat="44.7518" lon="4.26106">
        <ele>707.82</ele>
        <time>2021-05-23T12:50:39.495Z</time>
      </trkpt>
      <trkpt lat="44.75169" lon="4.26106">
        <ele>709.22</ele>
        <time>2021-05-23T12:50:48.913Z</time>
      </trkpt>
      <trkpt lat="44.75159" lon="4.26108">
        <ele>711.17</ele>
        <time>2021-05-23T12:50:57.975Z</time>
      </trkpt>
      <trkpt lat="44.75152" lon="4.26106">
        <ele>712</ele>
        <time>2021-05-23T12:51:07.076Z</time>
      </trkpt>
      <trkpt lat="44.75149" lon="4.26091">
        <ele>709.97</ele>
        <time>2021-05-23T12:51:16.653Z</time>
      </trkpt>
      <trkpt lat="44.75158" lon="4.26078">
        <ele>707.24</ele>
        <time>2021-05-23T12:51:26.113Z</time>
      </trkpt>
      <trkpt lat="44.75156" lon="4.26058">
        <ele>708.05</ele>
        <time>2021-05-23T12:51:35.253Z</time>
      </trkpt>
      <trkpt lat="44.75156" lon="4.26043">
        <ele>709.42</ele>
        <time>2021-05-23T12:51:44.532Z</time>
      </trkpt>
      <trkpt lat="44.75159" lon="4.26025">
        <ele>711.14</ele>
        <time>2021-05-23T12:51:53.850Z</time>
      </trkpt>
      <trkpt lat="44.75166" lon="4.26012">
        <ele>710.93</ele>
        <time>2021-05-23T12:52:03.490Z</time>
      </trkpt>
      <trkpt lat="44.75173" lon="4.26001">
        <ele>709.98</ele>
        <time>2021-05-23T12:52:13.189Z</time>
      </trkpt>
      <trkpt lat="44.7518" lon="4.25987">
        <ele>709.44</ele>
        <time>2021-05-23T12:52:22.460Z</time>
      </trkpt>
      <trkpt lat="44.75186" lon="4.25972">
        <ele>709.47</ele>
        <time>2021-05-23T12:52:31.840Z</time>
      </trkpt>
      <trkpt lat="44.75192" lon="4.25956">
        <ele>709.67</ele>
        <time>2021-05-23T12:52:41.000Z</time>
      </trkpt>
      <trkpt lat="44.75197" lon="4.25942">
        <ele>709.96</ele>
        <time>2021-05-23T12:52:50.018Z</time>
      </trkpt>
      <trkpt lat="44.75204" lon="4.25928">
        <ele>709.31</ele>
        <time>2021-05-23T12:52:59.056Z</time>
      </trkpt>
      <trkpt lat="44.7521" lon="4.25913">
        <ele>708.87</ele>
        <time>2021-05-23T12:53:08.234Z</time>
      </trkpt>
      <trkpt lat="44.75215" lon="4.25893">
        <ele>707.99</ele>
        <time>2021-05-23T12:53:18.213Z</time>
      </trkpt>
      <trkpt lat="44.7522" lon="4.25877">
        <ele>706.55</ele>
        <time>2021-05-23T12:53:27.332Z</time>
      </trkpt>
      <trkpt lat="44.75223" lon="4.25863">
        <ele>705.22</ele>
        <time>2021-05-23T12:53:36.511Z</time>
      </trkpt>
      <trkpt lat="44.75232" lon="4.25854">
        <ele>702.33</ele>
        <time>2021-05-23T12:53:45.671Z</time>
      </trkpt>
      <trkpt lat="44.75238" lon="4.2584">
        <ele>699.74</ele>
        <time>2021-05-23T12:53:54.797Z</time>
      </trkpt>
      <trkpt lat="44.75233" lon="4.25819">
        <ele>699.85</ele>
        <time>2021-05-23T12:54:04.417Z</time>
      </trkpt>
      <trkpt lat="44.75224" lon="4.25811">
        <ele>702.34</ele>
        <time>2021-05-23T12:54:14.474Z</time>
      </trkpt>
      <trkpt lat="44.75216" lon="4.25799">
        <ele>704.74</ele>
        <time>2021-05-23T12:54:23.999Z</time>
      </trkpt>
      <trkpt lat="44.75209" lon="4.25785">
        <ele>706.8</ele>
        <time>2021-05-23T12:54:33.150Z</time>
      </trkpt>
      <trkpt lat="44.75207" lon="4.25767">
        <ele>706.75</ele>
        <time>2021-05-23T12:54:43.130Z</time>
      </trkpt>
      <trkpt lat="44.75213" lon="4.25741">
        <ele>702.8</ele>
        <time>2021-05-23T12:54:53.367Z</time>
      </trkpt>
      <trkpt lat="44.75218" lon="4.25725">
        <ele>700.03</ele>
        <time>2021-05-23T12:55:03.207Z</time>
      </trkpt>
      <trkpt lat="44.75223" lon="4.25707">
        <ele>697.17</ele>
        <time>2021-05-23T12:55:12.497Z</time>
      </trkpt>
      <trkpt lat="44.75228" lon="4.25689">
        <ele>694.75</ele>
        <time>2021-05-23T12:55:21.738Z</time>
      </trkpt>
      <trkpt lat="44.75234" lon="4.2567">
        <ele>691.18</ele>
        <time>2021-05-23T12:55:31.176Z</time>
      </trkpt>
      <trkpt lat="44.75236" lon="4.25662">
        <ele>689.74</ele>
        <time>2021-05-23T12:55:41.036Z</time>
      </trkpt>
      <trkpt lat="44.75242" lon="4.2564">
        <ele>686.19</ele>
        <time>2021-05-23T12:55:50.095Z</time>
      </trkpt>
      <trkpt lat="44.7524" lon="4.25622">
        <ele>686.64</ele>
        <time>2021-05-23T12:55:59.512Z</time>
      </trkpt>
      <trkpt lat="44.75235" lon="4.25604">
        <ele>688.13</ele>
        <time>2021-05-23T12:56:08.674Z</time>
      </trkpt>
      <trkpt lat="44.75228" lon="4.25584">
        <ele>690.39</ele>
        <time>2021-05-23T12:56:18.255Z</time>
      </trkpt>
      <trkpt lat="44.75223" lon="4.25571">
        <ele>691.58</ele>
        <time>2021-05-23T12:56:28.192Z</time>
      </trkpt>
      <trkpt lat="44.75221" lon="4.25565">
        <ele>691.45</ele>
        <time>2021-05-23T12:56:38.999Z</time>
      </trkpt>
      <trkpt lat="44.75216" lon="4.25556">
        <ele>692.68</ele>
        <time>2021-05-23T12:56:48.918Z</time>
      </trkpt>
      <trkpt lat="44.75211" lon="4.2554">
        <ele>693.09</ele>
        <time>2021-05-23T12:56:58.057Z</time>
      </trkpt>
      <trkpt lat="44.75207" lon="4.25521">
        <ele>691.85</ele>
        <time>2021-05-23T12:57:07.554Z</time>
      </trkpt>
      <trkpt lat="44.75204" lon="4.25488">
        <ele>688.38</ele>
        <time>2021-05-23T12:57:17.255Z</time>
      </trkpt>
      <trkpt lat="44.75204" lon="4.25467">
        <ele>685.57</ele>
        <time>2021-05-23T12:57:26.274Z</time>
      </trkpt>
      <trkpt lat="44.75203" lon="4.25448">
        <ele>683.1</ele>
        <time>2021-05-23T12:57:36.232Z</time>
      </trkpt>
      <trkpt lat="44.75203" lon="4.25432">
        <ele>681.21</ele>
        <time>2021-05-23T12:57:45.291Z</time>
      </trkpt>
      <trkpt lat="44.75202" lon="4.25414">
        <ele>679.08</ele>
        <time>2021-05-23T12:57:54.889Z</time>
      </trkpt>
      <trkpt lat="44.75198" lon="4.25397">
        <ele>678.28</ele>
        <time>2021-05-23T12:58:04.267Z</time>
      </trkpt>
      <trkpt lat="44.75195" lon="4.25383">
        <ele>677.19</ele>
        <time>2021-05-23T12:58:13.488Z</time>
      </trkpt>
      <trkpt lat="44.75192" lon="4.25367">
        <ele>675.76</ele>
        <time>2021-05-23T12:58:22.600Z</time>
      </trkpt>
      <trkpt lat="44.75185" lon="4.25352">
        <ele>675.3</ele>
        <time>2021-05-23T12:58:32.219Z</time>
      </trkpt>
      <trkpt lat="44.75178" lon="4.25345">
        <ele>675.77</ele>
        <time>2021-05-23T12:58:41.298Z</time>
      </trkpt>
      <trkpt lat="44.75168" lon="4.25346">
        <ele>678.48</ele>
        <time>2021-05-23T12:58:50.358Z</time>
      </trkpt>
      <trkpt lat="44.75152" lon="4.25349">
        <ele>681.41</ele>
        <time>2021-05-23T12:59:00.154Z</time>
      </trkpt>
      <trkpt lat="44.75139" lon="4.25351">
        <ele>682.39</ele>
        <time>2021-05-23T12:59:09.255Z</time>
      </trkpt>
      <trkpt lat="44.75125" lon="4.25352">
        <ele>682.89</ele>
        <time>2021-05-23T12:59:18.835Z</time>
      </trkpt>
      <trkpt lat="44.7511" lon="4.25361">
        <ele>685.21</ele>
        <time>2021-05-23T12:59:28.533Z</time>
      </trkpt>
      <trkpt lat="44.75098" lon="4.25371">
        <ele>688.74</ele>
        <time>2021-05-23T12:59:38.013Z</time>
      </trkpt>
      <trkpt lat="44.75087" lon="4.25378">
        <ele>691.58</ele>
        <time>2021-05-23T12:59:47.455Z</time>
      </trkpt>
      <trkpt lat="44.75074" lon="4.25387">
        <ele>695.01</ele>
        <time>2021-05-23T12:59:56.932Z</time>
      </trkpt>
      <trkpt lat="44.75063" lon="4.25394">
        <ele>697.23</ele>
        <time>2021-05-23T13:00:06.331Z</time>
      </trkpt>
      <trkpt lat="44.75055" lon="4.25398">
        <ele>698.26</ele>
        <time>2021-05-23T13:00:16.239Z</time>
      </trkpt>
      <trkpt lat="44.75048" lon="4.25401">
        <ele>698.81</ele>
        <time>2021-05-23T13:00:26.375Z</time>
      </trkpt>
      <trkpt lat="44.75033" lon="4.25396">
        <ele>696.82</ele>
        <time>2021-05-23T13:00:36.414Z</time>
      </trkpt>
      <trkpt lat="44.75028" lon="4.25379">
        <ele>692.36</ele>
        <time>2021-05-23T13:00:45.733Z</time>
      </trkpt>
      <trkpt lat="44.75026" lon="4.25364">
        <ele>688.41</ele>
        <time>2021-05-23T13:00:55.112Z</time>
      </trkpt>
      <trkpt lat="44.75026" lon="4.25352">
        <ele>685.42</ele>
        <time>2021-05-23T13:01:04.173Z</time>
      </trkpt>
      <trkpt lat="44.75016" lon="4.25334">
        <ele>682.61</ele>
        <time>2021-05-23T13:01:13.391Z</time>
      </trkpt>
      <trkpt lat="44.75012" lon="4.25324">
        <ele>681.14</ele>
        <time>2021-05-23T13:01:23.510Z</time>
      </trkpt>
      <trkpt lat="44.75009" lon="4.25312">
        <ele>678.78</ele>
        <time>2021-05-23T13:01:33.456Z</time>
      </trkpt>
      <trkpt lat="44.75003" lon="4.25294">
        <ele>675.9</ele>
        <time>2021-05-23T13:01:43.479Z</time>
      </trkpt>
      <trkpt lat="44.74997" lon="4.25278">
        <ele>674.37</ele>
        <time>2021-05-23T13:01:53.060Z</time>
      </trkpt>
      <trkpt lat="44.74992" lon="4.25264">
        <ele>673.07</ele>
        <time>2021-05-23T13:02:03.167Z</time>
      </trkpt>
      <trkpt lat="44.74982" lon="4.25251">
        <ele>674.31</ele>
        <time>2021-05-23T13:02:13.159Z</time>
      </trkpt>
      <trkpt lat="44.74972" lon="4.25241">
        <ele>676.83</ele>
        <time>2021-05-23T13:02:23.157Z</time>
      </trkpt>
      <trkpt lat="44.74965" lon="4.25225">
        <ele>676.43</ele>
        <time>2021-05-23T13:02:33.117Z</time>
      </trkpt>
      <trkpt lat="44.7496" lon="4.25208">
        <ele>674.32</ele>
        <time>2021-05-23T13:02:42.334Z</time>
      </trkpt>
      <trkpt lat="44.74956" lon="4.25203">
        <ele>674.99</ele>
        <time>2021-05-23T13:02:51.999Z</time>
      </trkpt>
      <trkpt lat="44.74953" lon="4.25196">
        <ele>674.53</ele>
        <time>2021-05-23T13:04:06.994Z</time>
      </trkpt>
      <trkpt lat="44.74944" lon="4.2518">
        <ele>674.51</ele>
        <time>2021-05-23T13:04:17.318Z</time>
      </trkpt>
      <trkpt lat="44.74935" lon="4.25165">
        <ele>674.03</ele>
        <time>2021-05-23T13:04:26.418Z</time>
      </trkpt>
      <trkpt lat="44.74929" lon="4.25151">
        <ele>672.6</ele>
        <time>2021-05-23T13:04:36.175Z</time>
      </trkpt>
      <trkpt lat="44.74921" lon="4.25141">
        <ele>672.63</ele>
        <time>2021-05-23T13:04:45.251Z</time>
      </trkpt>
      <trkpt lat="44.74912" lon="4.25129">
        <ele>671.87</ele>
        <time>2021-05-23T13:04:55.000Z</time>
      </trkpt>
      <trkpt lat="44.74904" lon="4.25115">
        <ele>670.26</ele>
        <time>2021-05-23T13:05:04.009Z</time>
      </trkpt>
      <trkpt lat="44.74893" lon="4.25101">
        <ele>669.42</ele>
        <time>2021-05-23T13:05:14.107Z</time>
      </trkpt>
      <trkpt lat="44.74887" lon="4.25091">
        <ele>668.23</ele>
        <time>2021-05-23T13:05:23.189Z</time>
      </trkpt>
      <trkpt lat="44.74878" lon="4.25076">
        <ele>665.84</ele>
        <time>2021-05-23T13:05:32.770Z</time>
      </trkpt>
      <trkpt lat="44.74871" lon="4.25063">
        <ele>663.53</ele>
        <time>2021-05-23T13:05:42.468Z</time>
      </trkpt>
      <trkpt lat="44.74865" lon="4.25048">
        <ele>659.6</ele>
        <time>2021-05-23T13:05:51.596Z</time>
      </trkpt>
      <trkpt lat="44.74852" lon="4.25049">
        <ele>661.03</ele>
        <time>2021-05-23T13:06:01.118Z</time>
      </trkpt>
      <trkpt lat="44.7484" lon="4.25048">
        <ele>660.4</ele>
        <time>2021-05-23T13:06:11.277Z</time>
      </trkpt>
      <trkpt lat="44.74834" lon="4.25039">
        <ele>656.67</ele>
        <time>2021-05-23T13:06:21.295Z</time>
      </trkpt>
      <trkpt lat="44.7483" lon="4.25054">
        <ele>661.6</ele>
        <time>2021-05-23T13:06:31.234Z</time>
      </trkpt>
      <trkpt lat="44.74821" lon="4.25062">
        <ele>662.96</ele>
        <time>2021-05-23T13:06:41.094Z</time>
      </trkpt>
      <trkpt lat="44.7481" lon="4.25067">
        <ele>661.61</ele>
        <time>2021-05-23T13:06:50.374Z</time>
      </trkpt>
      <trkpt lat="44.748" lon="4.25071">
        <ele>659.04</ele>
        <time>2021-05-23T13:07:00.151Z</time>
      </trkpt>
      <trkpt lat="44.74788" lon="4.25073">
        <ele>654.74</ele>
        <time>2021-05-23T13:07:09.500Z</time>
      </trkpt>
      <trkpt lat="44.74777" lon="4.25074">
        <ele>650.53</ele>
        <time>2021-05-23T13:07:18.554Z</time>
      </trkpt>
      <trkpt lat="44.74764" lon="4.25071">
        <ele>643.42</ele>
        <time>2021-05-23T13:07:28.016Z</time>
      </trkpt>
      <trkpt lat="44.74755" lon="4.25081">
        <ele>644.37</ele>
        <time>2021-05-23T13:07:38.015Z</time>
      </trkpt>
      <trkpt lat="44.74751" lon="4.25087">
        <ele>646.1</ele>
        <time>2021-05-23T13:07:47.479Z</time>
      </trkpt>
      <trkpt lat="44.74738" lon="4.251">
        <ele>647.7</ele>
        <time>2021-05-23T13:07:57.392Z</time>
      </trkpt>
      <trkpt lat="44.74727" lon="4.25106">
        <ele>646.74</ele>
        <time>2021-05-23T13:08:07.112Z</time>
      </trkpt>
      <trkpt lat="44.74714" lon="4.25106">
        <ele>642.98</ele>
        <time>2021-05-23T13:08:16.458Z</time>
      </trkpt>
      <trkpt lat="44.74703" lon="4.25103">
        <ele>638.47</ele>
        <time>2021-05-23T13:08:25.791Z</time>
      </trkpt>
      <trkpt lat="44.74693" lon="4.25102">
        <ele>634.96</ele>
        <time>2021-05-23T13:08:35.111Z</time>
      </trkpt>
      <trkpt lat="44.74681" lon="4.25098">
        <ele>630.21</ele>
        <time>2021-05-23T13:08:45.209Z</time>
      </trkpt>
      <trkpt lat="44.74673" lon="4.25091">
        <ele>625.53</ele>
        <time>2021-05-23T13:08:55.471Z</time>
      </trkpt>
      <trkpt lat="44.74666" lon="4.25087">
        <ele>622.3</ele>
        <time>2021-05-23T13:09:05.298Z</time>
      </trkpt>
      <trkpt lat="44.74653" lon="4.25084">
        <ele>617.76</ele>
        <time>2021-05-23T13:09:14.997Z</time>
      </trkpt>
      <trkpt lat="44.74636" lon="4.25084">
        <ele>614.14</ele>
        <time>2021-05-23T13:09:24.274Z</time>
      </trkpt>
      <trkpt lat="44.74622" lon="4.25088">
        <ele>612.25</ele>
        <time>2021-05-23T13:09:33.566Z</time>
      </trkpt>
      <trkpt lat="44.7461" lon="4.25101">
        <ele>612.85</ele>
        <time>2021-05-23T13:09:42.954Z</time>
      </trkpt>
      <trkpt lat="44.746" lon="4.25115">
        <ele>613.91</ele>
        <time>2021-05-23T13:09:52.455Z</time>
      </trkpt>
      <trkpt lat="44.74592" lon="4.25131">
        <ele>615.61</ele>
        <time>2021-05-23T13:10:01.710Z</time>
      </trkpt>
      <trkpt lat="44.74585" lon="4.25145">
        <ele>616.59</ele>
        <time>2021-05-23T13:10:11.070Z</time>
      </trkpt>
      <trkpt lat="44.74574" lon="4.25153">
        <ele>615.66</ele>
        <time>2021-05-23T13:10:20.191Z</time>
      </trkpt>
      <trkpt lat="44.7456" lon="4.25149">
        <ele>611.7</ele>
        <time>2021-05-23T13:10:29.243Z</time>
      </trkpt>
      <trkpt lat="44.74544" lon="4.25145">
        <ele>607.38</ele>
        <time>2021-05-23T13:10:39.079Z</time>
      </trkpt>
      <trkpt lat="44.74533" lon="4.25145">
        <ele>605.47</ele>
        <time>2021-05-23T13:10:49.116Z</time>
      </trkpt>
      <trkpt lat="44.74521" lon="4.25148">
        <ele>604.51</ele>
        <time>2021-05-23T13:10:58.273Z</time>
      </trkpt>
      <trkpt lat="44.74516" lon="4.25158">
        <ele>606.14</ele>
        <time>2021-05-23T13:11:08.375Z</time>
      </trkpt>
      <trkpt lat="44.74512" lon="4.25159">
        <ele>606.2</ele>
        <time>2021-05-23T13:11:19.333Z</time>
      </trkpt>
      <trkpt lat="44.74505" lon="4.25142">
        <ele>602.7</ele>
        <time>2021-05-23T13:11:28.489Z</time>
      </trkpt>
      <trkpt lat="44.745" lon="4.25119">
        <ele>598.29</ele>
        <time>2021-05-23T13:11:38.150Z</time>
      </trkpt>
      <trkpt lat="44.74499" lon="4.25101">
        <ele>594.7</ele>
        <time>2021-05-23T13:11:47.996Z</time>
      </trkpt>
      <trkpt lat="44.74488" lon="4.25086">
        <ele>592.65</ele>
        <time>2021-05-23T13:11:57.000Z</time>
      </trkpt>
      <trkpt lat="44.74478" lon="4.25082">
        <ele>593.29</ele>
        <time>2021-05-23T13:12:06.288Z</time>
      </trkpt>
      <trkpt lat="44.74466" lon="4.25076">
        <ele>594.07</ele>
        <time>2021-05-23T13:12:15.466Z</time>
      </trkpt>
      <trkpt lat="44.74461" lon="4.25075">
        <ele>595.08</ele>
        <time>2021-05-23T13:12:24.818Z</time>
      </trkpt>
      <trkpt lat="44.74456" lon="4.25062">
        <ele>592.76</ele>
        <time>2021-05-23T13:12:34.059Z</time>
      </trkpt>
      <trkpt lat="44.7445" lon="4.25049">
        <ele>590.68</ele>
        <time>2021-05-23T13:12:43.474Z</time>
      </trkpt>
      <trkpt lat="44.74443" lon="4.25039">
        <ele>589.34</ele>
        <time>2021-05-23T13:12:53.056Z</time>
      </trkpt>
      <trkpt lat="44.74438" lon="4.25027">
        <ele>587.13</ele>
        <time>2021-05-23T13:13:03.117Z</time>
      </trkpt>
      <trkpt lat="44.74433" lon="4.25012">
        <ele>583.88</ele>
        <time>2021-05-23T13:13:12.135Z</time>
      </trkpt>
      <trkpt lat="44.74427" lon="4.25001">
        <ele>581.81</ele>
        <time>2021-05-23T13:13:21.933Z</time>
      </trkpt>
      <trkpt lat="44.74429" lon="4.24993">
        <ele>579.39</ele>
        <time>2021-05-23T13:13:38.873Z</time>
      </trkpt>
      <trkpt lat="44.74425" lon="4.24983">
        <ele>577.13</ele>
        <time>2021-05-23T13:13:48.050Z</time>
      </trkpt>
      <trkpt lat="44.74422" lon="4.24975">
        <ele>575.25</ele>
        <time>2021-05-23T13:13:57.453Z</time>
      </trkpt>
      <trkpt lat="44.74413" lon="4.2496">
        <ele>572.51</ele>
        <time>2021-05-23T13:14:06.962Z</time>
      </trkpt>
      <trkpt lat="44.7441" lon="4.24948">
        <ele>569.54</ele>
        <time>2021-05-23T13:14:16.698Z</time>
      </trkpt>
      <trkpt lat="44.74409" lon="4.24931">
        <ele>565.38</ele>
        <time>2021-05-23T13:14:26.116Z</time>
      </trkpt>
      <trkpt lat="44.744" lon="4.24926">
        <ele>565.9</ele>
        <time>2021-05-23T13:14:35.755Z</time>
      </trkpt>
      <trkpt lat="44.74397" lon="4.24914">
        <ele>564.31</ele>
        <time>2021-05-23T13:14:45.035Z</time>
      </trkpt>
      <trkpt lat="44.74394" lon="4.24903">
        <ele>562.87</ele>
        <time>2021-05-23T13:14:54.672Z</time>
      </trkpt>
      <trkpt lat="44.74397" lon="4.24908">
        <ele>563.08</ele>
        <time>2021-05-23T13:15:04.110Z</time>
      </trkpt>
      <trkpt lat="44.744" lon="4.24911">
        <ele>563.15</ele>
        <time>2021-05-23T13:15:40.078Z</time>
      </trkpt>
      <trkpt lat="44.74389" lon="4.249">
        <ele>563.68</ele>
        <time>2021-05-23T13:15:49.877Z</time>
      </trkpt>
      <trkpt lat="44.74387" lon="4.24887">
        <ele>562.28</ele>
        <time>2021-05-23T13:15:59.060Z</time>
      </trkpt>
      <trkpt lat="44.74388" lon="4.24867">
        <ele>559.77</ele>
        <time>2021-05-23T13:16:09.074Z</time>
      </trkpt>
      <trkpt lat="44.74382" lon="4.24851">
        <ele>559.27</ele>
        <time>2021-05-23T13:16:18.215Z</time>
      </trkpt>
      <trkpt lat="44.74371" lon="4.24841">
        <ele>559.83</ele>
        <time>2021-05-23T13:16:28.251Z</time>
      </trkpt>
      <trkpt lat="44.74362" lon="4.24831">
        <ele>559.97</ele>
        <time>2021-05-23T13:16:37.571Z</time>
      </trkpt>
      <trkpt lat="44.74354" lon="4.2482">
        <ele>559.75</ele>
        <time>2021-05-23T13:16:47.217Z</time>
      </trkpt>
      <trkpt lat="44.74345" lon="4.24813">
        <ele>560.24</ele>
        <time>2021-05-23T13:16:56.996Z</time>
      </trkpt>
      <trkpt lat="44.74335" lon="4.24801">
        <ele>560.08</ele>
        <time>2021-05-23T13:17:06.854Z</time>
      </trkpt>
      <trkpt lat="44.74327" lon="4.24792">
        <ele>559.96</ele>
        <time>2021-05-23T13:17:15.999Z</time>
      </trkpt>
      <trkpt lat="44.7432" lon="4.2478">
        <ele>559.08</ele>
        <time>2021-05-23T13:17:25.254Z</time>
      </trkpt>
      <trkpt lat="44.74311" lon="4.24768">
        <ele>558.61</ele>
        <time>2021-05-23T13:17:34.909Z</time>
      </trkpt>
      <trkpt lat="44.74299" lon="4.2476">
        <ele>559.48</ele>
        <time>2021-05-23T13:17:43.999Z</time>
      </trkpt>
      <trkpt lat="44.74288" lon="4.24754">
        <ele>560.33</ele>
        <time>2021-05-23T13:17:53.210Z</time>
      </trkpt>
      <trkpt lat="44.74278" lon="4.24748">
        <ele>560.82</ele>
        <time>2021-05-23T13:18:02.810Z</time>
      </trkpt>
      <trkpt lat="44.7427" lon="4.24744">
        <ele>561.2</ele>
        <time>2021-05-23T13:18:11.999Z</time>
      </trkpt>
      <trkpt lat="44.7426" lon="4.24737">
        <ele>561.21</ele>
        <time>2021-05-23T13:18:21.158Z</time>
      </trkpt>
      <trkpt lat="44.74245" lon="4.24728">
        <ele>560.92</ele>
        <time>2021-05-23T13:18:30.660Z</time>
      </trkpt>
      <trkpt lat="44.74232" lon="4.24713">
        <ele>558.5</ele>
        <time>2021-05-23T13:18:40.178Z</time>
      </trkpt>
      <trkpt lat="44.74223" lon="4.24706">
        <ele>558.25</ele>
        <time>2021-05-23T13:18:49.617Z</time>
      </trkpt>
      <trkpt lat="44.74211" lon="4.24703">
        <ele>559.99</ele>
        <time>2021-05-23T13:18:59.398Z</time>
      </trkpt>
      <trkpt lat="44.74195" lon="4.24696">
        <ele>561.37</ele>
        <time>2021-05-23T13:19:09.354Z</time>
      </trkpt>
      <trkpt lat="44.74184" lon="4.24688">
        <ele>560.82</ele>
        <time>2021-05-23T13:19:18.775Z</time>
      </trkpt>
      <trkpt lat="44.74175" lon="4.24677">
        <ele>558.73</ele>
        <time>2021-05-23T13:19:27.837Z</time>
      </trkpt>
      <trkpt lat="44.74167" lon="4.24668">
        <ele>557.26</ele>
        <time>2021-05-23T13:19:36.994Z</time>
      </trkpt>
      <trkpt lat="44.74156" lon="4.24657">
        <ele>556.42</ele>
        <time>2021-05-23T13:19:46.017Z</time>
      </trkpt>
      <trkpt lat="44.74148" lon="4.24643">
        <ele>555.18</ele>
        <time>2021-05-23T13:19:56.055Z</time>
      </trkpt>
      <trkpt lat="44.74138" lon="4.24635">
        <ele>555.79</ele>
        <time>2021-05-23T13:20:05.189Z</time>
      </trkpt>
      <trkpt lat="44.74131" lon="4.24619">
        <ele>555.17</ele>
        <time>2021-05-23T13:20:14.368Z</time>
      </trkpt>
      <trkpt lat="44.74124" lon="4.24602">
        <ele>554.96</ele>
        <time>2021-05-23T13:20:24.158Z</time>
      </trkpt>
      <trkpt lat="44.74121" lon="4.24588">
        <ele>554.11</ele>
        <time>2021-05-23T13:20:33.217Z</time>
      </trkpt>
      <trkpt lat="44.74121" lon="4.24574">
        <ele>552.52</ele>
        <time>2021-05-23T13:20:42.376Z</time>
      </trkpt>
      <trkpt lat="44.74121" lon="4.2456">
        <ele>551</ele>
        <time>2021-05-23T13:20:52.073Z</time>
      </trkpt>
      <trkpt lat="44.7412" lon="4.24542">
        <ele>549.83</ele>
        <time>2021-05-23T13:21:01.134Z</time>
      </trkpt>
      <trkpt lat="44.74114" lon="4.2453">
        <ele>549.79</ele>
        <time>2021-05-23T13:21:10.448Z</time>
      </trkpt>
      <trkpt lat="44.74109" lon="4.24516">
        <ele>549.25</ele>
        <time>2021-05-23T13:21:19.933Z</time>
      </trkpt>
      <trkpt lat="44.74106" lon="4.24507">
        <ele>548.96</ele>
        <time>2021-05-23T13:21:28.999Z</time>
      </trkpt>
      <trkpt lat="44.74105" lon="4.24506">
        <ele>548.94</ele>
        <time>2021-05-23T13:21:39.008Z</time>
      </trkpt>
      <trkpt lat="44.741" lon="4.24487">
        <ele>547.97</ele>
        <time>2021-05-23T13:21:48.720Z</time>
      </trkpt>
      <trkpt lat="44.74096" lon="4.24473">
        <ele>547.06</ele>
        <time>2021-05-23T13:21:57.836Z</time>
      </trkpt>
      <trkpt lat="44.74093" lon="4.24457">
        <ele>545.94</ele>
        <time>2021-05-23T13:22:06.936Z</time>
      </trkpt>
      <trkpt lat="44.74086" lon="4.2444">
        <ele>544.35</ele>
        <time>2021-05-23T13:22:16.515Z</time>
      </trkpt>
      <trkpt lat="44.7408" lon="4.24429">
        <ele>542.93</ele>
        <time>2021-05-23T13:22:26.075Z</time>
      </trkpt>
      <trkpt lat="44.74073" lon="4.24416">
        <ele>541.58</ele>
        <time>2021-05-23T13:22:36.153Z</time>
      </trkpt>
      <trkpt lat="44.74069" lon="4.24397">
        <ele>540.58</ele>
        <time>2021-05-23T13:22:45.293Z</time>
      </trkpt>
      <trkpt lat="44.74066" lon="4.24393">
        <ele>540</ele>
        <time>2021-05-23T13:22:54.653Z</time>
      </trkpt>
      <trkpt lat="44.74053" lon="4.24397">
        <ele>538.79</ele>
        <time>2021-05-23T13:23:03.671Z</time>
      </trkpt>
      <trkpt lat="44.74045" lon="4.24391">
        <ele>537.88</ele>
        <time>2021-05-23T13:23:13.174Z</time>
      </trkpt>
      <trkpt lat="44.74051" lon="4.24367">
        <ele>537.68</ele>
        <time>2021-05-23T13:23:22.372Z</time>
      </trkpt>
      <trkpt lat="44.74054" lon="4.24356">
        <ele>538.05</ele>
        <time>2021-05-23T13:23:32.000Z</time>
      </trkpt>
      <trkpt lat="44.74054" lon="4.24353">
        <ele>538.19</ele>
        <time>2021-05-23T13:23:41.157Z</time>
      </trkpt>
      <trkpt lat="44.74054" lon="4.24344">
        <ele>538.34</ele>
        <time>2021-05-23T13:23:50.395Z</time>
      </trkpt>
      <trkpt lat="44.74051" lon="4.24331">
        <ele>538.26</ele>
        <time>2021-05-23T13:23:59.776Z</time>
      </trkpt>
      <trkpt lat="44.74048" lon="4.24322">
        <ele>538.34</ele>
        <time>2021-05-23T13:24:09.012Z</time>
      </trkpt>
      <trkpt lat="44.74044" lon="4.24302">
        <ele>539.5</ele>
        <time>2021-05-23T13:24:18.420Z</time>
      </trkpt>
      <trkpt lat="44.74048" lon="4.24283">
        <ele>542.21</ele>
        <time>2021-05-23T13:24:27.453Z</time>
      </trkpt>
      <trkpt lat="44.74054" lon="4.24269">
        <ele>544.82</ele>
        <time>2021-05-23T13:24:36.850Z</time>
      </trkpt>
      <trkpt lat="44.74057" lon="4.24253">
        <ele>546.98</ele>
        <time>2021-05-23T13:24:46.408Z</time>
      </trkpt>
      <trkpt lat="44.7406" lon="4.24239">
        <ele>548.69</ele>
        <time>2021-05-23T13:24:55.740Z</time>
      </trkpt>
      <trkpt lat="44.74066" lon="4.24229">
        <ele>550.05</ele>
        <time>2021-05-23T13:25:05.298Z</time>
      </trkpt>
      <trkpt lat="44.74068" lon="4.24224">
        <ele>550.47</ele>
        <time>2021-05-23T13:25:14.539Z</time>
      </trkpt>
      <trkpt lat="44.74074" lon="4.24207">
        <ele>551.75</ele>
        <time>2021-05-23T13:25:23.839Z</time>
      </trkpt>
      <trkpt lat="44.74078" lon="4.24194">
        <ele>552.59</ele>
        <time>2021-05-23T13:25:32.999Z</time>
      </trkpt>
      <trkpt lat="44.74083" lon="4.24183">
        <ele>553.61</ele>
        <time>2021-05-23T13:25:42.357Z</time>
      </trkpt>
      <trkpt lat="44.74083" lon="4.24172">
        <ele>554.42</ele>
        <time>2021-05-23T13:25:52.316Z</time>
      </trkpt>
      <trkpt lat="44.74092" lon="4.24162">
        <ele>556.24</ele>
        <time>2021-05-23T13:26:01.437Z</time>
      </trkpt>
      <trkpt lat="44.74101" lon="4.24148">
        <ele>558.48</ele>
        <time>2021-05-23T13:26:10.875Z</time>
      </trkpt>
      <trkpt lat="44.74112" lon="4.24143">
        <ele>559.85</ele>
        <time>2021-05-23T13:26:20.292Z</time>
      </trkpt>
      <trkpt lat="44.74123" lon="4.24142">
        <ele>561.02</ele>
        <time>2021-05-23T13:26:30.374Z</time>
      </trkpt>
      <trkpt lat="44.74129" lon="4.24137">
        <ele>561.8</ele>
        <time>2021-05-23T13:26:40.318Z</time>
      </trkpt>
      <trkpt lat="44.74134" lon="4.2413">
        <ele>562.56</ele>
        <time>2021-05-23T13:26:50.415Z</time>
      </trkpt>
      <trkpt lat="44.74134" lon="4.24136">
        <ele>562.49</ele>
        <time>2021-05-23T13:27:00.474Z</time>
      </trkpt>
      <trkpt lat="44.74132" lon="4.24151">
        <ele>562.03</ele>
        <time>2021-05-23T13:27:10.256Z</time>
      </trkpt>
      <trkpt lat="44.74127" lon="4.24164">
        <ele>560.95</ele>
        <time>2021-05-23T13:27:20.000Z</time>
      </trkpt>
      <trkpt lat="44.74126" lon="4.24165">
        <ele>560.78</ele>
        <time>2021-05-23T13:27:35.000Z</time>
      </trkpt>
      <trkpt lat="44.74135" lon="4.24176">
        <ele>562.62</ele>
        <time>2021-05-23T13:27:45.000Z</time>
      </trkpt>
      <trkpt lat="44.74146" lon="4.24179">
        <ele>565.55</ele>
        <time>2021-05-23T13:27:54.528Z</time>
      </trkpt>
      <trkpt lat="44.74156" lon="4.24178">
        <ele>568.3</ele>
        <time>2021-05-23T13:28:04.068Z</time>
      </trkpt>
      <trkpt lat="44.74164" lon="4.24181">
        <ele>571.19</ele>
        <time>2021-05-23T13:28:13.638Z</time>
      </trkpt>
      <trkpt lat="44.74173" lon="4.24189">
        <ele>575.17</ele>
        <time>2021-05-23T13:28:23.000Z</time>
      </trkpt>
      <trkpt lat="44.74178" lon="4.24203">
        <ele>578.37</ele>
        <time>2021-05-23T13:28:33.178Z</time>
      </trkpt>
      <trkpt lat="44.7418" lon="4.24218">
        <ele>581.04</ele>
        <time>2021-05-23T13:28:42.317Z</time>
      </trkpt>
      <trkpt lat="44.74183" lon="4.24231">
        <ele>583.6</ele>
        <time>2021-05-23T13:28:52.057Z</time>
      </trkpt>
      <trkpt lat="44.74187" lon="4.24243">
        <ele>586.29</ele>
        <time>2021-05-23T13:29:01.317Z</time>
      </trkpt>
      <trkpt lat="44.74191" lon="4.24253">
        <ele>588.51</ele>
        <time>2021-05-23T13:29:11.354Z</time>
      </trkpt>
      <trkpt lat="44.74192" lon="4.24266">
        <ele>589.7</ele>
        <time>2021-05-23T13:29:20.469Z</time>
      </trkpt>
      <trkpt lat="44.74191" lon="4.24276">
        <ele>589.86</ele>
        <time>2021-05-23T13:29:30.396Z</time>
      </trkpt>
      <trkpt lat="44.74192" lon="4.24292">
        <ele>590.56</ele>
        <time>2021-05-23T13:29:39.479Z</time>
      </trkpt>
      <trkpt lat="44.74192" lon="4.24308">
        <ele>590.62</ele>
        <time>2021-05-23T13:29:48.555Z</time>
      </trkpt>
      <trkpt lat="44.74192" lon="4.24322">
        <ele>590.01</ele>
        <time>2021-05-23T13:29:57.695Z</time>
      </trkpt>
      <trkpt lat="44.74192" lon="4.24336">
        <ele>589.09</ele>
        <time>2021-05-23T13:30:07.352Z</time>
      </trkpt>
      <trkpt lat="44.74199" lon="4.24351">
        <ele>591.23</ele>
        <time>2021-05-23T13:30:17.414Z</time>
      </trkpt>
      <trkpt lat="44.74207" lon="4.24361">
        <ele>593.97</ele>
        <time>2021-05-23T13:30:26.490Z</time>
      </trkpt>
      <trkpt lat="44.74218" lon="4.2437">
        <ele>598.4</ele>
        <time>2021-05-23T13:30:36.229Z</time>
      </trkpt>
      <trkpt lat="44.74224" lon="4.24384">
        <ele>599.39</ele>
        <time>2021-05-23T13:30:45.330Z</time>
      </trkpt>
      <trkpt lat="44.74228" lon="4.24399">
        <ele>598.68</ele>
        <time>2021-05-23T13:30:54.597Z</time>
      </trkpt>
      <trkpt lat="44.74233" lon="4.24412">
        <ele>598.39</ele>
        <time>2021-05-23T13:31:04.119Z</time>
      </trkpt>
      <trkpt lat="44.7424" lon="4.24421">
        <ele>599.34</ele>
        <time>2021-05-23T13:31:13.154Z</time>
      </trkpt>
      <trkpt lat="44.74244" lon="4.24432">
        <ele>598.19</ele>
        <time>2021-05-23T13:31:22.633Z</time>
      </trkpt>
      <trkpt lat="44.74242" lon="4.24435">
        <ele>596.78</ele>
        <time>2021-05-23T13:31:35.000Z</time>
      </trkpt>
      <trkpt lat="44.74245" lon="4.24443">
        <ele>595.69</ele>
        <time>2021-05-23T13:31:44.469Z</time>
      </trkpt>
      <trkpt lat="44.74245" lon="4.24449">
        <ele>594.03</ele>
        <time>2021-05-23T13:31:55.329Z</time>
      </trkpt>
      <trkpt lat="44.74254" lon="4.24458">
        <ele>594.91</ele>
        <time>2021-05-23T13:32:04.798Z</time>
      </trkpt>
      <trkpt lat="44.74264" lon="4.24459">
        <ele>598.41</ele>
        <time>2021-05-23T13:32:13.897Z</time>
      </trkpt>
      <trkpt lat="44.74277" lon="4.24464">
        <ele>602.31</ele>
        <time>2021-05-23T13:32:23.256Z</time>
      </trkpt>
      <trkpt lat="44.74285" lon="4.24476">
        <ele>601.09</ele>
        <time>2021-05-23T13:32:32.499Z</time>
      </trkpt>
      <trkpt lat="44.7429" lon="4.2449">
        <ele>598.65</ele>
        <time>2021-05-23T13:32:42.112Z</time>
      </trkpt>
      <trkpt lat="44.743" lon="4.24499">
        <ele>599.58</ele>
        <time>2021-05-23T13:32:52.352Z</time>
      </trkpt>
      <trkpt lat="44.74308" lon="4.24507">
        <ele>599.65</ele>
        <time>2021-05-23T13:33:01.373Z</time>
      </trkpt>
      <trkpt lat="44.74317" lon="4.24513">
        <ele>600.66</ele>
        <time>2021-05-23T13:33:11.232Z</time>
      </trkpt>
      <trkpt lat="44.74329" lon="4.24515">
        <ele>603.72</ele>
        <time>2021-05-23T13:33:21.309Z</time>
      </trkpt>
      <trkpt lat="44.74342" lon="4.24515">
        <ele>607.24</ele>
        <time>2021-05-23T13:33:30.745Z</time>
      </trkpt>
      <trkpt lat="44.74351" lon="4.24516">
        <ele>608.93</ele>
        <time>2021-05-23T13:33:40.259Z</time>
      </trkpt>
      <trkpt lat="44.74361" lon="4.24513">
        <ele>612.05</ele>
        <time>2021-05-23T13:33:49.918Z</time>
      </trkpt>
      <trkpt lat="44.74372" lon="4.24508">
        <ele>615.78</ele>
        <time>2021-05-23T13:33:59.495Z</time>
      </trkpt>
      <trkpt lat="44.74376" lon="4.24502">
        <ele>618.14</ele>
        <time>2021-05-23T13:34:08.999Z</time>
      </trkpt>
      <trkpt lat="44.74383" lon="4.24501">
        <ele>619.54</ele>
        <time>2021-05-23T13:34:34.050Z</time>
      </trkpt>
      <trkpt lat="44.74396" lon="4.24515">
        <ele>617.93</ele>
        <time>2021-05-23T13:34:43.370Z</time>
      </trkpt>
      <trkpt lat="44.74407" lon="4.24527">
        <ele>617.06</ele>
        <time>2021-05-23T13:34:52.698Z</time>
      </trkpt>
      <trkpt lat="44.74417" lon="4.24532">
        <ele>617.95</ele>
        <time>2021-05-23T13:35:01.992Z</time>
      </trkpt>
      <trkpt lat="44.74426" lon="4.24535">
        <ele>619.94</ele>
        <time>2021-05-23T13:35:11.271Z</time>
      </trkpt>
      <trkpt lat="44.74437" lon="4.2454">
        <ele>622.25</ele>
        <time>2021-05-23T13:35:21.035Z</time>
      </trkpt>
      <trkpt lat="44.74453" lon="4.24548">
        <ele>625.78</ele>
        <time>2021-05-23T13:35:30.468Z</time>
      </trkpt>
      <trkpt lat="44.74466" lon="4.24561">
        <ele>626.62</ele>
        <time>2021-05-23T13:35:40.253Z</time>
      </trkpt>
      <trkpt lat="44.74474" lon="4.24574">
        <ele>625.8</ele>
        <time>2021-05-23T13:35:49.471Z</time>
      </trkpt>
      <trkpt lat="44.74481" lon="4.24587">
        <ele>624.56</ele>
        <time>2021-05-23T13:35:58.935Z</time>
      </trkpt>
      <trkpt lat="44.74489" lon="4.246">
        <ele>623.46</ele>
        <time>2021-05-23T13:36:07.953Z</time>
      </trkpt>
      <trkpt lat="44.74499" lon="4.24612">
        <ele>622.81</ele>
        <time>2021-05-23T13:36:17.911Z</time>
      </trkpt>
      <trkpt lat="44.74508" lon="4.24622">
        <ele>622.55</ele>
        <time>2021-05-23T13:36:27.009Z</time>
      </trkpt>
      <trkpt lat="44.74517" lon="4.24624">
        <ele>624.39</ele>
        <time>2021-05-23T13:36:36.206Z</time>
      </trkpt>
      <trkpt lat="44.74526" lon="4.24625">
        <ele>626.85</ele>
        <time>2021-05-23T13:36:45.350Z</time>
      </trkpt>
      <trkpt lat="44.74533" lon="4.24626">
        <ele>628.81</ele>
        <time>2021-05-23T13:36:54.999Z</time>
      </trkpt>
      <trkpt lat="44.74548" lon="4.24629">
        <ele>631.6</ele>
        <time>2021-05-23T13:37:04.575Z</time>
      </trkpt>
      <trkpt lat="44.74563" lon="4.2463">
        <ele>634.37</ele>
        <time>2021-05-23T13:37:14.139Z</time>
      </trkpt>
      <trkpt lat="44.74573" lon="4.24633">
        <ele>634.9</ele>
        <time>2021-05-23T13:37:23.461Z</time>
      </trkpt>
      <trkpt lat="44.74584" lon="4.24636">
        <ele>635.06</ele>
        <time>2021-05-23T13:37:32.957Z</time>
      </trkpt>
      <trkpt lat="44.74595" lon="4.2464">
        <ele>634.32</ele>
        <time>2021-05-23T13:37:42.119Z</time>
      </trkpt>
      <trkpt lat="44.74599" lon="4.2464">
        <ele>634.26</ele>
        <time>2021-05-23T13:37:51.999Z</time>
      </trkpt>
      <trkpt lat="44.74597" lon="4.24637">
        <ele>635.25</ele>
        <time>2021-05-23T13:38:17.274Z</time>
      </trkpt>
      <trkpt lat="44.74603" lon="4.24642">
        <ele>633.6</ele>
        <time>2021-05-23T13:38:26.492Z</time>
      </trkpt>
      <trkpt lat="44.74617" lon="4.24653">
        <ele>630.12</ele>
        <time>2021-05-23T13:38:36.318Z</time>
      </trkpt>
      <trkpt lat="44.74625" lon="4.24662">
        <ele>626.92</ele>
        <time>2021-05-23T13:38:45.550Z</time>
      </trkpt>
      <trkpt lat="44.74632" lon="4.24673">
        <ele>623.36</ele>
        <time>2021-05-23T13:38:55.053Z</time>
      </trkpt>
      <trkpt lat="44.74641" lon="4.24678">
        <ele>621.21</ele>
        <time>2021-05-23T13:39:04.492Z</time>
      </trkpt>
      <trkpt lat="44.74648" lon="4.2468">
        <ele>619.99</ele>
        <time>2021-05-23T13:39:15.031Z</time>
      </trkpt>
      <trkpt lat="44.74655" lon="4.24676">
        <ele>619.98</ele>
        <time>2021-05-23T13:39:24.456Z</time>
      </trkpt>
      <trkpt lat="44.74673" lon="4.24665">
        <ele>618.65</ele>
        <time>2021-05-23T13:39:34.096Z</time>
      </trkpt>
      <trkpt lat="44.7469" lon="4.24651">
        <ele>616.61</ele>
        <time>2021-05-23T13:39:44.478Z</time>
      </trkpt>
      <trkpt lat="44.74701" lon="4.24637">
        <ele>615.53</ele>
        <time>2021-05-23T13:39:53.495Z</time>
      </trkpt>
      <trkpt lat="44.74712" lon="4.24619">
        <ele>615.61</ele>
        <time>2021-05-23T13:40:02.934Z</time>
      </trkpt>
      <trkpt lat="44.7472" lon="4.24605">
        <ele>616.17</ele>
        <time>2021-05-23T13:40:11.999Z</time>
      </trkpt>
      <trkpt lat="44.74727" lon="4.24588">
        <ele>618.52</ele>
        <time>2021-05-23T13:40:21.296Z</time>
      </trkpt>
      <trkpt lat="44.74734" lon="4.24576">
        <ele>619.9</ele>
        <time>2021-05-23T13:40:30.612Z</time>
      </trkpt>
      <trkpt lat="44.74742" lon="4.24564">
        <ele>620.84</ele>
        <time>2021-05-23T13:40:40.234Z</time>
      </trkpt>
      <trkpt lat="44.74747" lon="4.24562">
        <ele>620.16</ele>
        <time>2021-05-23T13:40:49.999Z</time>
      </trkpt>
      <trkpt lat="44.74754" lon="4.24558">
        <ele>619.19</ele>
        <time>2021-05-23T13:40:59.050Z</time>
      </trkpt>
      <trkpt lat="44.74764" lon="4.24553">
        <ele>618.43</ele>
        <time>2021-05-23T13:41:08.508Z</time>
      </trkpt>
      <trkpt lat="44.74773" lon="4.24546">
        <ele>619.02</ele>
        <time>2021-05-23T13:41:18.170Z</time>
      </trkpt>
      <trkpt lat="44.74784" lon="4.24555">
        <ele>613.11</ele>
        <time>2021-05-23T13:41:27.869Z</time>
      </trkpt>
      <trkpt lat="44.74795" lon="4.24562">
        <ele>608.47</ele>
        <time>2021-05-23T13:41:37.059Z</time>
      </trkpt>
      <trkpt lat="44.74806" lon="4.24561">
        <ele>606.29</ele>
        <time>2021-05-23T13:41:46.457Z</time>
      </trkpt>
      <trkpt lat="44.74818" lon="4.2456">
        <ele>604.67</ele>
        <time>2021-05-23T13:41:56.396Z</time>
      </trkpt>
      <trkpt lat="44.74825" lon="4.24561">
        <ele>602.89</ele>
        <time>2021-05-23T13:42:06.060Z</time>
      </trkpt>
      <trkpt lat="44.74834" lon="4.24563">
        <ele>600.83</ele>
        <time>2021-05-23T13:42:15.194Z</time>
      </trkpt>
      <trkpt lat="44.74849" lon="4.2456">
        <ele>599.59</ele>
        <time>2021-05-23T13:42:24.469Z</time>
      </trkpt>
      <trkpt lat="44.74859" lon="4.2456">
        <ele>597.85</ele>
        <time>2021-05-23T13:42:34.005Z</time>
      </trkpt>
      <trkpt lat="44.74873" lon="4.24559">
        <ele>596.39</ele>
        <time>2021-05-23T13:42:44.000Z</time>
      </trkpt>
      <trkpt lat="44.74878" lon="4.24559">
        <ele>595.79</ele>
        <time>2021-05-23T13:42:53.235Z</time>
      </trkpt>
      <trkpt lat="44.74893" lon="4.24555">
        <ele>594.95</ele>
        <time>2021-05-23T13:43:03.096Z</time>
      </trkpt>
      <trkpt lat="44.74903" lon="4.24552">
        <ele>594.71</ele>
        <time>2021-05-23T13:43:12.335Z</time>
      </trkpt>
      <trkpt lat="44.74921" lon="4.24554">
        <ele>592.34</ele>
        <time>2021-05-23T13:43:22.000Z</time>
      </trkpt>
      <trkpt lat="44.74944" lon="4.24552">
        <ele>590.05</ele>
        <time>2021-05-23T13:43:32.131Z</time>
      </trkpt>
      <trkpt lat="44.7496" lon="4.24557">
        <ele>587.91</ele>
        <time>2021-05-23T13:43:41.318Z</time>
      </trkpt>
      <trkpt lat="44.74973" lon="4.24566">
        <ele>586.82</ele>
        <time>2021-05-23T13:43:51.141Z</time>
      </trkpt>
      <trkpt lat="44.7498" lon="4.2458">
        <ele>586.29</ele>
        <time>2021-05-23T13:44:00.236Z</time>
      </trkpt>
      <trkpt lat="44.74987" lon="4.24593">
        <ele>586.23</ele>
        <time>2021-05-23T13:44:09.634Z</time>
      </trkpt>
      <trkpt lat="44.7499" lon="4.24611">
        <ele>585.49</ele>
        <time>2021-05-23T13:44:19.312Z</time>
      </trkpt>
      <trkpt lat="44.74989" lon="4.2463">
        <ele>583.88</ele>
        <time>2021-05-23T13:44:28.709Z</time>
      </trkpt>
      <trkpt lat="44.74994" lon="4.24649">
        <ele>583.54</ele>
        <time>2021-05-23T13:44:37.870Z</time>
      </trkpt>
      <trkpt lat="44.75002" lon="4.24658">
        <ele>585.01</ele>
        <time>2021-05-23T13:44:47.209Z</time>
      </trkpt>
      <trkpt lat="44.75009" lon="4.24661">
        <ele>586.44</ele>
        <time>2021-05-23T13:44:57.310Z</time>
      </trkpt>
      <trkpt lat="44.75019" lon="4.2467">
        <ele>589.03</ele>
        <time>2021-05-23T13:45:06.917Z</time>
      </trkpt>
      <trkpt lat="44.75026" lon="4.24681">
        <ele>590.39</ele>
        <time>2021-05-23T13:45:16.076Z</time>
      </trkpt>
      <trkpt lat="44.75036" lon="4.24691">
        <ele>592.42</ele>
        <time>2021-05-23T13:45:25.078Z</time>
      </trkpt>
      <trkpt lat="44.75046" lon="4.24697">
        <ele>595.17</ele>
        <time>2021-05-23T13:45:34.694Z</time>
      </trkpt>
      <trkpt lat="44.75056" lon="4.24702">
        <ele>598.21</ele>
        <time>2021-05-23T13:45:44.176Z</time>
      </trkpt>
      <trkpt lat="44.75066" lon="4.24708">
        <ele>601.33</ele>
        <time>2021-05-23T13:45:53.334Z</time>
      </trkpt>
      <trkpt lat="44.75076" lon="4.24715">
        <ele>604.08</ele>
        <time>2021-05-23T13:46:02.812Z</time>
      </trkpt>
      <trkpt lat="44.75084" lon="4.24727">
        <ele>605.36</ele>
        <time>2021-05-23T13:46:12.111Z</time>
      </trkpt>
      <trkpt lat="44.75088" lon="4.24732">
        <ele>606.22</ele>
        <time>2021-05-23T13:46:21.371Z</time>
      </trkpt>
      <trkpt lat="44.75094" lon="4.24741">
        <ele>607.26</ele>
        <time>2021-05-23T13:46:30.517Z</time>
      </trkpt>
      <trkpt lat="44.75098" lon="4.24747">
        <ele>607.89</ele>
        <time>2021-05-23T13:46:40.356Z</time>
      </trkpt>
      <trkpt lat="44.75103" lon="4.24754">
        <ele>609.06</ele>
        <time>2021-05-23T13:46:49.654Z</time>
      </trkpt>
      <trkpt lat="44.75104" lon="4.24775">
        <ele>606.41</ele>
        <time>2021-05-23T13:46:59.000Z</time>
      </trkpt>
      <trkpt lat="44.75104" lon="4.24793">
        <ele>604.17</ele>
        <time>2021-05-23T13:47:08.193Z</time>
      </trkpt>
      <trkpt lat="44.75112" lon="4.24813">
        <ele>604.18</ele>
        <time>2021-05-23T13:47:18.459Z</time>
      </trkpt>
      <trkpt lat="44.7512" lon="4.24828">
        <ele>605.1</ele>
        <time>2021-05-23T13:47:28.031Z</time>
      </trkpt>
      <trkpt lat="44.75129" lon="4.24842">
        <ele>606.78</ele>
        <time>2021-05-23T13:47:38.349Z</time>
      </trkpt>
      <trkpt lat="44.75138" lon="4.24858">
        <ele>608.09</ele>
        <time>2021-05-23T13:47:47.821Z</time>
      </trkpt>
      <trkpt lat="44.75144" lon="4.24873">
        <ele>608.99</ele>
        <time>2021-05-23T13:47:57.019Z</time>
      </trkpt>
      <trkpt lat="44.7515" lon="4.2489">
        <ele>609.88</ele>
        <time>2021-05-23T13:48:06.078Z</time>
      </trkpt>
      <trkpt lat="44.7515" lon="4.2491">
        <ele>607.8</ele>
        <time>2021-05-23T13:48:16.554Z</time>
      </trkpt>
      <trkpt lat="44.75154" lon="4.24929">
        <ele>607.1</ele>
        <time>2021-05-23T13:48:26.155Z</time>
      </trkpt>
      <trkpt lat="44.75157" lon="4.24952">
        <ele>605.1</ele>
        <time>2021-05-23T13:48:36.113Z</time>
      </trkpt>
      <trkpt lat="44.7516" lon="4.24975">
        <ele>603.11</ele>
        <time>2021-05-23T13:48:46.000Z</time>
      </trkpt>
      <trkpt lat="44.75171" lon="4.24996">
        <ele>603.82</ele>
        <time>2021-05-23T13:48:56.491Z</time>
      </trkpt>
      <trkpt lat="44.75184" lon="4.2501">
        <ele>605.79</ele>
        <time>2021-05-23T13:49:06.153Z</time>
      </trkpt>
      <trkpt lat="44.75195" lon="4.25022">
        <ele>607.56</ele>
        <time>2021-05-23T13:49:15.352Z</time>
      </trkpt>
      <trkpt lat="44.75207" lon="4.25032">
        <ele>608.93</ele>
        <time>2021-05-23T13:49:24.420Z</time>
      </trkpt>
      <trkpt lat="44.7522" lon="4.25044">
        <ele>610.21</ele>
        <time>2021-05-23T13:49:34.300Z</time>
      </trkpt>
      <trkpt lat="44.75231" lon="4.25056">
        <ele>610.11</ele>
        <time>2021-05-23T13:49:44.221Z</time>
      </trkpt>
      <trkpt lat="44.75242" lon="4.25064">
        <ele>610.5</ele>
        <time>2021-05-23T13:49:54.235Z</time>
      </trkpt>
      <trkpt lat="44.75247" lon="4.25067">
        <ele>610.82</ele>
        <time>2021-05-23T13:50:04.000Z</time>
      </trkpt>
      <trkpt lat="44.75248" lon="4.25069">
        <ele>610.61</ele>
        <time>2021-05-23T13:50:14.000Z</time>
      </trkpt>
      <trkpt lat="44.7526" lon="4.25079">
        <ele>610.71</ele>
        <time>2021-05-23T13:50:23.391Z</time>
      </trkpt>
      <trkpt lat="44.75275" lon="4.25087">
        <ele>612.07</ele>
        <time>2021-05-23T13:50:33.154Z</time>
      </trkpt>
      <trkpt lat="44.75284" lon="4.25101">
        <ele>610.52</ele>
        <time>2021-05-23T13:50:42.231Z</time>
      </trkpt>
      <trkpt lat="44.75294" lon="4.25111">
        <ele>609.72</ele>
        <time>2021-05-23T13:50:51.466Z</time>
      </trkpt>
      <trkpt lat="44.75304" lon="4.25125">
        <ele>607.49</ele>
        <time>2021-05-23T13:51:01.149Z</time>
      </trkpt>
      <trkpt lat="44.75315" lon="4.25142">
        <ele>604.82</ele>
        <time>2021-05-23T13:51:11.122Z</time>
      </trkpt>
      <trkpt lat="44.75325" lon="4.25153">
        <ele>603.43</ele>
        <time>2021-05-23T13:51:20.516Z</time>
      </trkpt>
      <trkpt lat="44.75335" lon="4.25173">
        <ele>601.46</ele>
        <time>2021-05-23T13:51:30.460Z</time>
      </trkpt>
      <trkpt lat="44.75344" lon="4.25189">
        <ele>601.51</ele>
        <time>2021-05-23T13:51:39.474Z</time>
      </trkpt>
      <trkpt lat="44.75355" lon="4.25204">
        <ele>602.8</ele>
        <time>2021-05-23T13:51:48.799Z</time>
      </trkpt>
      <trkpt lat="44.75351" lon="4.25209">
        <ele>602.24</ele>
        <time>2021-05-23T13:51:58.000Z</time>
      </trkpt>
      <trkpt lat="44.75355" lon="4.25208">
        <ele>602.78</ele>
        <time>2021-05-23T13:52:09.396Z</time>
      </trkpt>
      <trkpt lat="44.75369" lon="4.25217">
        <ele>605.6</ele>
        <time>2021-05-23T13:52:18.472Z</time>
      </trkpt>
      <trkpt lat="44.75381" lon="4.25225">
        <ele>608.35</ele>
        <time>2021-05-23T13:52:28.533Z</time>
      </trkpt>
      <trkpt lat="44.75381" lon="4.25235">
        <ele>608.19</ele>
        <time>2021-05-23T13:52:38.152Z</time>
      </trkpt>
      <trkpt lat="44.75384" lon="4.25235">
        <ele>608.91</ele>
        <time>2021-05-23T13:52:47.328Z</time>
      </trkpt>
      <trkpt lat="44.75396" lon="4.25238">
        <ele>611.6</ele>
        <time>2021-05-23T13:52:56.632Z</time>
      </trkpt>
      <trkpt lat="44.75405" lon="4.25239">
        <ele>613.76</ele>
        <time>2021-05-23T13:53:05.999Z</time>
      </trkpt>
      <trkpt lat="44.75411" lon="4.25248">
        <ele>614.95</ele>
        <time>2021-05-23T13:53:16.251Z</time>
      </trkpt>
      <trkpt lat="44.75415" lon="4.25263">
        <ele>615.16</ele>
        <time>2021-05-23T13:53:26.315Z</time>
      </trkpt>
      <trkpt lat="44.7542" lon="4.25269">
        <ele>616.03</ele>
        <time>2021-05-23T13:53:35.775Z</time>
      </trkpt>
      <trkpt lat="44.75423" lon="4.25255">
        <ele>617.17</ele>
        <time>2021-05-23T13:53:45.194Z</time>
      </trkpt>
      <trkpt lat="44.75428" lon="4.25251">
        <ele>618.48</ele>
        <time>2021-05-23T13:53:55.232Z</time>
      </trkpt>
      <trkpt lat="44.75438" lon="4.25255">
        <ele>620.64</ele>
        <time>2021-05-23T13:54:04.999Z</time>
      </trkpt>
      <trkpt lat="44.75444" lon="4.25257">
        <ele>622.05</ele>
        <time>2021-05-23T13:54:14.112Z</time>
      </trkpt>
      <trkpt lat="44.75453" lon="4.25261">
        <ele>624.46</ele>
        <time>2021-05-23T13:54:24.150Z</time>
      </trkpt>
      <trkpt lat="44.75461" lon="4.25262">
        <ele>626.72</ele>
        <time>2021-05-23T13:54:33.386Z</time>
      </trkpt>
      <trkpt lat="44.75469" lon="4.25267">
        <ele>629.15</ele>
        <time>2021-05-23T13:54:43.403Z</time>
      </trkpt>
      <trkpt lat="44.75478" lon="4.2527">
        <ele>631.91</ele>
        <time>2021-05-23T13:54:52.460Z</time>
      </trkpt>
      <trkpt lat="44.75487" lon="4.25271">
        <ele>634.49</ele>
        <time>2021-05-23T13:55:01.857Z</time>
      </trkpt>
      <trkpt lat="44.75493" lon="4.25274">
        <ele>636.62</ele>
        <time>2021-05-23T13:55:11.397Z</time>
      </trkpt>
      <trkpt lat="44.75506" lon="4.25279">
        <ele>641.5</ele>
        <time>2021-05-23T13:55:21.356Z</time>
      </trkpt>
      <trkpt lat="44.75514" lon="4.2528">
        <ele>643.87</ele>
        <time>2021-05-23T13:55:31.096Z</time>
      </trkpt>
      <trkpt lat="44.7552" lon="4.25277">
        <ele>645.59</ele>
        <time>2021-05-23T13:55:41.472Z</time>
      </trkpt>
      <trkpt lat="44.75526" lon="4.25279">
        <ele>647.69</ele>
        <time>2021-05-23T13:55:51.054Z</time>
      </trkpt>
      <trkpt lat="44.75535" lon="4.25287">
        <ele>651.84</ele>
        <time>2021-05-23T13:56:00.372Z</time>
      </trkpt>
      <trkpt lat="44.75543" lon="4.25291">
        <ele>655.48</ele>
        <time>2021-05-23T13:56:10.518Z</time>
      </trkpt>
      <trkpt lat="44.75552" lon="4.25297">
        <ele>659.65</ele>
        <time>2021-05-23T13:56:19.536Z</time>
      </trkpt>
      <trkpt lat="44.75555" lon="4.25312">
        <ele>662.47</ele>
        <time>2021-05-23T13:56:28.625Z</time>
      </trkpt>
      <trkpt lat="44.75549" lon="4.25328">
        <ele>661.42</ele>
        <time>2021-05-23T13:56:38.196Z</time>
      </trkpt>
      <trkpt lat="44.75545" lon="4.25342">
        <ele>659.94</ele>
        <time>2021-05-23T13:56:47.492Z</time>
      </trkpt>
      <trkpt lat="44.75545" lon="4.25356">
        <ele>659.46</ele>
        <time>2021-05-23T13:56:57.113Z</time>
      </trkpt>
      <trkpt lat="44.75548" lon="4.25355">
        <ele>660.53</ele>
        <time>2021-05-23T13:57:06.482Z</time>
      </trkpt>
      <trkpt lat="44.75548" lon="4.25368">
        <ele>659.55</ele>
        <time>2021-05-23T13:57:15.492Z</time>
      </trkpt>
      <trkpt lat="44.75549" lon="4.25382">
        <ele>658.69</ele>
        <time>2021-05-23T13:57:25.169Z</time>
      </trkpt>
      <trkpt lat="44.75555" lon="4.25393">
        <ele>660.36</ele>
        <time>2021-05-23T13:57:34.509Z</time>
      </trkpt>
      <trkpt lat="44.75563" lon="4.254">
        <ele>664.21</ele>
        <time>2021-05-23T13:57:43.979Z</time>
      </trkpt>
      <trkpt lat="44.7557" lon="4.25406">
        <ele>667.46</ele>
        <time>2021-05-23T13:57:52.999Z</time>
      </trkpt>
      <trkpt lat="44.7557" lon="4.25402">
        <ele>667.77</ele>
        <time>2021-05-23T13:58:02.315Z</time>
      </trkpt>
      <trkpt lat="44.75568" lon="4.25389">
        <ele>667.47</ele>
        <time>2021-05-23T13:58:11.466Z</time>
      </trkpt>
      <trkpt lat="44.75575" lon="4.25395">
        <ele>670.71</ele>
        <time>2021-05-23T13:58:21.467Z</time>
      </trkpt>
      <trkpt lat="44.75582" lon="4.25405">
        <ele>673.65</ele>
        <time>2021-05-23T13:58:30.999Z</time>
      </trkpt>
      <trkpt lat="44.75588" lon="4.25413">
        <ele>676.63</ele>
        <time>2021-05-23T13:58:40.276Z</time>
      </trkpt>
      <trkpt lat="44.75593" lon="4.25421">
        <ele>678.95</ele>
        <time>2021-05-23T13:58:49.495Z</time>
      </trkpt>
      <trkpt lat="44.75599" lon="4.25431">
        <ele>681.99</ele>
        <time>2021-05-23T13:58:59.032Z</time>
      </trkpt>
      <trkpt lat="44.75603" lon="4.25436">
        <ele>684.09</ele>
        <time>2021-05-23T13:59:08.427Z</time>
      </trkpt>
      <trkpt lat="44.75604" lon="4.25442">
        <ele>684.62</ele>
        <time>2021-05-23T13:59:18.255Z</time>
      </trkpt>
      <trkpt lat="44.75605" lon="4.25466">
        <ele>684.48</ele>
        <time>2021-05-23T13:59:28.176Z</time>
      </trkpt>
      <trkpt lat="44.75603" lon="4.25482">
        <ele>682.61</ele>
        <time>2021-05-23T13:59:37.496Z</time>
      </trkpt>
      <trkpt lat="44.75607" lon="4.25503">
        <ele>683.4</ele>
        <time>2021-05-23T13:59:46.753Z</time>
      </trkpt>
      <trkpt lat="44.75608" lon="4.25517">
        <ele>682.59</ele>
        <time>2021-05-23T13:59:56.312Z</time>
      </trkpt>
      <trkpt lat="44.75614" lon="4.25529">
        <ele>684.06</ele>
        <time>2021-05-23T14:00:05.671Z</time>
      </trkpt>
      <trkpt lat="44.75618" lon="4.25538">
        <ele>685.68</ele>
        <time>2021-05-23T14:00:14.990Z</time>
      </trkpt>
      <trkpt lat="44.75624" lon="4.2555">
        <ele>687.26</ele>
        <time>2021-05-23T14:00:24.167Z</time>
      </trkpt>
      <trkpt lat="44.75632" lon="4.25564">
        <ele>690.08</ele>
        <time>2021-05-23T14:00:34.316Z</time>
      </trkpt>
      <trkpt lat="44.75637" lon="4.25573">
        <ele>691.94</ele>
        <time>2021-05-23T14:00:43.999Z</time>
      </trkpt>
      <trkpt lat="44.75639" lon="4.2558">
        <ele>691.94</ele>
        <time>2021-05-23T14:00:53.237Z</time>
      </trkpt>
      <trkpt lat="44.75642" lon="4.25593">
        <ele>691.46</ele>
        <time>2021-05-23T14:01:02.515Z</time>
      </trkpt>
      <trkpt lat="44.75645" lon="4.25611">
        <ele>690.54</ele>
        <time>2021-05-23T14:01:11.875Z</time>
      </trkpt>
      <trkpt lat="44.7565" lon="4.25627">
        <ele>690.18</ele>
        <time>2021-05-23T14:01:21.276Z</time>
      </trkpt>
      <trkpt lat="44.75656" lon="4.25644">
        <ele>690.52</ele>
        <time>2021-05-23T14:01:30.755Z</time>
      </trkpt>
      <trkpt lat="44.75663" lon="4.25658">
        <ele>692.77</ele>
        <time>2021-05-23T14:01:39.951Z</time>
      </trkpt>
      <trkpt lat="44.75669" lon="4.25672">
        <ele>694.97</ele>
        <time>2021-05-23T14:01:49.032Z</time>
      </trkpt>
      <trkpt lat="44.75677" lon="4.25681">
        <ele>698.38</ele>
        <time>2021-05-23T14:01:58.272Z</time>
      </trkpt>
      <trkpt lat="44.75684" lon="4.25694">
        <ele>701.68</ele>
        <time>2021-05-23T14:02:07.550Z</time>
      </trkpt>
      <trkpt lat="44.75691" lon="4.25706">
        <ele>704.84</ele>
        <time>2021-05-23T14:02:17.069Z</time>
      </trkpt>
      <trkpt lat="44.75698" lon="4.25717">
        <ele>708.07</ele>
        <time>2021-05-23T14:02:26.370Z</time>
      </trkpt>
      <trkpt lat="44.75704" lon="4.25727">
        <ele>711.07</ele>
        <time>2021-05-23T14:02:35.476Z</time>
      </trkpt>
      <trkpt lat="44.75709" lon="4.2574">
        <ele>712.55</ele>
        <time>2021-05-23T14:02:44.554Z</time>
      </trkpt>
      <trkpt lat="44.75711" lon="4.25756">
        <ele>712.56</ele>
        <time>2021-05-23T14:02:54.313Z</time>
      </trkpt>
      <trkpt lat="44.75713" lon="4.25769">
        <ele>713.37</ele>
        <time>2021-05-23T14:03:03.852Z</time>
      </trkpt>
      <trkpt lat="44.75714" lon="4.25785">
        <ele>713.43</ele>
        <time>2021-05-23T14:03:13.071Z</time>
      </trkpt>
      <trkpt lat="44.75715" lon="4.25798">
        <ele>713.23</ele>
        <time>2021-05-23T14:03:22.288Z</time>
      </trkpt>
      <trkpt lat="44.75712" lon="4.25819">
        <ele>711.28</ele>
        <time>2021-05-23T14:03:31.891Z</time>
      </trkpt>
      <trkpt lat="44.75712" lon="4.25838">
        <ele>710.4</ele>
        <time>2021-05-23T14:03:40.950Z</time>
      </trkpt>
      <trkpt lat="44.75711" lon="4.25852">
        <ele>709.92</ele>
        <time>2021-05-23T14:03:50.599Z</time>
      </trkpt>
      <trkpt lat="44.75712" lon="4.25869">
        <ele>710.98</ele>
        <time>2021-05-23T14:04:00.196Z</time>
      </trkpt>
      <trkpt lat="44.75714" lon="4.25888">
        <ele>712.2</ele>
        <time>2021-05-23T14:04:10.099Z</time>
      </trkpt>
      <trkpt lat="44.75717" lon="4.25903">
        <ele>713.02</ele>
        <time>2021-05-23T14:04:19.515Z</time>
      </trkpt>
      <trkpt lat="44.75724" lon="4.25919">
        <ele>713.42</ele>
        <time>2021-05-23T14:04:28.635Z</time>
      </trkpt>
      <trkpt lat="44.7573" lon="4.25935">
        <ele>711.04</ele>
        <time>2021-05-23T14:04:38.293Z</time>
      </trkpt>
      <trkpt lat="44.75739" lon="4.25944">
        <ele>710.56</ele>
        <time>2021-05-23T14:04:48.199Z</time>
      </trkpt>
      <trkpt lat="44.75753" lon="4.2595">
        <ele>712.13</ele>
        <time>2021-05-23T14:04:57.954Z</time>
      </trkpt>
      <trkpt lat="44.75768" lon="4.25961">
        <ele>710.55</ele>
        <time>2021-05-23T14:05:07.853Z</time>
      </trkpt>
      <trkpt lat="44.75781" lon="4.25967">
        <ele>709.87</ele>
        <time>2021-05-23T14:05:17.291Z</time>
      </trkpt>
      <trkpt lat="44.75791" lon="4.25976">
        <ele>707.58</ele>
        <time>2021-05-23T14:05:26.670Z</time>
      </trkpt>
      <trkpt lat="44.75803" lon="4.25982">
        <ele>706.75</ele>
        <time>2021-05-23T14:05:36.516Z</time>
      </trkpt>
      <trkpt lat="44.75814" lon="4.25987">
        <ele>705.8</ele>
        <time>2021-05-23T14:05:45.976Z</time>
      </trkpt>
      <trkpt lat="44.75826" lon="4.25994">
        <ele>704.79</ele>
        <time>2021-05-23T14:05:54.994Z</time>
      </trkpt>
      <trkpt lat="44.75837" lon="4.25996">
        <ele>705.11</ele>
        <time>2021-05-23T14:06:04.914Z</time>
      </trkpt>
      <trkpt lat="44.75845" lon="4.25995">
        <ele>706.47</ele>
        <time>2021-05-23T14:06:14.139Z</time>
      </trkpt>
      <trkpt lat="44.75851" lon="4.25992">
        <ele>708.61</ele>
        <time>2021-05-23T14:06:23.192Z</time>
      </trkpt>
      <trkpt lat="44.7586" lon="4.25983">
        <ele>712.75</ele>
        <time>2021-05-23T14:06:32.467Z</time>
      </trkpt>
      <trkpt lat="44.75867" lon="4.25975">
        <ele>716.04</ele>
        <time>2021-05-23T14:06:41.971Z</time>
      </trkpt>
      <trkpt lat="44.75877" lon="4.25956">
        <ele>721.85</ele>
        <time>2021-05-23T14:06:51.071Z</time>
      </trkpt>
      <trkpt lat="44.75891" lon="4.25943">
        <ele>724.9</ele>
        <time>2021-05-23T14:07:00.229Z</time>
      </trkpt>
      <trkpt lat="44.75903" lon="4.25944">
        <ele>724.84</ele>
        <time>2021-05-23T14:07:09.507Z</time>
      </trkpt>
      <trkpt lat="44.75915" lon="4.25955">
        <ele>723.01</ele>
        <time>2021-05-23T14:07:18.957Z</time>
      </trkpt>
      <trkpt lat="44.75931" lon="4.25969">
        <ele>721.78</ele>
        <time>2021-05-23T14:07:28.560Z</time>
      </trkpt>
      <trkpt lat="44.75939" lon="4.25974">
        <ele>721.43</ele>
        <time>2021-05-23T14:07:38.476Z</time>
      </trkpt>
      <trkpt lat="44.75944" lon="4.25977">
        <ele>721.32</ele>
        <time>2021-05-23T14:07:48.000Z</time>
      </trkpt>
      <trkpt lat="44.75945" lon="4.25978">
        <ele>721.3</ele>
        <time>2021-05-23T14:07:59.000Z</time>
      </trkpt>
      <trkpt lat="44.75945" lon="4.25981">
        <ele>720.44</ele>
        <time>2021-05-23T14:08:16.333Z</time>
      </trkpt>
      <trkpt lat="44.75944" lon="4.25986">
        <ele>718.74</ele>
        <time>2021-05-23T14:08:28.000Z</time>
      </trkpt>
      <trkpt lat="44.75945" lon="4.25988">
        <ele>718.32</ele>
        <time>2021-05-23T14:08:38.000Z</time>
      </trkpt>
      <trkpt lat="44.75945" lon="4.25977">
        <ele>721.53</ele>
        <time>2021-05-23T14:09:36.111Z</time>
      </trkpt>
      <trkpt lat="44.75954" lon="4.25978">
        <ele>722.38</ele>
        <time>2021-05-23T14:09:45.251Z</time>
      </trkpt>
      <trkpt lat="44.75965" lon="4.25979">
        <ele>723.46</ele>
        <time>2021-05-23T14:09:55.383Z</time>
      </trkpt>
      <trkpt lat="44.75979" lon="4.25985">
        <ele>723.24</ele>
        <time>2021-05-23T14:10:05.269Z</time>
      </trkpt>
      <trkpt lat="44.75985" lon="4.25987">
        <ele>722.97</ele>
        <time>2021-05-23T14:10:15.000Z</time>
      </trkpt>
      <trkpt lat="44.75989" lon="4.25986">
        <ele>723.73</ele>
        <time>2021-05-23T14:10:50.717Z</time>
      </trkpt>
      <trkpt lat="44.75997" lon="4.25992">
        <ele>722.84</ele>
        <time>2021-05-23T14:11:00.076Z</time>
      </trkpt>
      <trkpt lat="44.76003" lon="4.25992">
        <ele>723.39</ele>
        <time>2021-05-23T14:11:09.196Z</time>
      </trkpt>
      <trkpt lat="44.76011" lon="4.25998">
        <ele>722.44</ele>
        <time>2021-05-23T14:11:18.631Z</time>
      </trkpt>
      <trkpt lat="44.76021" lon="4.2601">
        <ele>719.02</ele>
        <time>2021-05-23T14:11:28.000Z</time>
      </trkpt>
      <trkpt lat="44.76033" lon="4.26021">
        <ele>716.3</ele>
        <time>2021-05-23T14:11:37.492Z</time>
      </trkpt>
      <trkpt lat="44.76042" lon="4.26026">
        <ele>716.07</ele>
        <time>2021-05-23T14:11:47.030Z</time>
      </trkpt>
      <trkpt lat="44.76052" lon="4.2603">
        <ele>716.2</ele>
        <time>2021-05-23T14:11:56.486Z</time>
      </trkpt>
      <trkpt lat="44.76058" lon="4.26037">
        <ele>714.87</ele>
        <time>2021-05-23T14:12:05.513Z</time>
      </trkpt>
      <trkpt lat="44.76061" lon="4.2604">
        <ele>714.28</ele>
        <time>2021-05-23T14:12:14.675Z</time>
      </trkpt>
      <trkpt lat="44.76068" lon="4.26045">
        <ele>714.24</ele>
        <time>2021-05-23T14:12:24.094Z</time>
      </trkpt>
      <trkpt lat="44.76076" lon="4.26046">
        <ele>715.7</ele>
        <time>2021-05-23T14:12:33.591Z</time>
      </trkpt>
      <trkpt lat="44.76085" lon="4.2605">
        <ele>716.88</ele>
        <time>2021-05-23T14:12:45.999Z</time>
      </trkpt>
      <trkpt lat="44.76091" lon="4.26051">
        <ele>718.02</ele>
        <time>2021-05-23T14:12:55.152Z</time>
      </trkpt>
      <trkpt lat="44.761" lon="4.26053">
        <ele>719.96</ele>
        <time>2021-05-23T14:13:04.273Z</time>
      </trkpt>
      <trkpt lat="44.76107" lon="4.26054">
        <ele>721.73</ele>
        <time>2021-05-23T14:13:17.188Z</time>
      </trkpt>
      <trkpt lat="44.76112" lon="4.2606">
        <ele>721.63</ele>
        <time>2021-05-23T14:13:27.470Z</time>
      </trkpt>
      <trkpt lat="44.76117" lon="4.26067">
        <ele>720.79</ele>
        <time>2021-05-23T14:13:37.279Z</time>
      </trkpt>
      <trkpt lat="44.76122" lon="4.26076">
        <ele>719.54</ele>
        <time>2021-05-23T14:13:46.617Z</time>
      </trkpt>
      <trkpt lat="44.76125" lon="4.26085">
        <ele>717.62</ele>
        <time>2021-05-23T14:13:56.278Z</time>
      </trkpt>
      <trkpt lat="44.76135" lon="4.26098">
        <ele>716.07</ele>
        <time>2021-05-23T14:14:06.175Z</time>
      </trkpt>
      <trkpt lat="44.76143" lon="4.26105">
        <ele>715.76</ele>
        <time>2021-05-23T14:14:15.378Z</time>
      </trkpt>
      <trkpt lat="44.76151" lon="4.2611">
        <ele>715.88</ele>
        <time>2021-05-23T14:14:24.777Z</time>
      </trkpt>
      <trkpt lat="44.76156" lon="4.26118">
        <ele>713.53</ele>
        <time>2021-05-23T14:14:34.114Z</time>
      </trkpt>
      <trkpt lat="44.76164" lon="4.26126">
        <ele>711.73</ele>
        <time>2021-05-23T14:14:43.311Z</time>
      </trkpt>
      <trkpt lat="44.76175" lon="4.26131">
        <ele>711.12</ele>
        <time>2021-05-23T14:14:53.173Z</time>
      </trkpt>
      <trkpt lat="44.76186" lon="4.26134">
        <ele>710.27</ele>
        <time>2021-05-23T14:15:02.231Z</time>
      </trkpt>
      <trkpt lat="44.76194" lon="4.26134">
        <ele>710.63</ele>
        <time>2021-05-23T14:15:12.349Z</time>
      </trkpt>
      <trkpt lat="44.76202" lon="4.26133">
        <ele>710.65</ele>
        <time>2021-05-23T14:15:22.231Z</time>
      </trkpt>
      <trkpt lat="44.7621" lon="4.26126">
        <ele>713.44</ele>
        <time>2021-05-23T14:15:31.417Z</time>
      </trkpt>
      <trkpt lat="44.7622" lon="4.2612">
        <ele>715.35</ele>
        <time>2021-05-23T14:15:41.236Z</time>
      </trkpt>
      <trkpt lat="44.76228" lon="4.26108">
        <ele>720.29</ele>
        <time>2021-05-23T14:15:51.255Z</time>
      </trkpt>
      <trkpt lat="44.76233" lon="4.26096">
        <ele>725.01</ele>
        <time>2021-05-23T14:16:00.999Z</time>
      </trkpt>
      <trkpt lat="44.76236" lon="4.26095">
        <ele>725.52</ele>
        <time>2021-05-23T14:16:10.272Z</time>
      </trkpt>
      <trkpt lat="44.76241" lon="4.26099">
        <ele>723.87</ele>
        <time>2021-05-23T14:16:19.413Z</time>
      </trkpt>
      <trkpt lat="44.7625" lon="4.26105">
        <ele>722.06</ele>
        <time>2021-05-23T14:16:28.999Z</time>
      </trkpt>
      <trkpt lat="44.76255" lon="4.26108">
        <ele>721.1</ele>
        <time>2021-05-23T14:16:38.270Z</time>
      </trkpt>
      <trkpt lat="44.76265" lon="4.26117">
        <ele>718.1</ele>
        <time>2021-05-23T14:16:47.309Z</time>
      </trkpt>
      <trkpt lat="44.76275" lon="4.26124">
        <ele>716.01</ele>
        <time>2021-05-23T14:16:56.508Z</time>
      </trkpt>
      <trkpt lat="44.76281" lon="4.26127">
        <ele>715.55</ele>
        <time>2021-05-23T14:17:05.797Z</time>
      </trkpt>
      <trkpt lat="44.76292" lon="4.26135">
        <ele>713.42</ele>
        <time>2021-05-23T14:17:15.096Z</time>
      </trkpt>
      <trkpt lat="44.76304" lon="4.26136">
        <ele>714.96</ele>
        <time>2021-05-23T14:17:24.758Z</time>
      </trkpt>
      <trkpt lat="44.76312" lon="4.26126">
        <ele>720.6</ele>
        <time>2021-05-23T14:17:34.497Z</time>
      </trkpt>
      <trkpt lat="44.76322" lon="4.26129">
        <ele>721.05</ele>
        <time>2021-05-23T14:17:43.999Z</time>
      </trkpt>
      <trkpt lat="44.76336" lon="4.26135">
        <ele>722.03</ele>
        <time>2021-05-23T14:17:53.217Z</time>
      </trkpt>
      <trkpt lat="44.76347" lon="4.26144">
        <ele>721.31</ele>
        <time>2021-05-23T14:18:03.196Z</time>
      </trkpt>
      <trkpt lat="44.76358" lon="4.26148">
        <ele>723.37</ele>
        <time>2021-05-23T14:18:12.814Z</time>
      </trkpt>
      <trkpt lat="44.7637" lon="4.2615">
        <ele>727.48</ele>
        <time>2021-05-23T14:18:21.875Z</time>
      </trkpt>
      <trkpt lat="44.76382" lon="4.26152">
        <ele>731.81</ele>
        <time>2021-05-23T14:18:31.173Z</time>
      </trkpt>
      <trkpt lat="44.76394" lon="4.26155">
        <ele>735.17</ele>
        <time>2021-05-23T14:18:40.772Z</time>
      </trkpt>
      <trkpt lat="44.76401" lon="4.26156">
        <ele>737.41</ele>
        <time>2021-05-23T14:18:49.908Z</time>
      </trkpt>
      <trkpt lat="44.76408" lon="4.26161">
        <ele>737.58</ele>
        <time>2021-05-23T14:18:59.278Z</time>
      </trkpt>
      <trkpt lat="44.76415" lon="4.26168">
        <ele>737.25</ele>
        <time>2021-05-23T14:19:09.276Z</time>
      </trkpt>
      <trkpt lat="44.76421" lon="4.26176">
        <ele>735.37</ele>
        <time>2021-05-23T14:19:18.976Z</time>
      </trkpt>
      <trkpt lat="44.76427" lon="4.26179">
        <ele>735.71</ele>
        <time>2021-05-23T14:19:45.114Z</time>
      </trkpt>
      <trkpt lat="44.76439" lon="4.26186">
        <ele>736.39</ele>
        <time>2021-05-23T14:19:54.511Z</time>
      </trkpt>
      <trkpt lat="44.76451" lon="4.26187">
        <ele>739.05</ele>
        <time>2021-05-23T14:20:04.309Z</time>
      </trkpt>
      <trkpt lat="44.76457" lon="4.26188">
        <ele>740.36</ele>
        <time>2021-05-23T14:20:14.409Z</time>
      </trkpt>
      <trkpt lat="44.76466" lon="4.2619">
        <ele>741.67</ele>
        <time>2021-05-23T14:20:23.477Z</time>
      </trkpt>
      <trkpt lat="44.76472" lon="4.26191">
        <ele>742.4</ele>
        <time>2021-05-23T14:20:40.117Z</time>
      </trkpt>
      <trkpt lat="44.76481" lon="4.26188">
        <ele>744.71</ele>
        <time>2021-05-23T14:20:55.276Z</time>
      </trkpt>
      <trkpt lat="44.76486" lon="4.26188">
        <ele>745.47</ele>
        <time>2021-05-23T14:21:07.534Z</time>
      </trkpt>
      <trkpt lat="44.76495" lon="4.26177">
        <ele>749.32</ele>
        <time>2021-05-23T14:21:16.695Z</time>
      </trkpt>
      <trkpt lat="44.765" lon="4.26169">
        <ele>752.3</ele>
        <time>2021-05-23T14:21:26.454Z</time>
      </trkpt>
      <trkpt lat="44.76504" lon="4.26164">
        <ele>753.79</ele>
        <time>2021-05-23T14:21:36.312Z</time>
      </trkpt>
      <trkpt lat="44.76511" lon="4.26149">
        <ele>758.6</ele>
        <time>2021-05-23T14:21:45.489Z</time>
      </trkpt>
      <trkpt lat="44.76514" lon="4.26144">
        <ele>760.25</ele>
        <time>2021-05-23T14:21:55.516Z</time>
      </trkpt>
      <trkpt lat="44.76523" lon="4.26133">
        <ele>762.97</ele>
        <time>2021-05-23T14:22:05.057Z</time>
      </trkpt>
      <trkpt lat="44.76532" lon="4.26124">
        <ele>765.08</ele>
        <time>2021-05-23T14:22:14.098Z</time>
      </trkpt>
      <trkpt lat="44.76544" lon="4.26115">
        <ele>765.99</ele>
        <time>2021-05-23T14:22:23.553Z</time>
      </trkpt>
      <trkpt lat="44.76557" lon="4.26112">
        <ele>763.87</ele>
        <time>2021-05-23T14:22:33.050Z</time>
      </trkpt>
      <trkpt lat="44.76569" lon="4.26106">
        <ele>762.88</ele>
        <time>2021-05-23T14:22:42.171Z</time>
      </trkpt>
      <trkpt lat="44.76581" lon="4.26092">
        <ele>766.75</ele>
        <time>2021-05-23T14:22:52.054Z</time>
      </trkpt>
      <trkpt lat="44.76591" lon="4.2608">
        <ele>769.18</ele>
        <time>2021-05-23T14:23:02.268Z</time>
      </trkpt>
      <trkpt lat="44.76598" lon="4.26081">
        <ele>766.25</ele>
        <time>2021-05-23T14:23:11.616Z</time>
      </trkpt>
      <trkpt lat="44.76607" lon="4.26077">
        <ele>765.09</ele>
        <time>2021-05-23T14:23:20.996Z</time>
      </trkpt>
      <trkpt lat="44.76614" lon="4.26065">
        <ele>767.54</ele>
        <time>2021-05-23T14:23:31.216Z</time>
      </trkpt>
      <trkpt lat="44.76618" lon="4.26055">
        <ele>770.33</ele>
        <time>2021-05-23T14:23:41.000Z</time>
      </trkpt>
      <trkpt lat="44.76622" lon="4.26053">
        <ele>769.72</ele>
        <time>2021-05-23T14:23:50.053Z</time>
      </trkpt>
      <trkpt lat="44.76628" lon="4.26045">
        <ele>771.02</ele>
        <time>2021-05-23T14:24:00.195Z</time>
      </trkpt>
      <trkpt lat="44.76634" lon="4.26036">
        <ele>772.19</ele>
        <time>2021-05-23T14:24:09.551Z</time>
      </trkpt>
      <trkpt lat="44.76641" lon="4.26024">
        <ele>774.39</ele>
        <time>2021-05-23T14:24:19.315Z</time>
      </trkpt>
      <trkpt lat="44.76648" lon="4.26014">
        <ele>774.95</ele>
        <time>2021-05-23T14:24:28.510Z</time>
      </trkpt>
      <trkpt lat="44.76654" lon="4.26003">
        <ele>776.38</ele>
        <time>2021-05-23T14:24:37.971Z</time>
      </trkpt>
      <trkpt lat="44.76666" lon="4.25996">
        <ele>772.55</ele>
        <time>2021-05-23T14:24:47.000Z</time>
      </trkpt>
      <trkpt lat="44.76672" lon="4.2598">
        <ele>774.99</ele>
        <time>2021-05-23T14:24:56.115Z</time>
      </trkpt>
      <trkpt lat="44.76682" lon="4.25967">
        <ele>773.22</ele>
        <time>2021-05-23T14:25:06.315Z</time>
      </trkpt>
      <trkpt lat="44.76683" lon="4.25958">
        <ele>775.74</ele>
        <time>2021-05-23T14:25:15.414Z</time>
      </trkpt>
      <trkpt lat="44.76689" lon="4.25949">
        <ele>774.68</ele>
        <time>2021-05-23T14:25:24.893Z</time>
      </trkpt>
      <trkpt lat="44.76693" lon="4.25943">
        <ele>774.53</ele>
        <time>2021-05-23T14:25:33.931Z</time>
      </trkpt>
      <trkpt lat="44.76698" lon="4.25927">
        <ele>776.25</ele>
        <time>2021-05-23T14:25:43.250Z</time>
      </trkpt>
      <trkpt lat="44.76707" lon="4.25913">
        <ele>775.45</ele>
        <time>2021-05-23T14:25:52.468Z</time>
      </trkpt>
      <trkpt lat="44.76713" lon="4.25901">
        <ele>776.21</ele>
        <time>2021-05-23T14:26:01.680Z</time>
      </trkpt>
      <trkpt lat="44.76718" lon="4.25894">
        <ele>775.82</ele>
        <time>2021-05-23T14:26:11.436Z</time>
      </trkpt>
      <trkpt lat="44.76726" lon="4.25885">
        <ele>774.96</ele>
        <time>2021-05-23T14:26:20.981Z</time>
      </trkpt>
      <trkpt lat="44.76735" lon="4.25874">
        <ele>774.71</ele>
        <time>2021-05-23T14:26:31.237Z</time>
      </trkpt>
      <trkpt lat="44.76742" lon="4.25863">
        <ele>775.15</ele>
        <time>2021-05-23T14:26:40.955Z</time>
      </trkpt>
      <trkpt lat="44.76751" lon="4.25851">
        <ele>775.79</ele>
        <time>2021-05-23T14:26:50.464Z</time>
      </trkpt>
      <trkpt lat="44.76756" lon="4.25842">
        <ele>776.71</ele>
        <time>2021-05-23T14:26:59.855Z</time>
      </trkpt>
      <trkpt lat="44.76762" lon="4.25834">
        <ele>777.27</ele>
        <time>2021-05-23T14:27:09.313Z</time>
      </trkpt>
      <trkpt lat="44.76773" lon="4.25821">
        <ele>777.04</ele>
        <time>2021-05-23T14:27:19.131Z</time>
      </trkpt>
      <trkpt lat="44.76782" lon="4.25805">
        <ele>778.26</ele>
        <time>2021-05-23T14:27:28.133Z</time>
      </trkpt>
      <trkpt lat="44.76787" lon="4.25795">
        <ele>778.97</ele>
        <time>2021-05-23T14:27:38.097Z</time>
      </trkpt>
      <trkpt lat="44.76791" lon="4.2579">
        <ele>778.91</ele>
        <time>2021-05-23T14:27:47.934Z</time>
      </trkpt>
      <trkpt lat="44.76797" lon="4.2578">
        <ele>779.26</ele>
        <time>2021-05-23T14:27:57.135Z</time>
      </trkpt>
      <trkpt lat="44.76809" lon="4.25769">
        <ele>778.24</ele>
        <time>2021-05-23T14:28:06.315Z</time>
      </trkpt>
      <trkpt lat="44.76816" lon="4.25768">
        <ele>776.34</ele>
        <time>2021-05-23T14:28:15.991Z</time>
      </trkpt>
      <trkpt lat="44.76822" lon="4.25758">
        <ele>777.03</ele>
        <time>2021-05-23T14:28:36.089Z</time>
      </trkpt>
      <trkpt lat="44.76834" lon="4.2574">
        <ele>778.55</ele>
        <time>2021-05-23T14:28:45.146Z</time>
      </trkpt>
      <trkpt lat="44.76842" lon="4.25732">
        <ele>778.93</ele>
        <time>2021-05-23T14:28:54.350Z</time>
      </trkpt>
      <trkpt lat="44.76846" lon="4.25722">
        <ele>780.6</ele>
        <time>2021-05-23T14:29:07.000Z</time>
      </trkpt>
      <trkpt lat="44.76852" lon="4.25714">
        <ele>782.26</ele>
        <time>2021-05-23T14:29:17.318Z</time>
      </trkpt>
      <trkpt lat="44.76862" lon="4.25715">
        <ele>781.27</ele>
        <time>2021-05-23T14:29:36.094Z</time>
      </trkpt>
      <trkpt lat="44.76876" lon="4.25731">
        <ele>776.91</ele>
        <time>2021-05-23T14:29:45.275Z</time>
      </trkpt>
      <trkpt lat="44.76887" lon="4.25745">
        <ele>772.47</ele>
        <time>2021-05-23T14:29:55.334Z</time>
      </trkpt>
      <trkpt lat="44.76893" lon="4.25758">
        <ele>768.41</ele>
        <time>2021-05-23T14:30:05.272Z</time>
      </trkpt>
      <trkpt lat="44.769" lon="4.25762">
        <ele>766.51</ele>
        <time>2021-05-23T14:30:14.450Z</time>
      </trkpt>
      <trkpt lat="44.76913" lon="4.25757">
        <ele>766.05</ele>
        <time>2021-05-23T14:30:24.461Z</time>
      </trkpt>
      <trkpt lat="44.76923" lon="4.25744">
        <ele>766.71</ele>
        <time>2021-05-23T14:30:34.008Z</time>
      </trkpt>
      <trkpt lat="44.76933" lon="4.2573">
        <ele>766.01</ele>
        <time>2021-05-23T14:30:43.071Z</time>
      </trkpt>
      <trkpt lat="44.76939" lon="4.25715">
        <ele>766.16</ele>
        <time>2021-05-23T14:30:52.377Z</time>
      </trkpt>
      <trkpt lat="44.76946" lon="4.257">
        <ele>765.97</ele>
        <time>2021-05-23T14:31:02.140Z</time>
      </trkpt>
      <trkpt lat="44.76952" lon="4.25687">
        <ele>765.45</ele>
        <time>2021-05-23T14:31:11.512Z</time>
      </trkpt>
      <trkpt lat="44.76958" lon="4.25677">
        <ele>765.1</ele>
        <time>2021-05-23T14:31:21.352Z</time>
      </trkpt>
      <trkpt lat="44.76963" lon="4.25667">
        <ele>764.88</ele>
        <time>2021-05-23T14:31:30.353Z</time>
      </trkpt>
      <trkpt lat="44.76967" lon="4.25653">
        <ele>767.61</ele>
        <time>2021-05-23T14:31:39.991Z</time>
      </trkpt>
      <trkpt lat="44.76972" lon="4.2564">
        <ele>770.11</ele>
        <time>2021-05-23T14:31:49.010Z</time>
      </trkpt>
      <trkpt lat="44.7698" lon="4.2563">
        <ele>771.04</ele>
        <time>2021-05-23T14:31:59.425Z</time>
      </trkpt>
      <trkpt lat="44.76983" lon="4.25618">
        <ele>775.17</ele>
        <time>2021-05-23T14:32:09.456Z</time>
      </trkpt>
      <trkpt lat="44.76989" lon="4.25602">
        <ele>780.19</ele>
        <time>2021-05-23T14:32:18.696Z</time>
      </trkpt>
      <trkpt lat="44.76998" lon="4.25592">
        <ele>781.21</ele>
        <time>2021-05-23T14:32:27.999Z</time>
      </trkpt>
      <trkpt lat="44.77001" lon="4.25579">
        <ele>785.56</ele>
        <time>2021-05-23T14:32:38.016Z</time>
      </trkpt>
      <trkpt lat="44.77003" lon="4.25569">
        <ele>788.95</ele>
        <time>2021-05-23T14:32:48.033Z</time>
      </trkpt>
      <trkpt lat="44.77009" lon="4.25555">
        <ele>792.4</ele>
        <time>2021-05-23T14:32:57.092Z</time>
      </trkpt>
      <trkpt lat="44.77019" lon="4.25553">
        <ele>786.47</ele>
        <time>2021-05-23T14:33:06.610Z</time>
      </trkpt>
      <trkpt lat="44.77024" lon="4.2554">
        <ele>789.12</ele>
        <time>2021-05-23T14:33:16.153Z</time>
      </trkpt>
      <trkpt lat="44.7703" lon="4.25523">
        <ele>793.82</ele>
        <time>2021-05-23T14:33:25.997Z</time>
      </trkpt>
      <trkpt lat="44.77032" lon="4.25509">
        <ele>798.96</ele>
        <time>2021-05-23T14:33:36.275Z</time>
      </trkpt>
      <trkpt lat="44.77035" lon="4.25497">
        <ele>803.46</ele>
        <time>2021-05-23T14:33:46.375Z</time>
      </trkpt>
      <trkpt lat="44.77036" lon="4.25491">
        <ele>806.17</ele>
        <time>2021-05-23T14:33:56.295Z</time>
      </trkpt>
      <trkpt lat="44.77042" lon="4.25485">
        <ele>805.1</ele>
        <time>2021-05-23T14:34:05.471Z</time>
      </trkpt>
      <trkpt lat="44.77045" lon="4.25484">
        <ele>803.14</ele>
        <time>2021-05-23T14:34:14.991Z</time>
      </trkpt>
      <trkpt lat="44.7705" lon="4.25476">
        <ele>803.77</ele>
        <time>2021-05-23T14:34:24.150Z</time>
      </trkpt>
      <trkpt lat="44.77056" lon="4.2547">
        <ele>803.22</ele>
        <time>2021-05-23T14:34:34.112Z</time>
      </trkpt>
      <trkpt lat="44.77061" lon="4.25466">
        <ele>801.87</ele>
        <time>2021-05-23T14:34:43.210Z</time>
      </trkpt>
      <trkpt lat="44.77068" lon="4.25451">
        <ele>806.64</ele>
        <time>2021-05-23T14:34:53.342Z</time>
      </trkpt>
      <trkpt lat="44.77074" lon="4.25442">
        <ele>808.06</ele>
        <time>2021-05-23T14:35:02.517Z</time>
      </trkpt>
      <trkpt lat="44.77081" lon="4.25426">
        <ele>814.34</ele>
        <time>2021-05-23T14:35:12.299Z</time>
      </trkpt>
      <trkpt lat="44.77085" lon="4.25412">
        <ele>821.4</ele>
        <time>2021-05-23T14:35:22.444Z</time>
      </trkpt>
      <trkpt lat="44.77089" lon="4.25401">
        <ele>827.05</ele>
        <time>2021-05-23T14:35:31.656Z</time>
      </trkpt>
      <trkpt lat="44.77096" lon="4.25396">
        <ele>827.3</ele>
        <time>2021-05-23T14:35:40.853Z</time>
      </trkpt>
      <trkpt lat="44.77107" lon="4.25392">
        <ele>826.37</ele>
        <time>2021-05-23T14:35:49.999Z</time>
      </trkpt>
      <trkpt lat="44.77115" lon="4.25386">
        <ele>827.21</ele>
        <time>2021-05-23T14:35:59.335Z</time>
      </trkpt>
      <trkpt lat="44.77123" lon="4.25383">
        <ele>826.6</ele>
        <time>2021-05-23T14:36:08.394Z</time>
      </trkpt>
      <trkpt lat="44.77129" lon="4.25382">
        <ele>825.23</ele>
        <time>2021-05-23T14:36:18.464Z</time>
      </trkpt>
      <trkpt lat="44.77138" lon="4.2538">
        <ele>824.37</ele>
        <time>2021-05-23T14:36:28.393Z</time>
      </trkpt>
      <trkpt lat="44.77149" lon="4.25375">
        <ele>824.85</ele>
        <time>2021-05-23T14:36:37.999Z</time>
      </trkpt>
      <trkpt lat="44.77157" lon="4.25372">
        <ele>825.64</ele>
        <time>2021-05-23T14:36:47.114Z</time>
      </trkpt>
      <trkpt lat="44.77167" lon="4.25377">
        <ele>821.45</ele>
        <time>2021-05-23T14:36:56.314Z</time>
      </trkpt>
      <trkpt lat="44.77177" lon="4.25383">
        <ele>818.58</ele>
        <time>2021-05-23T14:37:06.252Z</time>
      </trkpt>
      <trkpt lat="44.77186" lon="4.25385">
        <ele>818.23</ele>
        <time>2021-05-23T14:37:16.151Z</time>
      </trkpt>
      <trkpt lat="44.77189" lon="4.25386">
        <ele>818.39</ele>
        <time>2021-05-23T14:37:25.392Z</time>
      </trkpt>
      <trkpt lat="44.77194" lon="4.25386">
        <ele>819.55</ele>
        <time>2021-05-23T14:37:35.289Z</time>
      </trkpt>
      <trkpt lat="44.77204" lon="4.25384">
        <ele>823.71</ele>
        <time>2021-05-23T14:37:45.330Z</time>
      </trkpt>
      <trkpt lat="44.77217" lon="4.25381">
        <ele>829.56</ele>
        <time>2021-05-23T14:37:55.201Z</time>
      </trkpt>
      <trkpt lat="44.77226" lon="4.25388">
        <ele>828.9</ele>
        <time>2021-05-23T14:38:04.258Z</time>
      </trkpt>
      <trkpt lat="44.77233" lon="4.25401">
        <ele>825.1</ele>
        <time>2021-05-23T14:38:13.879Z</time>
      </trkpt>
      <trkpt lat="44.77239" lon="4.25405">
        <ele>825.32</ele>
        <time>2021-05-23T14:38:22.959Z</time>
      </trkpt>
      <trkpt lat="44.77243" lon="4.25407">
        <ele>825.47</ele>
        <time>2021-05-23T14:38:31.977Z</time>
      </trkpt>
      <trkpt lat="44.77248" lon="4.25413">
        <ele>824.22</ele>
        <time>2021-05-23T14:38:40.995Z</time>
      </trkpt>
      <trkpt lat="44.77257" lon="4.25423">
        <ele>822.03</ele>
        <time>2021-05-23T14:38:51.355Z</time>
      </trkpt>
      <trkpt lat="44.77264" lon="4.25427">
        <ele>821.68</ele>
        <time>2021-05-23T14:39:00.892Z</time>
      </trkpt>
      <trkpt lat="44.7727" lon="4.25431">
        <ele>821.82</ele>
        <time>2021-05-23T14:39:09.932Z</time>
      </trkpt>
      <trkpt lat="44.7728" lon="4.25434">
        <ele>822.78</ele>
        <time>2021-05-23T14:39:19.011Z</time>
      </trkpt>
      <trkpt lat="44.77286" lon="4.25437">
        <ele>823.24</ele>
        <time>2021-05-23T14:39:28.312Z</time>
      </trkpt>
      <trkpt lat="44.77291" lon="4.25436">
        <ele>824.97</ele>
        <time>2021-05-23T14:39:37.788Z</time>
      </trkpt>
      <trkpt lat="44.77295" lon="4.25434">
        <ele>827.09</ele>
        <time>2021-05-23T14:39:46.810Z</time>
      </trkpt>
      <trkpt lat="44.77304" lon="4.25429">
        <ele>831.93</ele>
        <time>2021-05-23T14:39:55.858Z</time>
      </trkpt>
      <trkpt lat="44.77315" lon="4.2543">
        <ele>834.37</ele>
        <time>2021-05-23T14:40:04.999Z</time>
      </trkpt>
      <trkpt lat="44.77322" lon="4.25431">
        <ele>836.05</ele>
        <time>2021-05-23T14:40:14.058Z</time>
      </trkpt>
      <trkpt lat="44.77335" lon="4.25436">
        <ele>837.57</ele>
        <time>2021-05-23T14:40:23.320Z</time>
      </trkpt>
      <trkpt lat="44.77348" lon="4.25437">
        <ele>841.88</ele>
        <time>2021-05-23T14:40:33.157Z</time>
      </trkpt>
      <trkpt lat="44.77361" lon="4.25447">
        <ele>842.5</ele>
        <time>2021-05-23T14:40:43.212Z</time>
      </trkpt>
      <trkpt lat="44.77371" lon="4.25455">
        <ele>843.17</ele>
        <time>2021-05-23T14:40:52.330Z</time>
      </trkpt>
      <trkpt lat="44.7738" lon="4.25467">
        <ele>842.24</ele>
        <time>2021-05-23T14:41:01.710Z</time>
      </trkpt>
      <trkpt lat="44.77385" lon="4.25472">
        <ele>842.28</ele>
        <time>2021-05-23T14:41:10.788Z</time>
      </trkpt>
      <trkpt lat="44.77389" lon="4.25475">
        <ele>842.8</ele>
        <time>2021-05-23T14:41:20.198Z</time>
      </trkpt>
      <trkpt lat="44.77396" lon="4.25483">
        <ele>842.18</ele>
        <time>2021-05-23T14:41:30.197Z</time>
      </trkpt>
      <trkpt lat="44.77407" lon="4.25493">
        <ele>841.81</ele>
        <time>2021-05-23T14:41:40.376Z</time>
      </trkpt>
      <trkpt lat="44.77412" lon="4.25502">
        <ele>839.94</ele>
        <time>2021-05-23T14:41:49.999Z</time>
      </trkpt>
      <trkpt lat="44.7742" lon="4.25507">
        <ele>840.34</ele>
        <time>2021-05-23T14:42:00.252Z</time>
      </trkpt>
      <trkpt lat="44.7743" lon="4.25511">
        <ele>840.66</ele>
        <time>2021-05-23T14:42:10.034Z</time>
      </trkpt>
      <trkpt lat="44.77437" lon="4.25517">
        <ele>839.89</ele>
        <time>2021-05-23T14:42:19.054Z</time>
      </trkpt>
      <trkpt lat="44.77447" lon="4.25522">
        <ele>840.25</ele>
        <time>2021-05-23T14:42:28.277Z</time>
      </trkpt>
      <trkpt lat="44.77455" lon="4.25523">
        <ele>840.97</ele>
        <time>2021-05-23T14:42:38.218Z</time>
      </trkpt>
      <trkpt lat="44.7746" lon="4.25525">
        <ele>840.92</ele>
        <time>2021-05-23T14:42:50.000Z</time>
      </trkpt>
      <trkpt lat="44.77474" lon="4.25533">
        <ele>840.09</ele>
        <time>2021-05-23T14:42:59.075Z</time>
      </trkpt>
      <trkpt lat="44.77485" lon="4.25538">
        <ele>839.01</ele>
        <time>2021-05-23T14:43:08.234Z</time>
      </trkpt>
      <trkpt lat="44.77494" lon="4.25543">
        <ele>837.72</ele>
        <time>2021-05-23T14:43:17.974Z</time>
      </trkpt>
      <trkpt lat="44.77498" lon="4.25541">
        <ele>837.86</ele>
        <time>2021-05-23T14:43:27.192Z</time>
      </trkpt>
      <trkpt lat="44.77507" lon="4.25536">
        <ele>837.67</ele>
        <time>2021-05-23T14:43:37.274Z</time>
      </trkpt>
      <trkpt lat="44.77511" lon="4.2553">
        <ele>837.98</ele>
        <time>2021-05-23T14:43:46.952Z</time>
      </trkpt>
      <trkpt lat="44.77514" lon="4.25517">
        <ele>839.21</ele>
        <time>2021-05-23T14:44:07.049Z</time>
      </trkpt>
      <trkpt lat="44.7752" lon="4.25499">
        <ele>840.28</ele>
        <time>2021-05-23T14:44:16.220Z</time>
      </trkpt>
      <trkpt lat="44.77522" lon="4.25492">
        <ele>840.53</ele>
        <time>2021-05-23T14:44:26.676Z</time>
      </trkpt>
      <trkpt lat="44.77526" lon="4.2548">
        <ele>840.04</ele>
        <time>2021-05-23T14:44:35.716Z</time>
      </trkpt>
      <trkpt lat="44.77532" lon="4.25465">
        <ele>838.98</ele>
        <time>2021-05-23T14:44:45.096Z</time>
      </trkpt>
      <trkpt lat="44.77533" lon="4.25454">
        <ele>839.95</ele>
        <time>2021-05-23T14:44:54.237Z</time>
      </trkpt>
      <trkpt lat="44.77531" lon="4.25439">
        <ele>841.99</ele>
        <time>2021-05-23T14:45:04.098Z</time>
      </trkpt>
      <trkpt lat="44.77532" lon="4.25425">
        <ele>842.7</ele>
        <time>2021-05-23T14:45:13.515Z</time>
      </trkpt>
      <trkpt lat="44.77527" lon="4.2541">
        <ele>846.51</ele>
        <time>2021-05-23T14:45:22.892Z</time>
      </trkpt>
      <trkpt lat="44.77529" lon="4.25396">
        <ele>847.12</ele>
        <time>2021-05-23T14:45:32.294Z</time>
      </trkpt>
      <trkpt lat="44.77529" lon="4.25381">
        <ele>848.15</ele>
        <time>2021-05-23T14:45:42.251Z</time>
      </trkpt>
      <trkpt lat="44.77533" lon="4.25365">
        <ele>847.84</ele>
        <time>2021-05-23T14:45:51.530Z</time>
      </trkpt>
      <trkpt lat="44.77551" lon="4.25331">
        <ele>844.01</ele>
        <time>2021-05-23T14:46:45.000Z</time>
      </trkpt>
      <trkpt lat="44.77558" lon="4.25317">
        <ele>843.17</ele>
        <time>2021-05-23T14:46:54.471Z</time>
      </trkpt>
      <trkpt lat="44.77568" lon="4.25309">
        <ele>841.26</ele>
        <time>2021-05-23T14:47:22.486Z</time>
      </trkpt>
      <trkpt lat="44.77575" lon="4.25309">
        <ele>840.02</ele>
        <time>2021-05-23T14:47:35.278Z</time>
      </trkpt>
      <trkpt lat="44.77579" lon="4.25317">
        <ele>838.56</ele>
        <time>2021-05-23T14:47:45.178Z</time>
      </trkpt>
      <trkpt lat="44.77581" lon="4.2533">
        <ele>836.83</ele>
        <time>2021-05-23T14:47:55.238Z</time>
      </trkpt>
      <trkpt lat="44.77581" lon="4.25346">
        <ele>834.71</ele>
        <time>2021-05-23T14:48:04.453Z</time>
      </trkpt>
      <trkpt lat="44.77584" lon="4.25351">
        <ele>833.46</ele>
        <time>2021-05-23T14:48:14.175Z</time>
      </trkpt>
      <trkpt lat="44.7759" lon="4.25366">
        <ele>830.69</ele>
        <time>2021-05-23T14:48:23.450Z</time>
      </trkpt>
      <trkpt lat="44.77598" lon="4.2537">
        <ele>829.58</ele>
        <time>2021-05-23T14:48:32.463Z</time>
      </trkpt>
      <trkpt lat="44.77604" lon="4.25373">
        <ele>829.04</ele>
        <time>2021-05-23T14:48:42.012Z</time>
      </trkpt>
      <trkpt lat="44.77611" lon="4.25377">
        <ele>828.54</ele>
        <time>2021-05-23T14:48:52.000Z</time>
      </trkpt>
      <trkpt lat="44.77611" lon="4.25373">
        <ele>829.29</ele>
        <time>2021-05-23T14:49:01.956Z</time>
      </trkpt>
      <trkpt lat="44.77614" lon="4.2537">
        <ele>829.94</ele>
        <time>2021-05-23T14:49:11.813Z</time>
      </trkpt>
      <trkpt lat="44.77621" lon="4.25374">
        <ele>829.73</ele>
        <time>2021-05-23T14:49:21.000Z</time>
      </trkpt>
      <trkpt lat="44.77623" lon="4.25374">
        <ele>829.97</ele>
        <time>2021-05-23T14:49:31.000Z</time>
      </trkpt>
      <trkpt lat="44.77621" lon="4.25373">
        <ele>830.01</ele>
        <time>2021-05-23T14:49:43.000Z</time>
      </trkpt>
      <trkpt lat="44.77624" lon="4.25375">
        <ele>829.87</ele>
        <time>2021-05-23T14:49:53.000Z</time>
      </trkpt>
      <trkpt lat="44.77621" lon="4.25379">
        <ele>828.83</ele>
        <time>2021-05-23T14:50:22.000Z</time>
      </trkpt>
      <trkpt lat="44.7762" lon="4.25368">
        <ele>830.79</ele>
        <time>2021-05-23T14:54:14.999Z</time>
      </trkpt>
      <trkpt lat="44.77627" lon="4.25371">
        <ele>830.92</ele>
        <time>2021-05-23T14:54:24.534Z</time>
      </trkpt>
      <trkpt lat="44.77632" lon="4.25376">
        <ele>830.45</ele>
        <time>2021-05-23T14:54:33.999Z</time>
      </trkpt>
      <trkpt lat="44.77633" lon="4.25376">
        <ele>830.49</ele>
        <time>2021-05-23T14:54:43.178Z</time>
      </trkpt>
      <trkpt lat="44.77641" lon="4.25378">
        <ele>830.86</ele>
        <time>2021-05-23T14:54:52.399Z</time>
      </trkpt>
      <trkpt lat="44.77647" lon="4.25379">
        <ele>831.21</ele>
        <time>2021-05-23T14:55:02.554Z</time>
      </trkpt>
      <trkpt lat="44.77653" lon="4.25378">
        <ele>832.07</ele>
        <time>2021-05-23T14:55:11.999Z</time>
      </trkpt>
      <trkpt lat="44.77655" lon="4.25372">
        <ele>833.68</ele>
        <time>2021-05-23T14:55:21.514Z</time>
      </trkpt>
      <trkpt lat="44.77659" lon="4.25363">
        <ele>836.38</ele>
        <time>2021-05-23T14:55:30.933Z</time>
      </trkpt>
      <trkpt lat="44.77666" lon="4.25359">
        <ele>838.01</ele>
        <time>2021-05-23T14:55:40.192Z</time>
      </trkpt>
      <trkpt lat="44.77675" lon="4.25357">
        <ele>838.92</ele>
        <time>2021-05-23T14:55:49.372Z</time>
      </trkpt>
      <trkpt lat="44.7768" lon="4.2535">
        <ele>841.17</ele>
        <time>2021-05-23T14:55:58.492Z</time>
      </trkpt>
      <trkpt lat="44.77686" lon="4.25343">
        <ele>843.44</ele>
        <time>2021-05-23T14:56:08.008Z</time>
      </trkpt>
      <trkpt lat="44.77695" lon="4.25337">
        <ele>845.56</ele>
        <time>2021-05-23T14:56:17.358Z</time>
      </trkpt>
      <trkpt lat="44.77703" lon="4.25335">
        <ele>846.72</ele>
        <time>2021-05-23T14:56:26.500Z</time>
      </trkpt>
      <trkpt lat="44.77715" lon="4.25334">
        <ele>847.58</ele>
        <time>2021-05-23T14:56:36.378Z</time>
      </trkpt>
      <trkpt lat="44.77723" lon="4.2533">
        <ele>849.26</ele>
        <time>2021-05-23T14:56:45.953Z</time>
      </trkpt>
      <trkpt lat="44.77732" lon="4.25324">
        <ele>852.14</ele>
        <time>2021-05-23T14:56:55.174Z</time>
      </trkpt>
      <trkpt lat="44.77738" lon="4.25317">
        <ele>854.95</ele>
        <time>2021-05-23T14:57:04.454Z</time>
      </trkpt>
      <trkpt lat="44.7774" lon="4.25309">
        <ele>858.1</ele>
        <time>2021-05-23T14:57:13.975Z</time>
      </trkpt>
      <trkpt lat="44.77743" lon="4.25301">
        <ele>861.17</ele>
        <time>2021-05-23T14:57:22.999Z</time>
      </trkpt>
      <trkpt lat="44.77752" lon="4.253">
        <ele>862.53</ele>
        <time>2021-05-23T14:57:32.036Z</time>
      </trkpt>
      <trkpt lat="44.77759" lon="4.25301">
        <ele>863.37</ele>
        <time>2021-05-23T14:57:41.151Z</time>
      </trkpt>
      <trkpt lat="44.77768" lon="4.25301">
        <ele>864.73</ele>
        <time>2021-05-23T14:57:50.373Z</time>
      </trkpt>
      <trkpt lat="44.77775" lon="4.25297">
        <ele>867.14</ele>
        <time>2021-05-23T14:57:59.911Z</time>
      </trkpt>
      <trkpt lat="44.77778" lon="4.25293">
        <ele>868.68</ele>
        <time>2021-05-23T14:58:08.999Z</time>
      </trkpt>
      <trkpt lat="44.77782" lon="4.25288">
        <ele>870.83</ele>
        <time>2021-05-23T14:58:22.999Z</time>
      </trkpt>
      <trkpt lat="44.77784" lon="4.2529">
        <ele>870.56</ele>
        <time>2021-05-23T14:58:33.174Z</time>
      </trkpt>
      <trkpt lat="44.77791" lon="4.25302">
        <ele>868.08</ele>
        <time>2021-05-23T14:58:42.195Z</time>
      </trkpt>
      <trkpt lat="44.77796" lon="4.25322">
        <ele>863.27</ele>
        <time>2021-05-23T14:58:51.994Z</time>
      </trkpt>
      <trkpt lat="44.77796" lon="4.25338">
        <ele>857.93</ele>
        <time>2021-05-23T14:59:01.195Z</time>
      </trkpt>
      <trkpt lat="44.77797" lon="4.25356">
        <ele>851.85</ele>
        <time>2021-05-23T14:59:10.352Z</time>
      </trkpt>
      <trkpt lat="44.77803" lon="4.25367">
        <ele>849.62</ele>
        <time>2021-05-23T14:59:20.012Z</time>
      </trkpt>
      <trkpt lat="44.77811" lon="4.25366">
        <ele>852</ele>
        <time>2021-05-23T14:59:29.470Z</time>
      </trkpt>
      <trkpt lat="44.77822" lon="4.25369">
        <ele>853.73</ele>
        <time>2021-05-23T14:59:39.491Z</time>
      </trkpt>
      <trkpt lat="44.77833" lon="4.25378">
        <ele>853.63</ele>
        <time>2021-05-23T14:59:49.449Z</time>
      </trkpt>
      <trkpt lat="44.77839" lon="4.25376">
        <ele>856.03</ele>
        <time>2021-05-23T14:59:58.999Z</time>
      </trkpt>
      <trkpt lat="44.77843" lon="4.25377">
        <ele>857.12</ele>
        <time>2021-05-23T15:00:08.339Z</time>
      </trkpt>
      <trkpt lat="44.77853" lon="4.25382">
        <ele>859.12</ele>
        <time>2021-05-23T15:00:17.961Z</time>
      </trkpt>
      <trkpt lat="44.77866" lon="4.25391">
        <ele>860.38</ele>
        <time>2021-05-23T15:00:27.100Z</time>
      </trkpt>
      <trkpt lat="44.77872" lon="4.25406">
        <ele>856.95</ele>
        <time>2021-05-23T15:00:36.297Z</time>
      </trkpt>
      <trkpt lat="44.77877" lon="4.25413">
        <ele>856.05</ele>
        <time>2021-05-23T15:00:46.376Z</time>
      </trkpt>
      <trkpt lat="44.7789" lon="4.2542">
        <ele>857.2</ele>
        <time>2021-05-23T15:00:56.473Z</time>
      </trkpt>
      <trkpt lat="44.779" lon="4.25427">
        <ele>856.53</ele>
        <time>2021-05-23T15:01:05.674Z</time>
      </trkpt>
      <trkpt lat="44.77903" lon="4.25434">
        <ele>853.51</ele>
        <time>2021-05-23T15:01:15.134Z</time>
      </trkpt>
      <trkpt lat="44.77901" lon="4.25437">
        <ele>851.3</ele>
        <time>2021-05-23T15:01:29.395Z</time>
      </trkpt>
      <trkpt lat="44.77909" lon="4.25435">
        <ele>854.46</ele>
        <time>2021-05-23T15:01:39.211Z</time>
      </trkpt>
      <trkpt lat="44.7792" lon="4.2543">
        <ele>858.28</ele>
        <time>2021-05-23T15:01:49.216Z</time>
      </trkpt>
      <trkpt lat="44.77927" lon="4.25428">
        <ele>859.78</ele>
        <time>2021-05-23T15:01:59.256Z</time>
      </trkpt>
      <trkpt lat="44.77937" lon="4.25424">
        <ele>861.39</ele>
        <time>2021-05-23T15:02:08.497Z</time>
      </trkpt>
      <trkpt lat="44.77949" lon="4.25421">
        <ele>860.53</ele>
        <time>2021-05-23T15:02:18.272Z</time>
      </trkpt>
      <trkpt lat="44.77958" lon="4.25415">
        <ele>861.43</ele>
        <time>2021-05-23T15:02:27.991Z</time>
      </trkpt>
      <trkpt lat="44.77965" lon="4.2541">
        <ele>861.97</ele>
        <time>2021-05-23T15:02:37.032Z</time>
      </trkpt>
      <trkpt lat="44.77978" lon="4.25412">
        <ele>858.23</ele>
        <time>2021-05-23T15:02:46.167Z</time>
      </trkpt>
      <trkpt lat="44.77986" lon="4.25406">
        <ele>858.55</ele>
        <time>2021-05-23T15:02:55.347Z</time>
      </trkpt>
      <trkpt lat="44.77993" lon="4.25396">
        <ele>860.78</ele>
        <time>2021-05-23T15:03:04.460Z</time>
      </trkpt>
      <trkpt lat="44.77996" lon="4.25382">
        <ele>865.03</ele>
        <time>2021-05-23T15:03:13.497Z</time>
      </trkpt>
      <trkpt lat="44.77997" lon="4.25366">
        <ele>870.2</ele>
        <time>2021-05-23T15:03:23.000Z</time>
      </trkpt>
      <trkpt lat="44.78006" lon="4.25354">
        <ele>871.9</ele>
        <time>2021-05-23T15:03:33.238Z</time>
      </trkpt>
      <trkpt lat="44.78014" lon="4.25339">
        <ele>873.77</ele>
        <time>2021-05-23T15:03:42.896Z</time>
      </trkpt>
      <trkpt lat="44.78017" lon="4.25325">
        <ele>876.58</ele>
        <time>2021-05-23T15:03:52.391Z</time>
      </trkpt>
      <trkpt lat="44.78019" lon="4.25313">
        <ele>878.99</ele>
        <time>2021-05-23T15:04:01.629Z</time>
      </trkpt>
      <trkpt lat="44.78021" lon="4.25296">
        <ele>883.03</ele>
        <time>2021-05-23T15:04:11.130Z</time>
      </trkpt>
      <trkpt lat="44.78024" lon="4.25283">
        <ele>885.26</ele>
        <time>2021-05-23T15:04:21.190Z</time>
      </trkpt>
      <trkpt lat="44.78028" lon="4.25276">
        <ele>885.22</ele>
        <time>2021-05-23T15:04:31.337Z</time>
      </trkpt>
      <trkpt lat="44.78032" lon="4.25268">
        <ele>885.29</ele>
        <time>2021-05-23T15:04:41.277Z</time>
      </trkpt>
      <trkpt lat="44.78038" lon="4.25258">
        <ele>885.2</ele>
        <time>2021-05-23T15:04:51.154Z</time>
      </trkpt>
      <trkpt lat="44.78047" lon="4.25246">
        <ele>884.49</ele>
        <time>2021-05-23T15:05:00.592Z</time>
      </trkpt>
      <trkpt lat="44.78055" lon="4.25234">
        <ele>883.78</ele>
        <time>2021-05-23T15:05:09.730Z</time>
      </trkpt>
      <trkpt lat="44.78062" lon="4.25221">
        <ele>883.99</ele>
        <time>2021-05-23T15:05:19.171Z</time>
      </trkpt>
      <trkpt lat="44.78066" lon="4.25212">
        <ele>884.46</ele>
        <time>2021-05-23T15:05:28.532Z</time>
      </trkpt>
      <trkpt lat="44.7807" lon="4.25194">
        <ele>886.78</ele>
        <time>2021-05-23T15:05:38.008Z</time>
      </trkpt>
      <trkpt lat="44.78077" lon="4.25176">
        <ele>887.96</ele>
        <time>2021-05-23T15:05:47.060Z</time>
      </trkpt>
      <trkpt lat="44.7808" lon="4.25167">
        <ele>888.71</ele>
        <time>2021-05-23T15:05:57.239Z</time>
      </trkpt>
      <trkpt lat="44.78083" lon="4.25153">
        <ele>890.08</ele>
        <time>2021-05-23T15:06:06.535Z</time>
      </trkpt>
      <trkpt lat="44.78086" lon="4.25139">
        <ele>891.46</ele>
        <time>2021-05-23T15:06:15.755Z</time>
      </trkpt>
      <trkpt lat="44.78089" lon="4.25125">
        <ele>892.8</ele>
        <time>2021-05-23T15:06:25.215Z</time>
      </trkpt>
      <trkpt lat="44.78089" lon="4.25111">
        <ele>894.44</ele>
        <time>2021-05-23T15:06:34.255Z</time>
      </trkpt>
      <trkpt lat="44.78086" lon="4.25101">
        <ele>896.21</ele>
        <time>2021-05-23T15:06:43.311Z</time>
      </trkpt>
      <trkpt lat="44.78083" lon="4.25089">
        <ele>898.33</ele>
        <time>2021-05-23T15:06:52.377Z</time>
      </trkpt>
      <trkpt lat="44.78084" lon="4.25076">
        <ele>899.82</ele>
        <time>2021-05-23T15:07:01.781Z</time>
      </trkpt>
      <trkpt lat="44.78077" lon="4.25058">
        <ele>903.62</ele>
        <time>2021-05-23T15:07:11.056Z</time>
      </trkpt>
      <trkpt lat="44.78075" lon="4.25047">
        <ele>905.51</ele>
        <time>2021-05-23T15:07:21.000Z</time>
      </trkpt>
      <trkpt lat="44.78073" lon="4.25046">
        <ele>906.43</ele>
        <time>2021-05-23T15:07:30.096Z</time>
      </trkpt>
      <trkpt lat="44.78069" lon="4.25039">
        <ele>908.74</ele>
        <time>2021-05-23T15:07:39.132Z</time>
      </trkpt>
      <trkpt lat="44.7807" lon="4.25027">
        <ele>909.47</ele>
        <time>2021-05-23T15:07:48.174Z</time>
      </trkpt>
      <trkpt lat="44.78072" lon="4.25025">
        <ele>908.64</ele>
        <time>2021-05-23T15:07:57.391Z</time>
      </trkpt>
      <trkpt lat="44.78078" lon="4.2502">
        <ele>906.99</ele>
        <time>2021-05-23T15:08:07.251Z</time>
      </trkpt>
      <trkpt lat="44.78085" lon="4.25019">
        <ele>905.51</ele>
        <time>2021-05-23T15:08:17.363Z</time>
      </trkpt>
      <trkpt lat="44.78088" lon="4.25023">
        <ele>904.73</ele>
        <time>2021-05-23T15:08:26.495Z</time>
      </trkpt>
      <trkpt lat="44.78098" lon="4.25033">
        <ele>902.83</ele>
        <time>2021-05-23T15:08:35.717Z</time>
      </trkpt>
      <trkpt lat="44.78106" lon="4.25033">
        <ele>902.99</ele>
        <time>2021-05-23T15:08:44.937Z</time>
      </trkpt>
      <trkpt lat="44.78115" lon="4.25037">
        <ele>903.41</ele>
        <time>2021-05-23T15:08:54.214Z</time>
      </trkpt>
      <trkpt lat="44.78127" lon="4.25042">
        <ele>904.49</ele>
        <time>2021-05-23T15:09:03.451Z</time>
      </trkpt>
      <trkpt lat="44.78138" lon="4.2505">
        <ele>905.21</ele>
        <time>2021-05-23T15:09:12.754Z</time>
      </trkpt>
      <trkpt lat="44.78148" lon="4.25059">
        <ele>905.9</ele>
        <time>2021-05-23T15:09:22.441Z</time>
      </trkpt>
      <trkpt lat="44.78159" lon="4.25064">
        <ele>907.89</ele>
        <time>2021-05-23T15:09:31.849Z</time>
      </trkpt>
      <trkpt lat="44.78166" lon="4.25069">
        <ele>909.32</ele>
        <time>2021-05-23T15:09:41.091Z</time>
      </trkpt>
      <trkpt lat="44.78172" lon="4.25081">
        <ele>908.75</ele>
        <time>2021-05-23T15:09:50.595Z</time>
      </trkpt>
      <trkpt lat="44.78176" lon="4.25091">
        <ele>908.55</ele>
        <time>2021-05-23T15:10:00.036Z</time>
      </trkpt>
      <trkpt lat="44.78184" lon="4.25096">
        <ele>911.51</ele>
        <time>2021-05-23T15:10:10.317Z</time>
      </trkpt>
      <trkpt lat="44.7819" lon="4.2511">
        <ele>912.6</ele>
        <time>2021-05-23T15:10:20.216Z</time>
      </trkpt>
      <trkpt lat="44.78195" lon="4.25121">
        <ele>914.27</ele>
        <time>2021-05-23T15:10:29.352Z</time>
      </trkpt>
      <trkpt lat="44.78197" lon="4.25127">
        <ele>914.87</ele>
        <time>2021-05-23T15:10:39.353Z</time>
      </trkpt>
      <trkpt lat="44.78201" lon="4.25136">
        <ele>916.79</ele>
        <time>2021-05-23T15:10:48.460Z</time>
      </trkpt>
      <trkpt lat="44.78208" lon="4.25143">
        <ele>921.64</ele>
        <time>2021-05-23T15:10:58.000Z</time>
      </trkpt>
      <trkpt lat="44.78211" lon="4.25153">
        <ele>922.86</ele>
        <time>2021-05-23T15:11:07.091Z</time>
      </trkpt>
      <trkpt lat="44.78214" lon="4.25162">
        <ele>925.02</ele>
        <time>2021-05-23T15:11:17.000Z</time>
      </trkpt>
      <trkpt lat="44.78217" lon="4.25169">
        <ele>926.86</ele>
        <time>2021-05-23T15:11:26.466Z</time>
      </trkpt>
      <trkpt lat="44.78219" lon="4.25179">
        <ele>927.26</ele>
        <time>2021-05-23T15:11:35.940Z</time>
      </trkpt>
      <trkpt lat="44.7822" lon="4.25187">
        <ele>927.81</ele>
        <time>2021-05-23T15:11:54.465Z</time>
      </trkpt>
      <trkpt lat="44.78221" lon="4.25198">
        <ele>927.8</ele>
        <time>2021-05-23T15:12:04.000Z</time>
      </trkpt>
      <trkpt lat="44.78221" lon="4.25215">
        <ele>926.58</ele>
        <time>2021-05-23T15:12:13.134Z</time>
      </trkpt>
      <trkpt lat="44.78218" lon="4.25236">
        <ele>922.82</ele>
        <time>2021-05-23T15:12:22.399Z</time>
      </trkpt>
      <trkpt lat="44.78218" lon="4.25247">
        <ele>921.96</ele>
        <time>2021-05-23T15:12:31.670Z</time>
      </trkpt>
      <trkpt lat="44.78219" lon="4.25258">
        <ele>922.04</ele>
        <time>2021-05-23T15:12:41.193Z</time>
      </trkpt>
      <trkpt lat="44.78223" lon="4.25273">
        <ele>924.64</ele>
        <time>2021-05-23T15:12:50.901Z</time>
      </trkpt>
      <trkpt lat="44.78228" lon="4.25282">
        <ele>928.57</ele>
        <time>2021-05-23T15:12:59.999Z</time>
      </trkpt>
      <trkpt lat="44.78231" lon="4.25289">
        <ele>929.98</ele>
        <time>2021-05-23T15:13:09.296Z</time>
      </trkpt>
      <trkpt lat="44.78234" lon="4.25297">
        <ele>931.99</ele>
        <time>2021-05-23T15:13:18.999Z</time>
      </trkpt>
      <trkpt lat="44.78239" lon="4.2531">
        <ele>933.74</ele>
        <time>2021-05-23T15:13:28.954Z</time>
      </trkpt>
      <trkpt lat="44.78242" lon="4.25315">
        <ele>935.21</ele>
        <time>2021-05-23T15:13:43.092Z</time>
      </trkpt>
      <trkpt lat="44.78249" lon="4.2533">
        <ele>936.96</ele>
        <time>2021-05-23T15:13:52.999Z</time>
      </trkpt>
      <trkpt lat="44.7825" lon="4.25339">
        <ele>936.71</ele>
        <time>2021-05-23T15:14:02.051Z</time>
      </trkpt>
      <trkpt lat="44.78252" lon="4.25344">
        <ele>936.99</ele>
        <time>2021-05-23T15:14:11.999Z</time>
      </trkpt>
      <trkpt lat="44.78253" lon="4.25351">
        <ele>936.96</ele>
        <time>2021-05-23T15:14:21.210Z</time>
      </trkpt>
      <trkpt lat="44.78254" lon="4.25362">
        <ele>936.78</ele>
        <time>2021-05-23T15:14:31.469Z</time>
      </trkpt>
      <trkpt lat="44.78262" lon="4.25359">
        <ele>938.22</ele>
        <time>2021-05-23T15:15:05.039Z</time>
      </trkpt>
      <trkpt lat="44.78266" lon="4.25356">
        <ele>938.69</ele>
        <time>2021-05-23T15:15:17.979Z</time>
      </trkpt>
      <trkpt lat="44.78272" lon="4.25356">
        <ele>938.97</ele>
        <time>2021-05-23T15:15:26.995Z</time>
      </trkpt>
      <trkpt lat="44.78277" lon="4.25356">
        <ele>938.9</ele>
        <time>2021-05-23T15:15:36.276Z</time>
      </trkpt>
      <trkpt lat="44.78286" lon="4.25352">
        <ele>938.8</ele>
        <time>2021-05-23T15:15:46.175Z</time>
      </trkpt>
      <trkpt lat="44.78288" lon="4.25351">
        <ele>938.79</ele>
        <time>2021-05-23T15:15:55.973Z</time>
      </trkpt>
      <trkpt lat="44.78291" lon="4.25339">
        <ele>940.24</ele>
        <time>2021-05-23T15:16:04.974Z</time>
      </trkpt>
      <trkpt lat="44.78295" lon="4.25321">
        <ele>943.06</ele>
        <time>2021-05-23T15:16:25.331Z</time>
      </trkpt>
      <trkpt lat="44.78301" lon="4.25309">
        <ele>945.37</ele>
        <time>2021-05-23T15:16:35.401Z</time>
      </trkpt>
      <trkpt lat="44.78309" lon="4.25306">
        <ele>945.5</ele>
        <time>2021-05-23T15:16:44.874Z</time>
      </trkpt>
      <trkpt lat="44.78315" lon="4.253">
        <ele>946.75</ele>
        <time>2021-05-23T15:16:54.055Z</time>
      </trkpt>
      <trkpt lat="44.78329" lon="4.25287">
        <ele>949.36</ele>
        <time>2021-05-23T15:17:28.713Z</time>
      </trkpt>
      <trkpt lat="44.78338" lon="4.25284">
        <ele>949.04</ele>
        <time>2021-05-23T15:17:37.999Z</time>
      </trkpt>
      <trkpt lat="44.78374" lon="4.2526">
        <ele>946.29</ele>
        <time>2021-05-23T15:17:47.999Z</time>
      </trkpt>
      <trkpt lat="44.78378" lon="4.25254">
        <ele>946.54</ele>
        <time>2021-05-23T15:17:57.099Z</time>
      </trkpt>
      <trkpt lat="44.78385" lon="4.25243">
        <ele>947.7</ele>
        <time>2021-05-23T15:18:06.196Z</time>
      </trkpt>
      <trkpt lat="44.78393" lon="4.25237">
        <ele>946.93</ele>
        <time>2021-05-23T15:18:15.398Z</time>
      </trkpt>
      <trkpt lat="44.78407" lon="4.2523">
        <ele>944.54</ele>
        <time>2021-05-23T15:18:24.698Z</time>
      </trkpt>
      <trkpt lat="44.78418" lon="4.25221">
        <ele>945.46</ele>
        <time>2021-05-23T15:18:33.775Z</time>
      </trkpt>
      <trkpt lat="44.78435" lon="4.25217">
        <ele>943.72</ele>
        <time>2021-05-23T15:19:12.213Z</time>
      </trkpt>
      <trkpt lat="44.78441" lon="4.25216">
        <ele>942.67</ele>
        <time>2021-05-23T15:19:21.569Z</time>
      </trkpt>
      <trkpt lat="44.78467" lon="4.25229">
        <ele>933.65</ele>
        <time>2021-05-23T15:20:01.214Z</time>
      </trkpt>
      <trkpt lat="44.78474" lon="4.25231">
        <ele>931.89</ele>
        <time>2021-05-23T15:20:11.212Z</time>
      </trkpt>
      <trkpt lat="44.78487" lon="4.25235">
        <ele>928.4</ele>
        <time>2021-05-23T15:20:21.171Z</time>
      </trkpt>
      <trkpt lat="44.78504" lon="4.25236">
        <ele>925.38</ele>
        <time>2021-05-23T15:20:31.013Z</time>
      </trkpt>
      <trkpt lat="44.7852" lon="4.25236">
        <ele>922.38</ele>
        <time>2021-05-23T15:20:40.190Z</time>
      </trkpt>
      <trkpt lat="44.78545" lon="4.25234">
        <ele>918.32</ele>
        <time>2021-05-23T15:20:50.189Z</time>
      </trkpt>
      <trkpt lat="44.78563" lon="4.25233">
        <ele>915.96</ele>
        <time>2021-05-23T15:20:59.738Z</time>
      </trkpt>
      <trkpt lat="44.78573" lon="4.25229">
        <ele>916.12</ele>
        <time>2021-05-23T15:21:09.401Z</time>
      </trkpt>
      <trkpt lat="44.78583" lon="4.25223">
        <ele>917.21</ele>
        <time>2021-05-23T15:21:18.980Z</time>
      </trkpt>
      <trkpt lat="44.78593" lon="4.2522">
        <ele>917.65</ele>
        <time>2021-05-23T15:21:28.199Z</time>
      </trkpt>
      <trkpt lat="44.78595" lon="4.25227">
        <ele>915.05</ele>
        <time>2021-05-23T15:21:39.214Z</time>
      </trkpt>
      <trkpt lat="44.78598" lon="4.25234">
        <ele>912.37</ele>
        <time>2021-05-23T15:21:48.776Z</time>
      </trkpt>
      <trkpt lat="44.78606" lon="4.25249">
        <ele>906.81</ele>
        <time>2021-05-23T15:21:57.999Z</time>
      </trkpt>
      <trkpt lat="44.78607" lon="4.25254">
        <ele>905.06</ele>
        <time>2021-05-23T15:22:08.312Z</time>
      </trkpt>
      <trkpt lat="44.78606" lon="4.25261">
        <ele>902.53</ele>
        <time>2021-05-23T15:22:17.391Z</time>
      </trkpt>
      <trkpt lat="44.78613" lon="4.2527">
        <ele>899.23</ele>
        <time>2021-05-23T15:22:27.410Z</time>
      </trkpt>
      <trkpt lat="44.78624" lon="4.25271">
        <ele>898.35</ele>
        <time>2021-05-23T15:22:36.916Z</time>
      </trkpt>
      <trkpt lat="44.78634" lon="4.25267">
        <ele>899.75</ele>
        <time>2021-05-23T15:22:45.937Z</time>
      </trkpt>
      <trkpt lat="44.78639" lon="4.25266">
        <ele>900.22</ele>
        <time>2021-05-23T15:22:55.000Z</time>
      </trkpt>
      <trkpt lat="44.78641" lon="4.25264">
        <ele>900.98</ele>
        <time>2021-05-23T15:23:04.511Z</time>
      </trkpt>
      <trkpt lat="44.78653" lon="4.2526">
        <ele>903.51</ele>
        <time>2021-05-23T15:23:14.475Z</time>
      </trkpt>
      <trkpt lat="44.78664" lon="4.25254">
        <ele>907.08</ele>
        <time>2021-05-23T15:23:24.472Z</time>
      </trkpt>
      <trkpt lat="44.78672" lon="4.25249">
        <ele>910.56</ele>
        <time>2021-05-23T15:23:34.194Z</time>
      </trkpt>
      <trkpt lat="44.78682" lon="4.25246">
        <ele>914.3</ele>
        <time>2021-05-23T15:23:43.312Z</time>
      </trkpt>
      <trkpt lat="44.78693" lon="4.25244">
        <ele>919.15</ele>
        <time>2021-05-23T15:23:52.549Z</time>
      </trkpt>
      <trkpt lat="44.78705" lon="4.25248">
        <ele>922.51</ele>
        <time>2021-05-23T15:24:02.496Z</time>
      </trkpt>
      <trkpt lat="44.7871" lon="4.2526">
        <ele>920.79</ele>
        <time>2021-05-23T15:24:12.000Z</time>
      </trkpt>
      <trkpt lat="44.78711" lon="4.25271">
        <ele>917.48</ele>
        <time>2021-05-23T15:24:21.081Z</time>
      </trkpt>
      <trkpt lat="44.78712" lon="4.25286">
        <ele>913.42</ele>
        <time>2021-05-23T15:24:30.464Z</time>
      </trkpt>
      <trkpt lat="44.78719" lon="4.25298">
        <ele>912.52</ele>
        <time>2021-05-23T15:24:39.556Z</time>
      </trkpt>
      <trkpt lat="44.78725" lon="4.25309">
        <ele>911.93</ele>
        <time>2021-05-23T15:24:49.017Z</time>
      </trkpt>
      <trkpt lat="44.78732" lon="4.2532">
        <ele>911.4</ele>
        <time>2021-05-23T15:24:58.293Z</time>
      </trkpt>
      <trkpt lat="44.78736" lon="4.25329">
        <ele>910.72</ele>
        <time>2021-05-23T15:25:07.335Z</time>
      </trkpt>
      <trkpt lat="44.78735" lon="4.25331">
        <ele>909.89</ele>
        <time>2021-05-23T15:25:17.000Z</time>
      </trkpt>
      <trkpt lat="44.78734" lon="4.25329">
        <ele>909.78</ele>
        <time>2021-05-23T15:25:34.000Z</time>
      </trkpt>
    </trkseg>
  </trk>
</gpx>